<?xml version="1.0" encoding="UTF-8" standalone="no" ?>
<gpx xmlns="http://www.topografix.com/GPX/1/1" xmlns:xsi="http://www.w3.org/2001/XMLSchema-instance" xsi:schemaLocation="http://www.topografix.com/GPX/1/1 http://www.topografix.com/GPX/1/1/gpx.xsd" version="1.1" creator="VisuGPX - https://www.visugpx.com">
  <metadata>
    <name>Mont Julien</name>
    <desc><![CDATA[Départ de Cadolive,difficulté moyenne,
très beau panorama.]]></desc>
  </metadata>
  <trk>
    <name><![CDATA[Mont Julien_1]]></name>
    <trkseg>
      <trkpt lat="43.39418" lon="5.54513">
        <ele>358</ele>
        <time>2020-10-21T08:41:34Z</time>
      </trkpt>
      <trkpt lat="43.39423" lon="5.54514">
        <ele>358</ele>
        <time>2020-10-21T08:41:46Z</time>
      </trkpt>
      <trkpt lat="43.39424" lon="5.54507">
        <ele>358</ele>
        <time>2020-10-21T08:42:56Z</time>
      </trkpt>
      <trkpt lat="43.39425" lon="5.54515">
        <ele>358</ele>
        <time>2020-10-21T08:43:18Z</time>
      </trkpt>
      <trkpt lat="43.3943" lon="5.54518">
        <ele>358</ele>
        <time>2020-10-21T08:43:24Z</time>
      </trkpt>
      <trkpt lat="43.39434" lon="5.54513">
        <ele>358</ele>
        <time>2020-10-21T08:43:30Z</time>
      </trkpt>
      <trkpt lat="43.39436" lon="5.54506">
        <ele>359</ele>
        <time>2020-10-21T08:43:34Z</time>
      </trkpt>
      <trkpt lat="43.39439" lon="5.545">
        <ele>361</ele>
        <time>2020-10-21T08:43:40Z</time>
      </trkpt>
      <trkpt lat="43.39441" lon="5.54494">
        <ele>362</ele>
        <time>2020-10-21T08:43:46Z</time>
      </trkpt>
      <trkpt lat="43.39444" lon="5.54487">
        <ele>362</ele>
        <time>2020-10-21T08:43:52Z</time>
      </trkpt>
      <trkpt lat="43.39447" lon="5.54483">
        <ele>362</ele>
        <time>2020-10-21T08:43:56Z</time>
      </trkpt>
      <trkpt lat="43.39449" lon="5.54476">
        <ele>363</ele>
        <time>2020-10-21T08:44:04Z</time>
      </trkpt>
      <trkpt lat="43.39453" lon="5.54471">
        <ele>363</ele>
        <time>2020-10-21T08:44:14Z</time>
      </trkpt>
      <trkpt lat="43.39456" lon="5.54466">
        <ele>363</ele>
        <time>2020-10-21T08:44:24Z</time>
      </trkpt>
      <trkpt lat="43.39457" lon="5.5446">
        <ele>364</ele>
        <time>2020-10-21T08:44:34Z</time>
      </trkpt>
      <trkpt lat="43.39456" lon="5.54453">
        <ele>364</ele>
        <time>2020-10-21T08:44:40Z</time>
      </trkpt>
      <trkpt lat="43.39453" lon="5.54447">
        <ele>364</ele>
        <time>2020-10-21T08:44:46Z</time>
      </trkpt>
      <trkpt lat="43.39449" lon="5.54442">
        <ele>364</ele>
        <time>2020-10-21T08:44:52Z</time>
      </trkpt>
      <trkpt lat="43.39443" lon="5.54437">
        <ele>364</ele>
        <time>2020-10-21T08:44:58Z</time>
      </trkpt>
      <trkpt lat="43.39438" lon="5.54435">
        <ele>364</ele>
        <time>2020-10-21T08:45:04Z</time>
      </trkpt>
      <trkpt lat="43.39433" lon="5.54436">
        <ele>364</ele>
        <time>2020-10-21T08:45:10Z</time>
      </trkpt>
      <trkpt lat="43.39428" lon="5.54436">
        <ele>364</ele>
        <time>2020-10-21T08:45:14Z</time>
      </trkpt>
      <trkpt lat="43.39422" lon="5.54437">
        <ele>364</ele>
        <time>2020-10-21T08:45:20Z</time>
      </trkpt>
      <trkpt lat="43.39416" lon="5.54434">
        <ele>364</ele>
        <time>2020-10-21T08:45:26Z</time>
      </trkpt>
      <trkpt lat="43.39414" lon="5.54428">
        <ele>364</ele>
        <time>2020-10-21T08:45:32Z</time>
      </trkpt>
      <trkpt lat="43.39412" lon="5.5442">
        <ele>365</ele>
        <time>2020-10-21T08:45:46Z</time>
      </trkpt>
      <trkpt lat="43.3941" lon="5.54414">
        <ele>366</ele>
        <time>2020-10-21T08:45:52Z</time>
      </trkpt>
      <trkpt lat="43.39407" lon="5.54407">
        <ele>367</ele>
        <time>2020-10-21T08:46:00Z</time>
      </trkpt>
      <trkpt lat="43.39404" lon="5.54403">
        <ele>367</ele>
        <time>2020-10-21T08:46:06Z</time>
      </trkpt>
      <trkpt lat="43.39402" lon="5.54396">
        <ele>368</ele>
        <time>2020-10-21T08:46:12Z</time>
      </trkpt>
      <trkpt lat="43.39399" lon="5.54391">
        <ele>368</ele>
        <time>2020-10-21T08:46:18Z</time>
      </trkpt>
      <trkpt lat="43.39395" lon="5.54386">
        <ele>369</ele>
        <time>2020-10-21T08:46:24Z</time>
      </trkpt>
      <trkpt lat="43.39392" lon="5.54381">
        <ele>369</ele>
        <time>2020-10-21T08:46:30Z</time>
      </trkpt>
      <trkpt lat="43.39389" lon="5.54375">
        <ele>369</ele>
        <time>2020-10-21T08:46:38Z</time>
      </trkpt>
      <trkpt lat="43.39385" lon="5.54371">
        <ele>369</ele>
        <time>2020-10-21T08:46:44Z</time>
      </trkpt>
      <trkpt lat="43.3938" lon="5.54366">
        <ele>370</ele>
        <time>2020-10-21T08:46:52Z</time>
      </trkpt>
      <trkpt lat="43.39376" lon="5.54361">
        <ele>370</ele>
        <time>2020-10-21T08:47:00Z</time>
      </trkpt>
      <trkpt lat="43.39372" lon="5.54355">
        <ele>370</ele>
        <time>2020-10-21T08:47:06Z</time>
      </trkpt>
      <trkpt lat="43.39369" lon="5.54349">
        <ele>371</ele>
        <time>2020-10-21T08:47:12Z</time>
      </trkpt>
      <trkpt lat="43.39366" lon="5.54341">
        <ele>371</ele>
        <time>2020-10-21T08:47:18Z</time>
      </trkpt>
      <trkpt lat="43.39363" lon="5.54335">
        <ele>372</ele>
        <time>2020-10-21T08:47:24Z</time>
      </trkpt>
      <trkpt lat="43.39359" lon="5.54331">
        <ele>376</ele>
        <time>2020-10-21T08:47:32Z</time>
      </trkpt>
      <trkpt lat="43.39355" lon="5.54328">
        <ele>376</ele>
        <time>2020-10-21T08:47:38Z</time>
      </trkpt>
      <trkpt lat="43.39351" lon="5.54323">
        <ele>376</ele>
        <time>2020-10-21T08:47:44Z</time>
      </trkpt>
      <trkpt lat="43.39348" lon="5.54318">
        <ele>376</ele>
        <time>2020-10-21T08:47:52Z</time>
      </trkpt>
      <trkpt lat="43.39346" lon="5.5431">
        <ele>376</ele>
        <time>2020-10-21T08:48:00Z</time>
      </trkpt>
      <trkpt lat="43.39344" lon="5.54303">
        <ele>377</ele>
        <time>2020-10-21T08:48:06Z</time>
      </trkpt>
      <trkpt lat="43.39341" lon="5.54297">
        <ele>377</ele>
        <time>2020-10-21T08:48:12Z</time>
      </trkpt>
      <trkpt lat="43.39337" lon="5.54292">
        <ele>377</ele>
        <time>2020-10-21T08:48:18Z</time>
      </trkpt>
      <trkpt lat="43.39334" lon="5.54288">
        <ele>378</ele>
        <time>2020-10-21T08:48:24Z</time>
      </trkpt>
      <trkpt lat="43.3933" lon="5.54282">
        <ele>384</ele>
        <time>2020-10-21T08:48:32Z</time>
      </trkpt>
      <trkpt lat="43.39327" lon="5.54277">
        <ele>384</ele>
        <time>2020-10-21T08:48:40Z</time>
      </trkpt>
      <trkpt lat="43.39324" lon="5.5427">
        <ele>384</ele>
        <time>2020-10-21T08:48:46Z</time>
      </trkpt>
      <trkpt lat="43.39322" lon="5.54263">
        <ele>384</ele>
        <time>2020-10-21T08:48:52Z</time>
      </trkpt>
      <trkpt lat="43.39319" lon="5.54257">
        <ele>384</ele>
        <time>2020-10-21T08:48:58Z</time>
      </trkpt>
      <trkpt lat="43.39316" lon="5.54251">
        <ele>384</ele>
        <time>2020-10-21T08:49:04Z</time>
      </trkpt>
      <trkpt lat="43.39313" lon="5.54243">
        <ele>389</ele>
        <time>2020-10-21T08:49:10Z</time>
      </trkpt>
      <trkpt lat="43.3931" lon="5.54237">
        <ele>390</ele>
        <time>2020-10-21T08:49:16Z</time>
      </trkpt>
      <trkpt lat="43.39305" lon="5.54233">
        <ele>391</ele>
        <time>2020-10-21T08:49:22Z</time>
      </trkpt>
      <trkpt lat="43.39301" lon="5.5423">
        <ele>392</ele>
        <time>2020-10-21T08:49:34Z</time>
      </trkpt>
      <trkpt lat="43.39297" lon="5.54227">
        <ele>393</ele>
        <time>2020-10-21T08:49:42Z</time>
      </trkpt>
      <trkpt lat="43.39293" lon="5.54224">
        <ele>393</ele>
        <time>2020-10-21T08:50:04Z</time>
      </trkpt>
      <trkpt lat="43.39288" lon="5.5422">
        <ele>394</ele>
        <time>2020-10-21T08:50:14Z</time>
      </trkpt>
      <trkpt lat="43.39282" lon="5.54221">
        <ele>394</ele>
        <time>2020-10-21T08:50:22Z</time>
      </trkpt>
      <trkpt lat="43.39277" lon="5.54218">
        <ele>394</ele>
        <time>2020-10-21T08:50:30Z</time>
      </trkpt>
      <trkpt lat="43.39273" lon="5.54214">
        <ele>395</ele>
        <time>2020-10-21T08:50:38Z</time>
      </trkpt>
      <trkpt lat="43.39276" lon="5.54207">
        <ele>395</ele>
        <time>2020-10-21T08:50:50Z</time>
      </trkpt>
      <trkpt lat="43.39279" lon="5.54202">
        <ele>396</ele>
        <time>2020-10-21T08:50:58Z</time>
      </trkpt>
      <trkpt lat="43.3928" lon="5.54193">
        <ele>396</ele>
        <time>2020-10-21T08:51:08Z</time>
      </trkpt>
      <trkpt lat="43.39282" lon="5.54187">
        <ele>397</ele>
        <time>2020-10-21T08:51:14Z</time>
      </trkpt>
      <trkpt lat="43.39281" lon="5.5418">
        <ele>397</ele>
        <time>2020-10-21T08:51:22Z</time>
      </trkpt>
      <trkpt lat="43.39278" lon="5.54176">
        <ele>398</ele>
        <time>2020-10-21T08:51:36Z</time>
      </trkpt>
      <trkpt lat="43.39274" lon="5.54171">
        <ele>399</ele>
        <time>2020-10-21T08:51:44Z</time>
      </trkpt>
      <trkpt lat="43.39272" lon="5.54165">
        <ele>406</ele>
        <time>2020-10-21T08:51:50Z</time>
      </trkpt>
      <trkpt lat="43.3927" lon="5.54157">
        <ele>406</ele>
        <time>2020-10-21T08:51:58Z</time>
      </trkpt>
      <trkpt lat="43.39271" lon="5.54151">
        <ele>406</ele>
        <time>2020-10-21T08:52:06Z</time>
      </trkpt>
      <trkpt lat="43.39269" lon="5.54145">
        <ele>406</ele>
        <time>2020-10-21T08:52:14Z</time>
      </trkpt>
      <trkpt lat="43.39266" lon="5.54138">
        <ele>407</ele>
        <time>2020-10-21T08:52:26Z</time>
      </trkpt>
      <trkpt lat="43.39263" lon="5.54134">
        <ele>407</ele>
        <time>2020-10-21T08:52:34Z</time>
      </trkpt>
      <trkpt lat="43.39262" lon="5.54127">
        <ele>408</ele>
        <time>2020-10-21T08:52:46Z</time>
      </trkpt>
      <trkpt lat="43.39261" lon="5.5412">
        <ele>408</ele>
        <time>2020-10-21T08:53:00Z</time>
      </trkpt>
      <trkpt lat="43.39257" lon="5.54114">
        <ele>409</ele>
        <time>2020-10-21T08:53:08Z</time>
      </trkpt>
      <trkpt lat="43.39256" lon="5.54107">
        <ele>410</ele>
        <time>2020-10-21T08:53:18Z</time>
      </trkpt>
      <trkpt lat="43.39253" lon="5.54101">
        <ele>412</ele>
        <time>2020-10-21T08:53:26Z</time>
      </trkpt>
      <trkpt lat="43.39253" lon="5.54095">
        <ele>413</ele>
        <time>2020-10-21T08:53:32Z</time>
      </trkpt>
      <trkpt lat="43.39255" lon="5.54089">
        <ele>415</ele>
        <time>2020-10-21T08:53:38Z</time>
      </trkpt>
      <trkpt lat="43.39254" lon="5.54083">
        <ele>418</ele>
        <time>2020-10-21T08:53:44Z</time>
      </trkpt>
      <trkpt lat="43.39252" lon="5.54077">
        <ele>418</ele>
        <time>2020-10-21T08:53:52Z</time>
      </trkpt>
      <trkpt lat="43.39252" lon="5.5407">
        <ele>418</ele>
        <time>2020-10-21T08:54:02Z</time>
      </trkpt>
      <trkpt lat="43.39247" lon="5.5407">
        <ele>422</ele>
        <time>2020-10-21T08:54:10Z</time>
      </trkpt>
      <trkpt lat="43.39242" lon="5.54069">
        <ele>423</ele>
        <time>2020-10-21T08:54:26Z</time>
      </trkpt>
      <trkpt lat="43.39237" lon="5.54069">
        <ele>423</ele>
        <time>2020-10-21T08:57:14Z</time>
      </trkpt>
      <trkpt lat="43.39233" lon="5.54065">
        <ele>424</ele>
        <time>2020-10-21T08:57:20Z</time>
      </trkpt>
      <trkpt lat="43.39229" lon="5.54062">
        <ele>425</ele>
        <time>2020-10-21T08:57:26Z</time>
      </trkpt>
      <trkpt lat="43.39225" lon="5.54058">
        <ele>426</ele>
        <time>2020-10-21T08:57:32Z</time>
      </trkpt>
      <trkpt lat="43.39221" lon="5.54054">
        <ele>427</ele>
        <time>2020-10-21T08:57:38Z</time>
      </trkpt>
      <trkpt lat="43.39216" lon="5.54051">
        <ele>427</ele>
        <time>2020-10-21T08:57:44Z</time>
      </trkpt>
      <trkpt lat="43.39211" lon="5.54048">
        <ele>428</ele>
        <time>2020-10-21T08:57:50Z</time>
      </trkpt>
      <trkpt lat="43.39207" lon="5.54044">
        <ele>428</ele>
        <time>2020-10-21T08:57:56Z</time>
      </trkpt>
      <trkpt lat="43.39201" lon="5.54043">
        <ele>429</ele>
        <time>2020-10-21T08:58:02Z</time>
      </trkpt>
      <trkpt lat="43.39195" lon="5.54046">
        <ele>428</ele>
        <time>2020-10-21T08:58:08Z</time>
      </trkpt>
      <trkpt lat="43.3919" lon="5.54049">
        <ele>428</ele>
        <time>2020-10-21T08:58:14Z</time>
      </trkpt>
      <trkpt lat="43.39185" lon="5.54052">
        <ele>428</ele>
        <time>2020-10-21T08:58:20Z</time>
      </trkpt>
      <trkpt lat="43.3918" lon="5.54053">
        <ele>428</ele>
        <time>2020-10-21T08:58:26Z</time>
      </trkpt>
      <trkpt lat="43.39173" lon="5.54054">
        <ele>428</ele>
        <time>2020-10-21T08:58:32Z</time>
      </trkpt>
      <trkpt lat="43.39168" lon="5.54054">
        <ele>428</ele>
        <time>2020-10-21T08:58:36Z</time>
      </trkpt>
      <trkpt lat="43.39163" lon="5.54054">
        <ele>434</ele>
        <time>2020-10-21T08:58:40Z</time>
      </trkpt>
      <trkpt lat="43.39158" lon="5.54059">
        <ele>433</ele>
        <time>2020-10-21T08:58:46Z</time>
      </trkpt>
      <trkpt lat="43.39155" lon="5.54064">
        <ele>433</ele>
        <time>2020-10-21T08:58:50Z</time>
      </trkpt>
      <trkpt lat="43.39151" lon="5.54071">
        <ele>432</ele>
        <time>2020-10-21T08:58:56Z</time>
      </trkpt>
      <trkpt lat="43.39148" lon="5.54076">
        <ele>432</ele>
        <time>2020-10-21T08:59:00Z</time>
      </trkpt>
      <trkpt lat="43.39144" lon="5.5408">
        <ele>432</ele>
        <time>2020-10-21T08:59:04Z</time>
      </trkpt>
      <trkpt lat="43.3914" lon="5.54084">
        <ele>425</ele>
        <time>2020-10-21T08:59:08Z</time>
      </trkpt>
      <trkpt lat="43.39135" lon="5.54087">
        <ele>425</ele>
        <time>2020-10-21T08:59:14Z</time>
      </trkpt>
      <trkpt lat="43.3913" lon="5.54088">
        <ele>425</ele>
        <time>2020-10-21T08:59:20Z</time>
      </trkpt>
      <trkpt lat="43.39125" lon="5.54088">
        <ele>426</ele>
        <time>2020-10-21T08:59:26Z</time>
      </trkpt>
      <trkpt lat="43.3912" lon="5.54088">
        <ele>426</ele>
        <time>2020-10-21T08:59:30Z</time>
      </trkpt>
      <trkpt lat="43.39115" lon="5.5409">
        <ele>426</ele>
        <time>2020-10-21T08:59:36Z</time>
      </trkpt>
      <trkpt lat="43.39108" lon="5.54091">
        <ele>427</ele>
        <time>2020-10-21T08:59:42Z</time>
      </trkpt>
      <trkpt lat="43.39102" lon="5.54092">
        <ele>428</ele>
        <time>2020-10-21T08:59:46Z</time>
      </trkpt>
      <trkpt lat="43.39098" lon="5.54094">
        <ele>428</ele>
        <time>2020-10-21T08:59:50Z</time>
      </trkpt>
      <trkpt lat="43.39093" lon="5.54096">
        <ele>428</ele>
        <time>2020-10-21T08:59:54Z</time>
      </trkpt>
      <trkpt lat="43.39089" lon="5.54099">
        <ele>428</ele>
        <time>2020-10-21T08:59:58Z</time>
      </trkpt>
      <trkpt lat="43.39083" lon="5.54101">
        <ele>434</ele>
        <time>2020-10-21T09:00:04Z</time>
      </trkpt>
      <trkpt lat="43.39079" lon="5.54102">
        <ele>434</ele>
        <time>2020-10-21T09:00:10Z</time>
      </trkpt>
      <trkpt lat="43.39074" lon="5.54101">
        <ele>434</ele>
        <time>2020-10-21T09:00:16Z</time>
      </trkpt>
      <trkpt lat="43.39069" lon="5.541">
        <ele>435</ele>
        <time>2020-10-21T09:00:22Z</time>
      </trkpt>
      <trkpt lat="43.39063" lon="5.54099">
        <ele>435</ele>
        <time>2020-10-21T09:00:30Z</time>
      </trkpt>
      <trkpt lat="43.39057" lon="5.541">
        <ele>436</ele>
        <time>2020-10-21T09:00:38Z</time>
      </trkpt>
      <trkpt lat="43.39052" lon="5.54101">
        <ele>436</ele>
        <time>2020-10-21T09:01:00Z</time>
      </trkpt>
      <trkpt lat="43.39047" lon="5.54102">
        <ele>437</ele>
        <time>2020-10-21T09:01:10Z</time>
      </trkpt>
      <trkpt lat="43.39043" lon="5.541">
        <ele>438</ele>
        <time>2020-10-21T09:01:20Z</time>
      </trkpt>
      <trkpt lat="43.39038" lon="5.541">
        <ele>438</ele>
        <time>2020-10-21T09:01:30Z</time>
      </trkpt>
      <trkpt lat="43.39033" lon="5.541">
        <ele>439</ele>
        <time>2020-10-21T09:01:36Z</time>
      </trkpt>
      <trkpt lat="43.39028" lon="5.54101">
        <ele>439</ele>
        <time>2020-10-21T09:01:46Z</time>
      </trkpt>
      <trkpt lat="43.39023" lon="5.54103">
        <ele>440</ele>
        <time>2020-10-21T09:01:54Z</time>
      </trkpt>
      <trkpt lat="43.39017" lon="5.54103">
        <ele>441</ele>
        <time>2020-10-21T09:02:02Z</time>
      </trkpt>
      <trkpt lat="43.39013" lon="5.54104">
        <ele>441</ele>
        <time>2020-10-21T09:02:10Z</time>
      </trkpt>
      <trkpt lat="43.39007" lon="5.54103">
        <ele>442</ele>
        <time>2020-10-21T09:02:18Z</time>
      </trkpt>
      <trkpt lat="43.39003" lon="5.54103">
        <ele>442</ele>
        <time>2020-10-21T09:02:26Z</time>
      </trkpt>
      <trkpt lat="43.38998" lon="5.54104">
        <ele>447</ele>
        <time>2020-10-21T09:02:34Z</time>
      </trkpt>
      <trkpt lat="43.38993" lon="5.54104">
        <ele>447</ele>
        <time>2020-10-21T09:02:42Z</time>
      </trkpt>
      <trkpt lat="43.38988" lon="5.54103">
        <ele>448</ele>
        <time>2020-10-21T09:02:50Z</time>
      </trkpt>
      <trkpt lat="43.38983" lon="5.54103">
        <ele>448</ele>
        <time>2020-10-21T09:03:00Z</time>
      </trkpt>
      <trkpt lat="43.38978" lon="5.54102">
        <ele>448</ele>
        <time>2020-10-21T09:03:14Z</time>
      </trkpt>
      <trkpt lat="43.38973" lon="5.54102">
        <ele>448</ele>
        <time>2020-10-21T09:03:24Z</time>
      </trkpt>
      <trkpt lat="43.38967" lon="5.541">
        <ele>448</ele>
        <time>2020-10-21T09:03:36Z</time>
      </trkpt>
      <trkpt lat="43.38963" lon="5.54097">
        <ele>449</ele>
        <time>2020-10-21T09:03:48Z</time>
      </trkpt>
      <trkpt lat="43.38959" lon="5.54095">
        <ele>449</ele>
        <time>2020-10-21T09:03:58Z</time>
      </trkpt>
      <trkpt lat="43.38954" lon="5.54091">
        <ele>450</ele>
        <time>2020-10-21T09:04:08Z</time>
      </trkpt>
      <trkpt lat="43.38949" lon="5.54088">
        <ele>451</ele>
        <time>2020-10-21T09:04:18Z</time>
      </trkpt>
      <trkpt lat="43.38947" lon="5.54083">
        <ele>462</ele>
        <time>2020-10-21T09:04:34Z</time>
      </trkpt>
      <trkpt lat="43.38946" lon="5.54076">
        <ele>463</ele>
        <time>2020-10-21T09:04:44Z</time>
      </trkpt>
      <trkpt lat="43.38944" lon="5.5407">
        <ele>464</ele>
        <time>2020-10-21T09:04:54Z</time>
      </trkpt>
      <trkpt lat="43.38944" lon="5.54063">
        <ele>464</ele>
        <time>2020-10-21T09:05:04Z</time>
      </trkpt>
      <trkpt lat="43.38941" lon="5.54058">
        <ele>465</ele>
        <time>2020-10-21T09:05:54Z</time>
      </trkpt>
      <trkpt lat="43.3894" lon="5.54052">
        <ele>466</ele>
        <time>2020-10-21T09:06:02Z</time>
      </trkpt>
      <trkpt lat="43.38939" lon="5.54044">
        <ele>467</ele>
        <time>2020-10-21T09:06:10Z</time>
      </trkpt>
      <trkpt lat="43.38937" lon="5.54038">
        <ele>469</ele>
        <time>2020-10-21T09:06:18Z</time>
      </trkpt>
      <trkpt lat="43.38935" lon="5.54032">
        <ele>470</ele>
        <time>2020-10-21T09:06:28Z</time>
      </trkpt>
      <trkpt lat="43.38933" lon="5.54025">
        <ele>472</ele>
        <time>2020-10-21T09:06:36Z</time>
      </trkpt>
      <trkpt lat="43.38929" lon="5.5402">
        <ele>474</ele>
        <time>2020-10-21T09:06:46Z</time>
      </trkpt>
      <trkpt lat="43.38925" lon="5.54016">
        <ele>476</ele>
        <time>2020-10-21T09:06:54Z</time>
      </trkpt>
      <trkpt lat="43.38921" lon="5.54012">
        <ele>479</ele>
        <time>2020-10-21T09:07:06Z</time>
      </trkpt>
      <trkpt lat="43.38917" lon="5.54008">
        <ele>482</ele>
        <time>2020-10-21T09:07:14Z</time>
      </trkpt>
      <trkpt lat="43.38913" lon="5.54007">
        <ele>484</ele>
        <time>2020-10-21T09:07:24Z</time>
      </trkpt>
      <trkpt lat="43.38908" lon="5.54004">
        <ele>483</ele>
        <time>2020-10-21T09:07:36Z</time>
      </trkpt>
      <trkpt lat="43.38904" lon="5.54">
        <ele>482</ele>
        <time>2020-10-21T09:07:46Z</time>
      </trkpt>
      <trkpt lat="43.389" lon="5.53997">
        <ele>493</ele>
        <time>2020-10-21T09:08:00Z</time>
      </trkpt>
      <trkpt lat="43.38895" lon="5.53994">
        <ele>494</ele>
        <time>2020-10-21T09:08:10Z</time>
      </trkpt>
      <trkpt lat="43.38891" lon="5.53991">
        <ele>495</ele>
        <time>2020-10-21T09:08:20Z</time>
      </trkpt>
      <trkpt lat="43.38887" lon="5.53987">
        <ele>496</ele>
        <time>2020-10-21T09:08:36Z</time>
      </trkpt>
      <trkpt lat="43.38883" lon="5.53983">
        <ele>496</ele>
        <time>2020-10-21T09:08:46Z</time>
      </trkpt>
      <trkpt lat="43.3888" lon="5.53978">
        <ele>497</ele>
        <time>2020-10-21T09:08:54Z</time>
      </trkpt>
      <trkpt lat="43.38879" lon="5.53971">
        <ele>498</ele>
        <time>2020-10-21T09:09:04Z</time>
      </trkpt>
      <trkpt lat="43.38877" lon="5.53965">
        <ele>499</ele>
        <time>2020-10-21T09:09:12Z</time>
      </trkpt>
      <trkpt lat="43.38875" lon="5.53958">
        <ele>500</ele>
        <time>2020-10-21T09:09:20Z</time>
      </trkpt>
      <trkpt lat="43.38874" lon="5.53952">
        <ele>501</ele>
        <time>2020-10-21T09:09:30Z</time>
      </trkpt>
      <trkpt lat="43.38873" lon="5.53943">
        <ele>502</ele>
        <time>2020-10-21T09:09:38Z</time>
      </trkpt>
      <trkpt lat="43.38871" lon="5.53937">
        <ele>503</ele>
        <time>2020-10-21T09:09:48Z</time>
      </trkpt>
      <trkpt lat="43.38869" lon="5.5393">
        <ele>504</ele>
        <time>2020-10-21T09:10:00Z</time>
      </trkpt>
      <trkpt lat="43.38868" lon="5.53923">
        <ele>504</ele>
        <time>2020-10-21T09:10:08Z</time>
      </trkpt>
      <trkpt lat="43.38866" lon="5.53917">
        <ele>505</ele>
        <time>2020-10-21T09:10:18Z</time>
      </trkpt>
      <trkpt lat="43.38864" lon="5.53911">
        <ele>521</ele>
        <time>2020-10-21T09:10:28Z</time>
      </trkpt>
      <trkpt lat="43.38862" lon="5.53904">
        <ele>522</ele>
        <time>2020-10-21T09:10:40Z</time>
      </trkpt>
      <trkpt lat="43.3886" lon="5.53898">
        <ele>522</ele>
        <time>2020-10-21T09:10:46Z</time>
      </trkpt>
      <trkpt lat="43.38857" lon="5.53894">
        <ele>523</ele>
        <time>2020-10-21T09:10:54Z</time>
      </trkpt>
      <trkpt lat="43.38853" lon="5.53888">
        <ele>523</ele>
        <time>2020-10-21T09:11:04Z</time>
      </trkpt>
      <trkpt lat="43.3885" lon="5.53883">
        <ele>524</ele>
        <time>2020-10-21T09:11:16Z</time>
      </trkpt>
      <trkpt lat="43.38847" lon="5.53877">
        <ele>525</ele>
        <time>2020-10-21T09:11:24Z</time>
      </trkpt>
      <trkpt lat="43.38843" lon="5.53872">
        <ele>526</ele>
        <time>2020-10-21T09:11:34Z</time>
      </trkpt>
      <trkpt lat="43.38839" lon="5.53866">
        <ele>527</ele>
        <time>2020-10-21T09:11:42Z</time>
      </trkpt>
      <trkpt lat="43.38835" lon="5.53861">
        <ele>528</ele>
        <time>2020-10-21T09:11:50Z</time>
      </trkpt>
      <trkpt lat="43.38832" lon="5.53856">
        <ele>530</ele>
        <time>2020-10-21T09:11:58Z</time>
      </trkpt>
      <trkpt lat="43.38829" lon="5.53851">
        <ele>530</ele>
        <time>2020-10-21T09:12:06Z</time>
      </trkpt>
      <trkpt lat="43.38825" lon="5.53847">
        <ele>531</ele>
        <time>2020-10-21T09:12:14Z</time>
      </trkpt>
      <trkpt lat="43.38821" lon="5.53844">
        <ele>531</ele>
        <time>2020-10-21T09:12:24Z</time>
      </trkpt>
      <trkpt lat="43.38817" lon="5.5384">
        <ele>531</ele>
        <time>2020-10-21T09:12:34Z</time>
      </trkpt>
      <trkpt lat="43.38814" lon="5.53834">
        <ele>531</ele>
        <time>2020-10-21T09:12:56Z</time>
      </trkpt>
      <trkpt lat="43.3881" lon="5.5383">
        <ele>533</ele>
        <time>2020-10-21T09:13:06Z</time>
      </trkpt>
      <trkpt lat="43.38808" lon="5.53824">
        <ele>533</ele>
        <time>2020-10-21T09:13:18Z</time>
      </trkpt>
      <trkpt lat="43.38811" lon="5.53818">
        <ele>533</ele>
        <time>2020-10-21T09:13:26Z</time>
      </trkpt>
      <trkpt lat="43.3881" lon="5.53812">
        <ele>533</ele>
        <time>2020-10-21T09:13:32Z</time>
      </trkpt>
      <trkpt lat="43.38811" lon="5.53806">
        <ele>533</ele>
        <time>2020-10-21T09:13:40Z</time>
      </trkpt>
      <trkpt lat="43.38815" lon="5.53802">
        <ele>533</ele>
        <time>2020-10-21T09:13:48Z</time>
      </trkpt>
      <trkpt lat="43.38819" lon="5.53796">
        <ele>532</ele>
        <time>2020-10-21T09:14:12Z</time>
      </trkpt>
      <trkpt lat="43.38823" lon="5.53792">
        <ele>532</ele>
        <time>2020-10-21T09:14:20Z</time>
      </trkpt>
      <trkpt lat="43.38828" lon="5.53787">
        <ele>533</ele>
        <time>2020-10-21T09:14:36Z</time>
      </trkpt>
      <trkpt lat="43.38832" lon="5.53784">
        <ele>533</ele>
        <time>2020-10-21T09:14:56Z</time>
      </trkpt>
      <trkpt lat="43.38837" lon="5.53778">
        <ele>541</ele>
        <time>2020-10-21T09:19:36Z</time>
      </trkpt>
      <trkpt lat="43.3884" lon="5.53772">
        <ele>540</ele>
        <time>2020-10-21T09:19:44Z</time>
      </trkpt>
      <trkpt lat="43.38844" lon="5.53766">
        <ele>540</ele>
        <time>2020-10-21T09:19:52Z</time>
      </trkpt>
      <trkpt lat="43.38847" lon="5.5376">
        <ele>540</ele>
        <time>2020-10-21T09:19:58Z</time>
      </trkpt>
      <trkpt lat="43.38851" lon="5.53754">
        <ele>540</ele>
        <time>2020-10-21T09:20:06Z</time>
      </trkpt>
      <trkpt lat="43.38855" lon="5.53748">
        <ele>539</ele>
        <time>2020-10-21T09:20:14Z</time>
      </trkpt>
      <trkpt lat="43.38859" lon="5.53743">
        <ele>540</ele>
        <time>2020-10-21T09:20:22Z</time>
      </trkpt>
      <trkpt lat="43.38863" lon="5.53738">
        <ele>540</ele>
        <time>2020-10-21T09:20:28Z</time>
      </trkpt>
      <trkpt lat="43.38866" lon="5.53733">
        <ele>541</ele>
        <time>2020-10-21T09:20:34Z</time>
      </trkpt>
      <trkpt lat="43.38869" lon="5.53728">
        <ele>541</ele>
        <time>2020-10-21T09:20:40Z</time>
      </trkpt>
      <trkpt lat="43.38873" lon="5.53723">
        <ele>541</ele>
        <time>2020-10-21T09:20:46Z</time>
      </trkpt>
      <trkpt lat="43.38876" lon="5.53717">
        <ele>542</ele>
        <time>2020-10-21T09:20:52Z</time>
      </trkpt>
      <trkpt lat="43.3888" lon="5.53713">
        <ele>542</ele>
        <time>2020-10-21T09:20:58Z</time>
      </trkpt>
      <trkpt lat="43.38883" lon="5.53707">
        <ele>542</ele>
        <time>2020-10-21T09:21:04Z</time>
      </trkpt>
      <trkpt lat="43.38887" lon="5.53703">
        <ele>542</ele>
        <time>2020-10-21T09:21:10Z</time>
      </trkpt>
      <trkpt lat="43.38892" lon="5.53699">
        <ele>543</ele>
        <time>2020-10-21T09:21:16Z</time>
      </trkpt>
      <trkpt lat="43.38896" lon="5.53693">
        <ele>543</ele>
        <time>2020-10-21T09:21:22Z</time>
      </trkpt>
      <trkpt lat="43.38901" lon="5.53687">
        <ele>543</ele>
        <time>2020-10-21T09:21:28Z</time>
      </trkpt>
      <trkpt lat="43.38905" lon="5.53683">
        <ele>544</ele>
        <time>2020-10-21T09:21:34Z</time>
      </trkpt>
      <trkpt lat="43.38908" lon="5.53679">
        <ele>544</ele>
        <time>2020-10-21T09:21:40Z</time>
      </trkpt>
      <trkpt lat="43.38913" lon="5.53675">
        <ele>545</ele>
        <time>2020-10-21T09:21:46Z</time>
      </trkpt>
      <trkpt lat="43.38917" lon="5.53671">
        <ele>550</ele>
        <time>2020-10-21T09:21:52Z</time>
      </trkpt>
      <trkpt lat="43.38921" lon="5.53667">
        <ele>551</ele>
        <time>2020-10-21T09:21:58Z</time>
      </trkpt>
      <trkpt lat="43.38926" lon="5.53662">
        <ele>551</ele>
        <time>2020-10-21T09:22:04Z</time>
      </trkpt>
      <trkpt lat="43.3893" lon="5.53659">
        <ele>553</ele>
        <time>2020-10-21T09:22:10Z</time>
      </trkpt>
      <trkpt lat="43.38935" lon="5.53655">
        <ele>554</ele>
        <time>2020-10-21T09:22:16Z</time>
      </trkpt>
      <trkpt lat="43.38939" lon="5.53652">
        <ele>556</ele>
        <time>2020-10-21T09:22:22Z</time>
      </trkpt>
      <trkpt lat="43.38944" lon="5.53649">
        <ele>557</ele>
        <time>2020-10-21T09:22:28Z</time>
      </trkpt>
      <trkpt lat="43.3895" lon="5.53646">
        <ele>558</ele>
        <time>2020-10-21T09:22:34Z</time>
      </trkpt>
      <trkpt lat="43.38955" lon="5.53643">
        <ele>560</ele>
        <time>2020-10-21T09:22:40Z</time>
      </trkpt>
      <trkpt lat="43.38959" lon="5.5364">
        <ele>561</ele>
        <time>2020-10-21T09:22:46Z</time>
      </trkpt>
      <trkpt lat="43.38965" lon="5.53636">
        <ele>562</ele>
        <time>2020-10-21T09:22:52Z</time>
      </trkpt>
      <trkpt lat="43.38968" lon="5.53632">
        <ele>562</ele>
        <time>2020-10-21T09:22:58Z</time>
      </trkpt>
      <trkpt lat="43.38971" lon="5.53626">
        <ele>563</ele>
        <time>2020-10-21T09:23:04Z</time>
      </trkpt>
      <trkpt lat="43.38973" lon="5.53619">
        <ele>563</ele>
        <time>2020-10-21T09:23:10Z</time>
      </trkpt>
      <trkpt lat="43.38972" lon="5.53612">
        <ele>563</ele>
        <time>2020-10-21T09:23:16Z</time>
      </trkpt>
      <trkpt lat="43.38972" lon="5.53605">
        <ele>563</ele>
        <time>2020-10-21T09:23:22Z</time>
      </trkpt>
      <trkpt lat="43.38971" lon="5.53599">
        <ele>563</ele>
        <time>2020-10-21T09:23:28Z</time>
      </trkpt>
      <trkpt lat="43.3897" lon="5.53591">
        <ele>563</ele>
        <time>2020-10-21T09:23:34Z</time>
      </trkpt>
      <trkpt lat="43.38969" lon="5.53583">
        <ele>563</ele>
        <time>2020-10-21T09:23:40Z</time>
      </trkpt>
      <trkpt lat="43.38969" lon="5.53575">
        <ele>563</ele>
        <time>2020-10-21T09:23:46Z</time>
      </trkpt>
      <trkpt lat="43.38968" lon="5.53568">
        <ele>563</ele>
        <time>2020-10-21T09:23:52Z</time>
      </trkpt>
      <trkpt lat="43.38967" lon="5.53561">
        <ele>562</ele>
        <time>2020-10-21T09:23:58Z</time>
      </trkpt>
      <trkpt lat="43.38967" lon="5.53554">
        <ele>562</ele>
        <time>2020-10-21T09:24:04Z</time>
      </trkpt>
      <trkpt lat="43.38966" lon="5.53546">
        <ele>562</ele>
        <time>2020-10-21T09:24:10Z</time>
      </trkpt>
      <trkpt lat="43.38965" lon="5.53538">
        <ele>562</ele>
        <time>2020-10-21T09:24:16Z</time>
      </trkpt>
      <trkpt lat="43.38963" lon="5.53531">
        <ele>562</ele>
        <time>2020-10-21T09:24:22Z</time>
      </trkpt>
      <trkpt lat="43.38961" lon="5.53523">
        <ele>562</ele>
        <time>2020-10-21T09:24:28Z</time>
      </trkpt>
      <trkpt lat="43.3896" lon="5.53517">
        <ele>562</ele>
        <time>2020-10-21T09:24:34Z</time>
      </trkpt>
      <trkpt lat="43.38957" lon="5.5351">
        <ele>562</ele>
        <time>2020-10-21T09:24:40Z</time>
      </trkpt>
      <trkpt lat="43.38955" lon="5.53504">
        <ele>561</ele>
        <time>2020-10-21T09:24:46Z</time>
      </trkpt>
      <trkpt lat="43.38954" lon="5.53498">
        <ele>567</ele>
        <time>2020-10-21T09:24:52Z</time>
      </trkpt>
      <trkpt lat="43.38952" lon="5.53492">
        <ele>566</ele>
        <time>2020-10-21T09:24:58Z</time>
      </trkpt>
      <trkpt lat="43.38949" lon="5.53485">
        <ele>566</ele>
        <time>2020-10-21T09:25:04Z</time>
      </trkpt>
      <trkpt lat="43.38947" lon="5.53479">
        <ele>566</ele>
        <time>2020-10-21T09:25:10Z</time>
      </trkpt>
      <trkpt lat="43.38945" lon="5.53473">
        <ele>566</ele>
        <time>2020-10-21T09:25:16Z</time>
      </trkpt>
      <trkpt lat="43.38944" lon="5.53466">
        <ele>566</ele>
        <time>2020-10-21T09:25:22Z</time>
      </trkpt>
      <trkpt lat="43.38942" lon="5.53458">
        <ele>567</ele>
        <time>2020-10-21T09:25:28Z</time>
      </trkpt>
      <trkpt lat="43.38939" lon="5.53452">
        <ele>567</ele>
        <time>2020-10-21T09:25:34Z</time>
      </trkpt>
      <trkpt lat="43.38937" lon="5.53445">
        <ele>567</ele>
        <time>2020-10-21T09:25:40Z</time>
      </trkpt>
      <trkpt lat="43.38935" lon="5.53438">
        <ele>567</ele>
        <time>2020-10-21T09:25:46Z</time>
      </trkpt>
      <trkpt lat="43.38932" lon="5.53432">
        <ele>566</ele>
        <time>2020-10-21T09:25:52Z</time>
      </trkpt>
      <trkpt lat="43.38929" lon="5.53424">
        <ele>565</ele>
        <time>2020-10-21T09:26:00Z</time>
      </trkpt>
      <trkpt lat="43.38926" lon="5.53418">
        <ele>564</ele>
        <time>2020-10-21T09:26:06Z</time>
      </trkpt>
      <trkpt lat="43.38922" lon="5.53412">
        <ele>565</ele>
        <time>2020-10-21T09:26:12Z</time>
      </trkpt>
      <trkpt lat="43.38918" lon="5.53406">
        <ele>566</ele>
        <time>2020-10-21T09:26:18Z</time>
      </trkpt>
      <trkpt lat="43.38914" lon="5.53399">
        <ele>556</ele>
        <time>2020-10-21T09:26:24Z</time>
      </trkpt>
      <trkpt lat="43.38911" lon="5.53393">
        <ele>555</ele>
        <time>2020-10-21T09:26:30Z</time>
      </trkpt>
      <trkpt lat="43.38907" lon="5.53386">
        <ele>555</ele>
        <time>2020-10-21T09:26:36Z</time>
      </trkpt>
      <trkpt lat="43.38904" lon="5.5338">
        <ele>554</ele>
        <time>2020-10-21T09:26:42Z</time>
      </trkpt>
      <trkpt lat="43.38901" lon="5.53374">
        <ele>554</ele>
        <time>2020-10-21T09:26:48Z</time>
      </trkpt>
      <trkpt lat="43.38898" lon="5.53368">
        <ele>555</ele>
        <time>2020-10-21T09:26:54Z</time>
      </trkpt>
      <trkpt lat="43.38895" lon="5.53361">
        <ele>555</ele>
        <time>2020-10-21T09:27:00Z</time>
      </trkpt>
      <trkpt lat="43.38893" lon="5.53353">
        <ele>555</ele>
        <time>2020-10-21T09:27:06Z</time>
      </trkpt>
      <trkpt lat="43.38892" lon="5.53346">
        <ele>556</ele>
        <time>2020-10-21T09:27:12Z</time>
      </trkpt>
      <trkpt lat="43.38893" lon="5.53339">
        <ele>557</ele>
        <time>2020-10-21T09:27:18Z</time>
      </trkpt>
      <trkpt lat="43.38894" lon="5.53331">
        <ele>560</ele>
        <time>2020-10-21T09:27:24Z</time>
      </trkpt>
      <trkpt lat="43.38896" lon="5.53324">
        <ele>560</ele>
        <time>2020-10-21T09:27:30Z</time>
      </trkpt>
      <trkpt lat="43.38897" lon="5.53316">
        <ele>560</ele>
        <time>2020-10-21T09:27:36Z</time>
      </trkpt>
      <trkpt lat="43.38898" lon="5.53307">
        <ele>559</ele>
        <time>2020-10-21T09:27:42Z</time>
      </trkpt>
      <trkpt lat="43.38899" lon="5.53299">
        <ele>558</ele>
        <time>2020-10-21T09:27:48Z</time>
      </trkpt>
      <trkpt lat="43.389" lon="5.53291">
        <ele>557</ele>
        <time>2020-10-21T09:27:54Z</time>
      </trkpt>
      <trkpt lat="43.38901" lon="5.53283">
        <ele>557</ele>
        <time>2020-10-21T09:28:00Z</time>
      </trkpt>
      <trkpt lat="43.38899" lon="5.53276">
        <ele>557</ele>
        <time>2020-10-21T09:28:06Z</time>
      </trkpt>
      <trkpt lat="43.38896" lon="5.5327">
        <ele>556</ele>
        <time>2020-10-21T09:28:12Z</time>
      </trkpt>
      <trkpt lat="43.38892" lon="5.53265">
        <ele>556</ele>
        <time>2020-10-21T09:28:18Z</time>
      </trkpt>
      <trkpt lat="43.38889" lon="5.53259">
        <ele>556</ele>
        <time>2020-10-21T09:28:24Z</time>
      </trkpt>
      <trkpt lat="43.38884" lon="5.53253">
        <ele>556</ele>
        <time>2020-10-21T09:28:30Z</time>
      </trkpt>
      <trkpt lat="43.3888" lon="5.53246">
        <ele>552</ele>
        <time>2020-10-21T09:28:36Z</time>
      </trkpt>
      <trkpt lat="43.38877" lon="5.53242">
        <ele>551</ele>
        <time>2020-10-21T09:28:40Z</time>
      </trkpt>
      <trkpt lat="43.38873" lon="5.53236">
        <ele>551</ele>
        <time>2020-10-21T09:28:46Z</time>
      </trkpt>
      <trkpt lat="43.38869" lon="5.5323">
        <ele>551</ele>
        <time>2020-10-21T09:28:52Z</time>
      </trkpt>
      <trkpt lat="43.38867" lon="5.53224">
        <ele>551</ele>
        <time>2020-10-21T09:29:10Z</time>
      </trkpt>
      <trkpt lat="43.38864" lon="5.53219">
        <ele>551</ele>
        <time>2020-10-21T09:29:18Z</time>
      </trkpt>
      <trkpt lat="43.38862" lon="5.53213">
        <ele>550</ele>
        <time>2020-10-21T09:29:24Z</time>
      </trkpt>
      <trkpt lat="43.3886" lon="5.53206">
        <ele>550</ele>
        <time>2020-10-21T09:29:32Z</time>
      </trkpt>
      <trkpt lat="43.38857" lon="5.532">
        <ele>550</ele>
        <time>2020-10-21T09:29:40Z</time>
      </trkpt>
      <trkpt lat="43.38854" lon="5.53195">
        <ele>551</ele>
        <time>2020-10-21T09:29:48Z</time>
      </trkpt>
      <trkpt lat="43.3885" lon="5.53189">
        <ele>551</ele>
        <time>2020-10-21T09:29:56Z</time>
      </trkpt>
      <trkpt lat="43.38847" lon="5.53184">
        <ele>552</ele>
        <time>2020-10-21T09:30:02Z</time>
      </trkpt>
      <trkpt lat="43.38845" lon="5.53177">
        <ele>552</ele>
        <time>2020-10-21T09:30:08Z</time>
      </trkpt>
      <trkpt lat="43.38842" lon="5.53171">
        <ele>554</ele>
        <time>2020-10-21T09:30:16Z</time>
      </trkpt>
      <trkpt lat="43.38839" lon="5.53165">
        <ele>552</ele>
        <time>2020-10-21T09:30:22Z</time>
      </trkpt>
      <trkpt lat="43.38836" lon="5.53159">
        <ele>550</ele>
        <time>2020-10-21T09:30:28Z</time>
      </trkpt>
      <trkpt lat="43.38834" lon="5.53153">
        <ele>547</ele>
        <time>2020-10-21T09:30:34Z</time>
      </trkpt>
      <trkpt lat="43.38831" lon="5.53148">
        <ele>551</ele>
        <time>2020-10-21T09:30:42Z</time>
      </trkpt>
      <trkpt lat="43.38828" lon="5.53142">
        <ele>550</ele>
        <time>2020-10-21T09:30:48Z</time>
      </trkpt>
      <trkpt lat="43.38825" lon="5.53136">
        <ele>549</ele>
        <time>2020-10-21T09:30:56Z</time>
      </trkpt>
      <trkpt lat="43.38821" lon="5.53129">
        <ele>548</ele>
        <time>2020-10-21T09:31:04Z</time>
      </trkpt>
      <trkpt lat="43.38819" lon="5.53123">
        <ele>547</ele>
        <time>2020-10-21T09:31:12Z</time>
      </trkpt>
      <trkpt lat="43.38818" lon="5.53117">
        <ele>546</ele>
        <time>2020-10-21T09:31:16Z</time>
      </trkpt>
      <trkpt lat="43.38816" lon="5.5311">
        <ele>545</ele>
        <time>2020-10-21T09:31:28Z</time>
      </trkpt>
      <trkpt lat="43.38812" lon="5.53104">
        <ele>545</ele>
        <time>2020-10-21T09:31:34Z</time>
      </trkpt>
      <trkpt lat="43.3881" lon="5.53098">
        <ele>545</ele>
        <time>2020-10-21T09:31:38Z</time>
      </trkpt>
      <trkpt lat="43.38808" lon="5.53092">
        <ele>544</ele>
        <time>2020-10-21T09:31:44Z</time>
      </trkpt>
      <trkpt lat="43.38805" lon="5.53088">
        <ele>544</ele>
        <time>2020-10-21T09:31:50Z</time>
      </trkpt>
      <trkpt lat="43.38804" lon="5.5308">
        <ele>535</ele>
        <time>2020-10-21T09:31:56Z</time>
      </trkpt>
      <trkpt lat="43.38802" lon="5.53074">
        <ele>535</ele>
        <time>2020-10-21T09:32:00Z</time>
      </trkpt>
      <trkpt lat="43.38799" lon="5.53067">
        <ele>535</ele>
        <time>2020-10-21T09:32:06Z</time>
      </trkpt>
      <trkpt lat="43.38797" lon="5.5306">
        <ele>535</ele>
        <time>2020-10-21T09:32:12Z</time>
      </trkpt>
      <trkpt lat="43.38794" lon="5.53053">
        <ele>534</ele>
        <time>2020-10-21T09:32:18Z</time>
      </trkpt>
      <trkpt lat="43.38792" lon="5.53047">
        <ele>534</ele>
        <time>2020-10-21T09:32:24Z</time>
      </trkpt>
      <trkpt lat="43.3879" lon="5.53041">
        <ele>534</ele>
        <time>2020-10-21T09:32:30Z</time>
      </trkpt>
      <trkpt lat="43.38789" lon="5.53033">
        <ele>533</ele>
        <time>2020-10-21T09:32:38Z</time>
      </trkpt>
      <trkpt lat="43.38787" lon="5.53027">
        <ele>533</ele>
        <time>2020-10-21T09:32:44Z</time>
      </trkpt>
      <trkpt lat="43.38786" lon="5.53019">
        <ele>532</ele>
        <time>2020-10-21T09:32:50Z</time>
      </trkpt>
      <trkpt lat="43.38785" lon="5.53013">
        <ele>532</ele>
        <time>2020-10-21T09:32:56Z</time>
      </trkpt>
      <trkpt lat="43.38782" lon="5.53006">
        <ele>533</ele>
        <time>2020-10-21T09:33:02Z</time>
      </trkpt>
      <trkpt lat="43.38781" lon="5.52998">
        <ele>523</ele>
        <time>2020-10-21T09:33:08Z</time>
      </trkpt>
      <trkpt lat="43.38777" lon="5.52992">
        <ele>523</ele>
        <time>2020-10-21T09:33:16Z</time>
      </trkpt>
      <trkpt lat="43.38774" lon="5.52986">
        <ele>524</ele>
        <time>2020-10-21T09:33:22Z</time>
      </trkpt>
      <trkpt lat="43.38773" lon="5.52979">
        <ele>523</ele>
        <time>2020-10-21T09:33:28Z</time>
      </trkpt>
      <trkpt lat="43.3877" lon="5.52972">
        <ele>522</ele>
        <time>2020-10-21T09:33:34Z</time>
      </trkpt>
      <trkpt lat="43.38769" lon="5.52964">
        <ele>521</ele>
        <time>2020-10-21T09:33:40Z</time>
      </trkpt>
      <trkpt lat="43.38766" lon="5.52959">
        <ele>521</ele>
        <time>2020-10-21T09:33:46Z</time>
      </trkpt>
      <trkpt lat="43.38764" lon="5.52951">
        <ele>520</ele>
        <time>2020-10-21T09:33:54Z</time>
      </trkpt>
      <trkpt lat="43.38762" lon="5.52945">
        <ele>520</ele>
        <time>2020-10-21T09:34:00Z</time>
      </trkpt>
      <trkpt lat="43.3876" lon="5.52938">
        <ele>520</ele>
        <time>2020-10-21T09:34:06Z</time>
      </trkpt>
      <trkpt lat="43.38759" lon="5.52931">
        <ele>521</ele>
        <time>2020-10-21T09:34:18Z</time>
      </trkpt>
      <trkpt lat="43.38757" lon="5.52925">
        <ele>521</ele>
        <time>2020-10-21T09:34:24Z</time>
      </trkpt>
      <trkpt lat="43.38755" lon="5.52918">
        <ele>522</ele>
        <time>2020-10-21T09:34:30Z</time>
      </trkpt>
      <trkpt lat="43.38753" lon="5.5291">
        <ele>519</ele>
        <time>2020-10-21T09:34:36Z</time>
      </trkpt>
      <trkpt lat="43.38752" lon="5.52903">
        <ele>516</ele>
        <time>2020-10-21T09:34:42Z</time>
      </trkpt>
      <trkpt lat="43.3875" lon="5.52897">
        <ele>516</ele>
        <time>2020-10-21T09:34:48Z</time>
      </trkpt>
      <trkpt lat="43.38748" lon="5.5289">
        <ele>514</ele>
        <time>2020-10-21T09:34:54Z</time>
      </trkpt>
      <trkpt lat="43.38748" lon="5.52883">
        <ele>513</ele>
        <time>2020-10-21T09:35:00Z</time>
      </trkpt>
      <trkpt lat="43.38747" lon="5.52876">
        <ele>512</ele>
        <time>2020-10-21T09:35:06Z</time>
      </trkpt>
      <trkpt lat="43.38747" lon="5.52869">
        <ele>512</ele>
        <time>2020-10-21T09:35:12Z</time>
      </trkpt>
      <trkpt lat="43.38746" lon="5.52861">
        <ele>511</ele>
        <time>2020-10-21T09:35:18Z</time>
      </trkpt>
      <trkpt lat="43.38745" lon="5.52855">
        <ele>511</ele>
        <time>2020-10-21T09:35:24Z</time>
      </trkpt>
      <trkpt lat="43.38745" lon="5.52847">
        <ele>512</ele>
        <time>2020-10-21T09:35:32Z</time>
      </trkpt>
      <trkpt lat="43.38744" lon="5.52838">
        <ele>513</ele>
        <time>2020-10-21T09:35:38Z</time>
      </trkpt>
      <trkpt lat="43.38744" lon="5.5283">
        <ele>512</ele>
        <time>2020-10-21T09:35:44Z</time>
      </trkpt>
      <trkpt lat="43.38745" lon="5.52822">
        <ele>510</ele>
        <time>2020-10-21T09:35:50Z</time>
      </trkpt>
      <trkpt lat="43.38745" lon="5.52813">
        <ele>508</ele>
        <time>2020-10-21T09:35:56Z</time>
      </trkpt>
      <trkpt lat="43.38745" lon="5.52804">
        <ele>506</ele>
        <time>2020-10-21T09:36:02Z</time>
      </trkpt>
      <trkpt lat="43.38747" lon="5.52797">
        <ele>506</ele>
        <time>2020-10-21T09:36:08Z</time>
      </trkpt>
      <trkpt lat="43.38748" lon="5.52788">
        <ele>506</ele>
        <time>2020-10-21T09:36:14Z</time>
      </trkpt>
      <trkpt lat="43.3875" lon="5.52782">
        <ele>506</ele>
        <time>2020-10-21T09:36:20Z</time>
      </trkpt>
      <trkpt lat="43.38751" lon="5.52774">
        <ele>504</ele>
        <time>2020-10-21T09:36:26Z</time>
      </trkpt>
      <trkpt lat="43.38753" lon="5.52768">
        <ele>505</ele>
        <time>2020-10-21T09:36:32Z</time>
      </trkpt>
      <trkpt lat="43.38756" lon="5.52761">
        <ele>506</ele>
        <time>2020-10-21T09:36:38Z</time>
      </trkpt>
      <trkpt lat="43.38759" lon="5.52755">
        <ele>507</ele>
        <time>2020-10-21T09:36:44Z</time>
      </trkpt>
      <trkpt lat="43.3876" lon="5.52748">
        <ele>507</ele>
        <time>2020-10-21T09:36:50Z</time>
      </trkpt>
      <trkpt lat="43.38762" lon="5.52742">
        <ele>506</ele>
        <time>2020-10-21T09:36:56Z</time>
      </trkpt>
      <trkpt lat="43.38764" lon="5.52735">
        <ele>504</ele>
        <time>2020-10-21T09:37:02Z</time>
      </trkpt>
      <trkpt lat="43.38766" lon="5.52729">
        <ele>503</ele>
        <time>2020-10-21T09:37:08Z</time>
      </trkpt>
      <trkpt lat="43.38768" lon="5.52724">
        <ele>502</ele>
        <time>2020-10-21T09:37:14Z</time>
      </trkpt>
      <trkpt lat="43.3877" lon="5.52716">
        <ele>502</ele>
        <time>2020-10-21T09:37:24Z</time>
      </trkpt>
      <trkpt lat="43.38772" lon="5.52709">
        <ele>501</ele>
        <time>2020-10-21T09:37:30Z</time>
      </trkpt>
      <trkpt lat="43.38775" lon="5.52702">
        <ele>501</ele>
        <time>2020-10-21T09:37:36Z</time>
      </trkpt>
      <trkpt lat="43.38777" lon="5.52694">
        <ele>501</ele>
        <time>2020-10-21T09:37:42Z</time>
      </trkpt>
      <trkpt lat="43.38779" lon="5.52688">
        <ele>501</ele>
        <time>2020-10-21T09:37:48Z</time>
      </trkpt>
      <trkpt lat="43.38782" lon="5.52682">
        <ele>501</ele>
        <time>2020-10-21T09:37:54Z</time>
      </trkpt>
      <trkpt lat="43.38784" lon="5.52676">
        <ele>501</ele>
        <time>2020-10-21T09:38:00Z</time>
      </trkpt>
      <trkpt lat="43.38785" lon="5.5267">
        <ele>501</ele>
        <time>2020-10-21T09:38:06Z</time>
      </trkpt>
      <trkpt lat="43.38787" lon="5.52663">
        <ele>501</ele>
        <time>2020-10-21T09:38:12Z</time>
      </trkpt>
      <trkpt lat="43.38789" lon="5.52657">
        <ele>500</ele>
        <time>2020-10-21T09:38:18Z</time>
      </trkpt>
      <trkpt lat="43.38792" lon="5.52651">
        <ele>499</ele>
        <time>2020-10-21T09:38:24Z</time>
      </trkpt>
      <trkpt lat="43.38794" lon="5.52644">
        <ele>499</ele>
        <time>2020-10-21T09:38:30Z</time>
      </trkpt>
      <trkpt lat="43.38797" lon="5.52637">
        <ele>498</ele>
        <time>2020-10-21T09:38:36Z</time>
      </trkpt>
      <trkpt lat="43.388" lon="5.52631">
        <ele>498</ele>
        <time>2020-10-21T09:38:42Z</time>
      </trkpt>
      <trkpt lat="43.38802" lon="5.52623">
        <ele>497</ele>
        <time>2020-10-21T09:38:48Z</time>
      </trkpt>
      <trkpt lat="43.38803" lon="5.52614">
        <ele>497</ele>
        <time>2020-10-21T09:38:54Z</time>
      </trkpt>
      <trkpt lat="43.38802" lon="5.52606">
        <ele>497</ele>
        <time>2020-10-21T09:39:00Z</time>
      </trkpt>
      <trkpt lat="43.38799" lon="5.52599">
        <ele>497</ele>
        <time>2020-10-21T09:39:06Z</time>
      </trkpt>
      <trkpt lat="43.38794" lon="5.52593">
        <ele>497</ele>
        <time>2020-10-21T09:39:12Z</time>
      </trkpt>
      <trkpt lat="43.3879" lon="5.52587">
        <ele>498</ele>
        <time>2020-10-21T09:39:18Z</time>
      </trkpt>
      <trkpt lat="43.38786" lon="5.5258">
        <ele>493</ele>
        <time>2020-10-21T09:39:24Z</time>
      </trkpt>
      <trkpt lat="43.38782" lon="5.52574">
        <ele>494</ele>
        <time>2020-10-21T09:39:30Z</time>
      </trkpt>
      <trkpt lat="43.38779" lon="5.52567">
        <ele>494</ele>
        <time>2020-10-21T09:39:36Z</time>
      </trkpt>
      <trkpt lat="43.38776" lon="5.52561">
        <ele>494</ele>
        <time>2020-10-21T09:39:42Z</time>
      </trkpt>
      <trkpt lat="43.38771" lon="5.52555">
        <ele>494</ele>
        <time>2020-10-21T09:39:48Z</time>
      </trkpt>
      <trkpt lat="43.38767" lon="5.5255">
        <ele>494</ele>
        <time>2020-10-21T09:39:54Z</time>
      </trkpt>
      <trkpt lat="43.38763" lon="5.52545">
        <ele>493</ele>
        <time>2020-10-21T09:40:00Z</time>
      </trkpt>
      <trkpt lat="43.38761" lon="5.52539">
        <ele>493</ele>
        <time>2020-10-21T09:40:08Z</time>
      </trkpt>
      <trkpt lat="43.38759" lon="5.52532">
        <ele>493</ele>
        <time>2020-10-21T09:40:16Z</time>
      </trkpt>
      <trkpt lat="43.38756" lon="5.52525">
        <ele>493</ele>
        <time>2020-10-21T09:40:54Z</time>
      </trkpt>
      <trkpt lat="43.38754" lon="5.52519">
        <ele>493</ele>
        <time>2020-10-21T09:41:00Z</time>
      </trkpt>
      <trkpt lat="43.38753" lon="5.52513">
        <ele>493</ele>
        <time>2020-10-21T09:41:06Z</time>
      </trkpt>
      <trkpt lat="43.3875" lon="5.52505">
        <ele>494</ele>
        <time>2020-10-21T09:41:12Z</time>
      </trkpt>
      <trkpt lat="43.38748" lon="5.52497">
        <ele>492</ele>
        <time>2020-10-21T09:41:18Z</time>
      </trkpt>
      <trkpt lat="43.38745" lon="5.52491">
        <ele>489</ele>
        <time>2020-10-21T09:41:24Z</time>
      </trkpt>
      <trkpt lat="43.38743" lon="5.52484">
        <ele>486</ele>
        <time>2020-10-21T09:41:30Z</time>
      </trkpt>
      <trkpt lat="43.38741" lon="5.52477">
        <ele>484</ele>
        <time>2020-10-21T09:41:36Z</time>
      </trkpt>
      <trkpt lat="43.38741" lon="5.52469">
        <ele>483</ele>
        <time>2020-10-21T09:41:42Z</time>
      </trkpt>
      <trkpt lat="43.38741" lon="5.52461">
        <ele>482</ele>
        <time>2020-10-21T09:41:48Z</time>
      </trkpt>
      <trkpt lat="43.3874" lon="5.52453">
        <ele>481</ele>
        <time>2020-10-21T09:41:54Z</time>
      </trkpt>
      <trkpt lat="43.38739" lon="5.52446">
        <ele>481</ele>
        <time>2020-10-21T09:42:00Z</time>
      </trkpt>
      <trkpt lat="43.38738" lon="5.52438">
        <ele>481</ele>
        <time>2020-10-21T09:42:06Z</time>
      </trkpt>
      <trkpt lat="43.38737" lon="5.52432">
        <ele>481</ele>
        <time>2020-10-21T09:42:10Z</time>
      </trkpt>
      <trkpt lat="43.38736" lon="5.52424">
        <ele>481</ele>
        <time>2020-10-21T09:42:16Z</time>
      </trkpt>
      <trkpt lat="43.38733" lon="5.52416">
        <ele>478</ele>
        <time>2020-10-21T09:42:22Z</time>
      </trkpt>
      <trkpt lat="43.3873" lon="5.52408">
        <ele>477</ele>
        <time>2020-10-21T09:42:28Z</time>
      </trkpt>
      <trkpt lat="43.38727" lon="5.524">
        <ele>476</ele>
        <time>2020-10-21T09:42:34Z</time>
      </trkpt>
      <trkpt lat="43.38724" lon="5.52393">
        <ele>475</ele>
        <time>2020-10-21T09:42:40Z</time>
      </trkpt>
      <trkpt lat="43.38721" lon="5.52386">
        <ele>474</ele>
        <time>2020-10-21T09:42:46Z</time>
      </trkpt>
      <trkpt lat="43.38717" lon="5.52379">
        <ele>473</ele>
        <time>2020-10-21T09:42:52Z</time>
      </trkpt>
      <trkpt lat="43.38714" lon="5.52372">
        <ele>473</ele>
        <time>2020-10-21T09:42:58Z</time>
      </trkpt>
      <trkpt lat="43.38711" lon="5.52365">
        <ele>473</ele>
        <time>2020-10-21T09:43:04Z</time>
      </trkpt>
      <trkpt lat="43.38706" lon="5.52359">
        <ele>473</ele>
        <time>2020-10-21T09:43:10Z</time>
      </trkpt>
      <trkpt lat="43.38702" lon="5.52353">
        <ele>473</ele>
        <time>2020-10-21T09:43:16Z</time>
      </trkpt>
      <trkpt lat="43.38697" lon="5.52347">
        <ele>474</ele>
        <time>2020-10-21T09:43:22Z</time>
      </trkpt>
      <trkpt lat="43.38692" lon="5.52341">
        <ele>475</ele>
        <time>2020-10-21T09:43:28Z</time>
      </trkpt>
      <trkpt lat="43.38688" lon="5.52336">
        <ele>476</ele>
        <time>2020-10-21T09:43:34Z</time>
      </trkpt>
      <trkpt lat="43.38684" lon="5.52329">
        <ele>475</ele>
        <time>2020-10-21T09:43:40Z</time>
      </trkpt>
      <trkpt lat="43.3868" lon="5.52322">
        <ele>475</ele>
        <time>2020-10-21T09:43:46Z</time>
      </trkpt>
      <trkpt lat="43.38677" lon="5.52315">
        <ele>474</ele>
        <time>2020-10-21T09:43:52Z</time>
      </trkpt>
      <trkpt lat="43.38674" lon="5.52308">
        <ele>474</ele>
        <time>2020-10-21T09:43:58Z</time>
      </trkpt>
      <trkpt lat="43.3867" lon="5.52303">
        <ele>474</ele>
        <time>2020-10-21T09:44:04Z</time>
      </trkpt>
      <trkpt lat="43.38665" lon="5.52297">
        <ele>475</ele>
        <time>2020-10-21T09:44:10Z</time>
      </trkpt>
      <trkpt lat="43.38661" lon="5.52295">
        <ele>475</ele>
        <time>2020-10-21T09:44:14Z</time>
      </trkpt>
      <trkpt lat="43.38655" lon="5.52291">
        <ele>475</ele>
        <time>2020-10-21T09:44:20Z</time>
      </trkpt>
      <trkpt lat="43.3865" lon="5.52286">
        <ele>475</ele>
        <time>2020-10-21T09:44:26Z</time>
      </trkpt>
      <trkpt lat="43.38645" lon="5.52281">
        <ele>475</ele>
        <time>2020-10-21T09:44:32Z</time>
      </trkpt>
      <trkpt lat="43.38641" lon="5.52277">
        <ele>474</ele>
        <time>2020-10-21T09:44:38Z</time>
      </trkpt>
      <trkpt lat="43.38636" lon="5.52271">
        <ele>474</ele>
        <time>2020-10-21T09:44:44Z</time>
      </trkpt>
      <trkpt lat="43.38632" lon="5.52267">
        <ele>474</ele>
        <time>2020-10-21T09:44:50Z</time>
      </trkpt>
      <trkpt lat="43.38627" lon="5.52263">
        <ele>474</ele>
        <time>2020-10-21T09:44:56Z</time>
      </trkpt>
      <trkpt lat="43.38622" lon="5.52258">
        <ele>473</ele>
        <time>2020-10-21T09:45:02Z</time>
      </trkpt>
      <trkpt lat="43.38619" lon="5.52254">
        <ele>473</ele>
        <time>2020-10-21T09:45:06Z</time>
      </trkpt>
      <trkpt lat="43.38615" lon="5.52249">
        <ele>477</ele>
        <time>2020-10-21T09:45:12Z</time>
      </trkpt>
      <trkpt lat="43.3861" lon="5.52245">
        <ele>476</ele>
        <time>2020-10-21T09:45:18Z</time>
      </trkpt>
      <trkpt lat="43.38604" lon="5.5224">
        <ele>476</ele>
        <time>2020-10-21T09:45:24Z</time>
      </trkpt>
      <trkpt lat="43.386" lon="5.52236">
        <ele>476</ele>
        <time>2020-10-21T09:45:30Z</time>
      </trkpt>
      <trkpt lat="43.38594" lon="5.52232">
        <ele>476</ele>
        <time>2020-10-21T09:45:36Z</time>
      </trkpt>
      <trkpt lat="43.38589" lon="5.52228">
        <ele>476</ele>
        <time>2020-10-21T09:45:42Z</time>
      </trkpt>
      <trkpt lat="43.38582" lon="5.52225">
        <ele>469</ele>
        <time>2020-10-21T09:45:48Z</time>
      </trkpt>
      <trkpt lat="43.38576" lon="5.52221">
        <ele>469</ele>
        <time>2020-10-21T09:45:54Z</time>
      </trkpt>
      <trkpt lat="43.38571" lon="5.52218">
        <ele>469</ele>
        <time>2020-10-21T09:46:00Z</time>
      </trkpt>
      <trkpt lat="43.38566" lon="5.52214">
        <ele>468</ele>
        <time>2020-10-21T09:46:06Z</time>
      </trkpt>
      <trkpt lat="43.3856" lon="5.52209">
        <ele>468</ele>
        <time>2020-10-21T09:46:12Z</time>
      </trkpt>
      <trkpt lat="43.38555" lon="5.52205">
        <ele>468</ele>
        <time>2020-10-21T09:46:18Z</time>
      </trkpt>
      <trkpt lat="43.3855" lon="5.52201">
        <ele>467</ele>
        <time>2020-10-21T09:46:24Z</time>
      </trkpt>
      <trkpt lat="43.38545" lon="5.52196">
        <ele>467</ele>
        <time>2020-10-21T09:46:30Z</time>
      </trkpt>
      <trkpt lat="43.3854" lon="5.52191">
        <ele>466</ele>
        <time>2020-10-21T09:46:36Z</time>
      </trkpt>
      <trkpt lat="43.38535" lon="5.52185">
        <ele>466</ele>
        <time>2020-10-21T09:46:42Z</time>
      </trkpt>
      <trkpt lat="43.38532" lon="5.52178">
        <ele>466</ele>
        <time>2020-10-21T09:46:48Z</time>
      </trkpt>
      <trkpt lat="43.3853" lon="5.52171">
        <ele>465</ele>
        <time>2020-10-21T09:46:54Z</time>
      </trkpt>
      <trkpt lat="43.38528" lon="5.52164">
        <ele>466</ele>
        <time>2020-10-21T09:47:00Z</time>
      </trkpt>
      <trkpt lat="43.38527" lon="5.52157">
        <ele>466</ele>
        <time>2020-10-21T09:47:06Z</time>
      </trkpt>
      <trkpt lat="43.38527" lon="5.52149">
        <ele>466</ele>
        <time>2020-10-21T09:47:12Z</time>
      </trkpt>
      <trkpt lat="43.38528" lon="5.52141">
        <ele>466</ele>
        <time>2020-10-21T09:47:18Z</time>
      </trkpt>
      <trkpt lat="43.38528" lon="5.52133">
        <ele>466</ele>
        <time>2020-10-21T09:47:24Z</time>
      </trkpt>
      <trkpt lat="43.38526" lon="5.52124">
        <ele>465</ele>
        <time>2020-10-21T09:47:30Z</time>
      </trkpt>
      <trkpt lat="43.38526" lon="5.52115">
        <ele>465</ele>
        <time>2020-10-21T09:47:36Z</time>
      </trkpt>
      <trkpt lat="43.38526" lon="5.52107">
        <ele>464</ele>
        <time>2020-10-21T09:47:42Z</time>
      </trkpt>
      <trkpt lat="43.38525" lon="5.52098">
        <ele>463</ele>
        <time>2020-10-21T09:47:48Z</time>
      </trkpt>
      <trkpt lat="43.38524" lon="5.5209">
        <ele>463</ele>
        <time>2020-10-21T09:47:54Z</time>
      </trkpt>
      <trkpt lat="43.38523" lon="5.52081">
        <ele>455</ele>
        <time>2020-10-21T09:48:00Z</time>
      </trkpt>
      <trkpt lat="43.38524" lon="5.52075">
        <ele>454</ele>
        <time>2020-10-21T09:48:06Z</time>
      </trkpt>
      <trkpt lat="43.38526" lon="5.52067">
        <ele>454</ele>
        <time>2020-10-21T09:48:12Z</time>
      </trkpt>
      <trkpt lat="43.38529" lon="5.52059">
        <ele>453</ele>
        <time>2020-10-21T09:48:18Z</time>
      </trkpt>
      <trkpt lat="43.38531" lon="5.52052">
        <ele>452</ele>
        <time>2020-10-21T09:48:24Z</time>
      </trkpt>
      <trkpt lat="43.38535" lon="5.52046">
        <ele>452</ele>
        <time>2020-10-21T09:48:30Z</time>
      </trkpt>
      <trkpt lat="43.38539" lon="5.52043">
        <ele>451</ele>
        <time>2020-10-21T09:48:36Z</time>
      </trkpt>
      <trkpt lat="43.38545" lon="5.52042">
        <ele>451</ele>
        <time>2020-10-21T09:48:42Z</time>
      </trkpt>
      <trkpt lat="43.38551" lon="5.52045">
        <ele>452</ele>
        <time>2020-10-21T09:48:48Z</time>
      </trkpt>
      <trkpt lat="43.38556" lon="5.5205">
        <ele>453</ele>
        <time>2020-10-21T09:48:54Z</time>
      </trkpt>
      <trkpt lat="43.38561" lon="5.52055">
        <ele>454</ele>
        <time>2020-10-21T09:49:00Z</time>
      </trkpt>
      <trkpt lat="43.38566" lon="5.52061">
        <ele>455</ele>
        <time>2020-10-21T09:49:06Z</time>
      </trkpt>
      <trkpt lat="43.38571" lon="5.52066">
        <ele>456</ele>
        <time>2020-10-21T09:49:12Z</time>
      </trkpt>
      <trkpt lat="43.38575" lon="5.52069">
        <ele>458</ele>
        <time>2020-10-21T09:49:16Z</time>
      </trkpt>
      <trkpt lat="43.3858" lon="5.52074">
        <ele>460</ele>
        <time>2020-10-21T09:49:22Z</time>
      </trkpt>
      <trkpt lat="43.38586" lon="5.52077">
        <ele>459</ele>
        <time>2020-10-21T09:49:30Z</time>
      </trkpt>
      <trkpt lat="43.38592" lon="5.52081">
        <ele>458</ele>
        <time>2020-10-21T09:49:36Z</time>
      </trkpt>
      <trkpt lat="43.38597" lon="5.52083">
        <ele>455</ele>
        <time>2020-10-21T09:49:42Z</time>
      </trkpt>
      <trkpt lat="43.38603" lon="5.52086">
        <ele>464</ele>
        <time>2020-10-21T09:49:48Z</time>
      </trkpt>
      <trkpt lat="43.38608" lon="5.52087">
        <ele>464</ele>
        <time>2020-10-21T09:49:52Z</time>
      </trkpt>
      <trkpt lat="43.38612" lon="5.52092">
        <ele>464</ele>
        <time>2020-10-21T09:49:58Z</time>
      </trkpt>
      <trkpt lat="43.38617" lon="5.52094">
        <ele>464</ele>
        <time>2020-10-21T09:50:04Z</time>
      </trkpt>
      <trkpt lat="43.38621" lon="5.52097">
        <ele>464</ele>
        <time>2020-10-21T09:50:08Z</time>
      </trkpt>
      <trkpt lat="43.38627" lon="5.521">
        <ele>463</ele>
        <time>2020-10-21T09:50:14Z</time>
      </trkpt>
      <trkpt lat="43.38632" lon="5.52103">
        <ele>463</ele>
        <time>2020-10-21T09:50:20Z</time>
      </trkpt>
      <trkpt lat="43.38637" lon="5.52105">
        <ele>462</ele>
        <time>2020-10-21T09:50:26Z</time>
      </trkpt>
      <trkpt lat="43.38641" lon="5.52103">
        <ele>461</ele>
        <time>2020-10-21T09:50:32Z</time>
      </trkpt>
      <trkpt lat="43.38644" lon="5.52097">
        <ele>460</ele>
        <time>2020-10-21T09:50:38Z</time>
      </trkpt>
      <trkpt lat="43.38639" lon="5.52092">
        <ele>460</ele>
        <time>2020-10-21T09:50:44Z</time>
      </trkpt>
      <trkpt lat="43.38634" lon="5.5209">
        <ele>461</ele>
        <time>2020-10-21T09:50:50Z</time>
      </trkpt>
      <trkpt lat="43.3863" lon="5.52087">
        <ele>462</ele>
        <time>2020-10-21T09:50:56Z</time>
      </trkpt>
      <trkpt lat="43.38625" lon="5.52083">
        <ele>447</ele>
        <time>2020-10-21T09:51:02Z</time>
      </trkpt>
      <trkpt lat="43.38621" lon="5.52079">
        <ele>448</ele>
        <time>2020-10-21T09:51:08Z</time>
      </trkpt>
      <trkpt lat="43.38617" lon="5.52075">
        <ele>448</ele>
        <time>2020-10-21T09:51:12Z</time>
      </trkpt>
      <trkpt lat="43.38613" lon="5.52072">
        <ele>448</ele>
        <time>2020-10-21T09:51:16Z</time>
      </trkpt>
      <trkpt lat="43.38608" lon="5.52067">
        <ele>449</ele>
        <time>2020-10-21T09:51:22Z</time>
      </trkpt>
      <trkpt lat="43.38602" lon="5.52062">
        <ele>449</ele>
        <time>2020-10-21T09:51:28Z</time>
      </trkpt>
      <trkpt lat="43.38598" lon="5.52056">
        <ele>448</ele>
        <time>2020-10-21T09:51:34Z</time>
      </trkpt>
      <trkpt lat="43.38593" lon="5.52051">
        <ele>447</ele>
        <time>2020-10-21T09:51:40Z</time>
      </trkpt>
      <trkpt lat="43.38589" lon="5.52044">
        <ele>446</ele>
        <time>2020-10-21T09:51:46Z</time>
      </trkpt>
      <trkpt lat="43.38585" lon="5.52037">
        <ele>445</ele>
        <time>2020-10-21T09:51:52Z</time>
      </trkpt>
      <trkpt lat="43.38582" lon="5.52029">
        <ele>449</ele>
        <time>2020-10-21T09:51:58Z</time>
      </trkpt>
      <trkpt lat="43.3858" lon="5.52021">
        <ele>447</ele>
        <time>2020-10-21T09:52:04Z</time>
      </trkpt>
      <trkpt lat="43.38578" lon="5.52012">
        <ele>445</ele>
        <time>2020-10-21T09:52:10Z</time>
      </trkpt>
      <trkpt lat="43.38575" lon="5.52006">
        <ele>444</ele>
        <time>2020-10-21T09:52:16Z</time>
      </trkpt>
      <trkpt lat="43.38572" lon="5.51999">
        <ele>437</ele>
        <time>2020-10-21T09:52:22Z</time>
      </trkpt>
      <trkpt lat="43.38568" lon="5.51992">
        <ele>436</ele>
        <time>2020-10-21T09:52:28Z</time>
      </trkpt>
      <trkpt lat="43.38563" lon="5.51987">
        <ele>434</ele>
        <time>2020-10-21T09:52:34Z</time>
      </trkpt>
      <trkpt lat="43.38558" lon="5.51982">
        <ele>434</ele>
        <time>2020-10-21T09:52:40Z</time>
      </trkpt>
      <trkpt lat="43.38553" lon="5.5198">
        <ele>433</ele>
        <time>2020-10-21T09:52:46Z</time>
      </trkpt>
      <trkpt lat="43.38547" lon="5.51978">
        <ele>433</ele>
        <time>2020-10-21T09:52:52Z</time>
      </trkpt>
      <trkpt lat="43.38541" lon="5.51975">
        <ele>433</ele>
        <time>2020-10-21T09:52:58Z</time>
      </trkpt>
      <trkpt lat="43.38535" lon="5.51972">
        <ele>433</ele>
        <time>2020-10-21T09:53:04Z</time>
      </trkpt>
      <trkpt lat="43.3853" lon="5.51969">
        <ele>433</ele>
        <time>2020-10-21T09:53:10Z</time>
      </trkpt>
      <trkpt lat="43.38524" lon="5.51965">
        <ele>433</ele>
        <time>2020-10-21T09:53:16Z</time>
      </trkpt>
      <trkpt lat="43.3852" lon="5.51963">
        <ele>433</ele>
        <time>2020-10-21T09:53:20Z</time>
      </trkpt>
      <trkpt lat="43.38514" lon="5.51957">
        <ele>432</ele>
        <time>2020-10-21T09:53:26Z</time>
      </trkpt>
      <trkpt lat="43.3851" lon="5.51951">
        <ele>432</ele>
        <time>2020-10-21T09:53:32Z</time>
      </trkpt>
      <trkpt lat="43.38507" lon="5.51945">
        <ele>431</ele>
        <time>2020-10-21T09:53:38Z</time>
      </trkpt>
      <trkpt lat="43.38505" lon="5.51939">
        <ele>431</ele>
        <time>2020-10-21T09:53:42Z</time>
      </trkpt>
      <trkpt lat="43.38503" lon="5.51931">
        <ele>430</ele>
        <time>2020-10-21T09:53:48Z</time>
      </trkpt>
      <trkpt lat="43.385" lon="5.51923">
        <ele>429</ele>
        <time>2020-10-21T09:53:54Z</time>
      </trkpt>
      <trkpt lat="43.38499" lon="5.51915">
        <ele>428</ele>
        <time>2020-10-21T09:54:00Z</time>
      </trkpt>
      <trkpt lat="43.385" lon="5.51907">
        <ele>426</ele>
        <time>2020-10-21T09:54:06Z</time>
      </trkpt>
      <trkpt lat="43.385" lon="5.51898">
        <ele>422</ele>
        <time>2020-10-21T09:54:12Z</time>
      </trkpt>
      <trkpt lat="43.38501" lon="5.51889">
        <ele>420</ele>
        <time>2020-10-21T09:54:18Z</time>
      </trkpt>
      <trkpt lat="43.38502" lon="5.5188">
        <ele>419</ele>
        <time>2020-10-21T09:54:24Z</time>
      </trkpt>
      <trkpt lat="43.38502" lon="5.51871">
        <ele>418</ele>
        <time>2020-10-21T09:54:30Z</time>
      </trkpt>
      <trkpt lat="43.38502" lon="5.51862">
        <ele>418</ele>
        <time>2020-10-21T09:54:36Z</time>
      </trkpt>
      <trkpt lat="43.38503" lon="5.51853">
        <ele>419</ele>
        <time>2020-10-21T09:54:42Z</time>
      </trkpt>
      <trkpt lat="43.38503" lon="5.51845">
        <ele>420</ele>
        <time>2020-10-21T09:54:48Z</time>
      </trkpt>
      <trkpt lat="43.38503" lon="5.51836">
        <ele>422</ele>
        <time>2020-10-21T09:54:54Z</time>
      </trkpt>
      <trkpt lat="43.38502" lon="5.51827">
        <ele>419</ele>
        <time>2020-10-21T09:55:00Z</time>
      </trkpt>
      <trkpt lat="43.38503" lon="5.51819">
        <ele>416</ele>
        <time>2020-10-21T09:55:06Z</time>
      </trkpt>
      <trkpt lat="43.38503" lon="5.5181">
        <ele>413</ele>
        <time>2020-10-21T09:55:12Z</time>
      </trkpt>
      <trkpt lat="43.38502" lon="5.51803">
        <ele>412</ele>
        <time>2020-10-21T09:55:16Z</time>
      </trkpt>
      <trkpt lat="43.38501" lon="5.51797">
        <ele>411</ele>
        <time>2020-10-21T09:55:20Z</time>
      </trkpt>
      <trkpt lat="43.385" lon="5.5179">
        <ele>425</ele>
        <time>2020-10-21T09:55:26Z</time>
      </trkpt>
      <trkpt lat="43.38498" lon="5.51782">
        <ele>425</ele>
        <time>2020-10-21T09:55:32Z</time>
      </trkpt>
      <trkpt lat="43.38496" lon="5.51775">
        <ele>425</ele>
        <time>2020-10-21T09:55:38Z</time>
      </trkpt>
      <trkpt lat="43.38494" lon="5.51767">
        <ele>424</ele>
        <time>2020-10-21T09:55:44Z</time>
      </trkpt>
      <trkpt lat="43.38491" lon="5.51759">
        <ele>424</ele>
        <time>2020-10-21T09:55:50Z</time>
      </trkpt>
      <trkpt lat="43.38488" lon="5.51751">
        <ele>424</ele>
        <time>2020-10-21T09:55:56Z</time>
      </trkpt>
      <trkpt lat="43.38483" lon="5.51744">
        <ele>422</ele>
        <time>2020-10-21T09:56:02Z</time>
      </trkpt>
      <trkpt lat="43.3848" lon="5.51737">
        <ele>422</ele>
        <time>2020-10-21T09:56:08Z</time>
      </trkpt>
      <trkpt lat="43.38476" lon="5.5173">
        <ele>423</ele>
        <time>2020-10-21T09:56:14Z</time>
      </trkpt>
      <trkpt lat="43.38473" lon="5.51723">
        <ele>423</ele>
        <time>2020-10-21T09:56:20Z</time>
      </trkpt>
      <trkpt lat="43.38469" lon="5.51716">
        <ele>422</ele>
        <time>2020-10-21T09:56:26Z</time>
      </trkpt>
      <trkpt lat="43.38466" lon="5.51712">
        <ele>422</ele>
        <time>2020-10-21T09:56:30Z</time>
      </trkpt>
      <trkpt lat="43.38462" lon="5.51705">
        <ele>422</ele>
        <time>2020-10-21T09:56:36Z</time>
      </trkpt>
      <trkpt lat="43.38458" lon="5.51697">
        <ele>422</ele>
        <time>2020-10-21T09:56:42Z</time>
      </trkpt>
      <trkpt lat="43.38454" lon="5.5169">
        <ele>423</ele>
        <time>2020-10-21T09:56:48Z</time>
      </trkpt>
      <trkpt lat="43.38451" lon="5.51686">
        <ele>423</ele>
        <time>2020-10-21T09:56:52Z</time>
      </trkpt>
      <trkpt lat="43.38447" lon="5.51681">
        <ele>424</ele>
        <time>2020-10-21T09:56:56Z</time>
      </trkpt>
      <trkpt lat="43.38444" lon="5.51675">
        <ele>425</ele>
        <time>2020-10-21T09:57:00Z</time>
      </trkpt>
      <trkpt lat="43.38442" lon="5.5167">
        <ele>425</ele>
        <time>2020-10-21T09:57:04Z</time>
      </trkpt>
      <trkpt lat="43.38439" lon="5.51665">
        <ele>416</ele>
        <time>2020-10-21T09:57:08Z</time>
      </trkpt>
      <trkpt lat="43.38434" lon="5.51659">
        <ele>417</ele>
        <time>2020-10-21T09:57:14Z</time>
      </trkpt>
      <trkpt lat="43.3843" lon="5.51652">
        <ele>417</ele>
        <time>2020-10-21T09:57:20Z</time>
      </trkpt>
      <trkpt lat="43.38426" lon="5.51648">
        <ele>416</ele>
        <time>2020-10-21T09:57:24Z</time>
      </trkpt>
      <trkpt lat="43.38421" lon="5.51643">
        <ele>415</ele>
        <time>2020-10-21T09:57:30Z</time>
      </trkpt>
      <trkpt lat="43.38416" lon="5.5164">
        <ele>429</ele>
        <time>2020-10-21T09:57:36Z</time>
      </trkpt>
      <trkpt lat="43.38411" lon="5.51637">
        <ele>428</ele>
        <time>2020-10-21T09:57:40Z</time>
      </trkpt>
      <trkpt lat="43.38406" lon="5.51634">
        <ele>428</ele>
        <time>2020-10-21T09:57:46Z</time>
      </trkpt>
      <trkpt lat="43.38401" lon="5.51631">
        <ele>428</ele>
        <time>2020-10-21T09:57:52Z</time>
      </trkpt>
      <trkpt lat="43.38397" lon="5.51627">
        <ele>427</ele>
        <time>2020-10-21T09:57:56Z</time>
      </trkpt>
      <trkpt lat="43.38393" lon="5.51624">
        <ele>427</ele>
        <time>2020-10-21T09:58:00Z</time>
      </trkpt>
      <trkpt lat="43.38389" lon="5.5162">
        <ele>427</ele>
        <time>2020-10-21T09:58:04Z</time>
      </trkpt>
      <trkpt lat="43.38385" lon="5.51617">
        <ele>427</ele>
        <time>2020-10-21T09:58:08Z</time>
      </trkpt>
      <trkpt lat="43.38381" lon="5.51613">
        <ele>427</ele>
        <time>2020-10-21T09:58:12Z</time>
      </trkpt>
      <trkpt lat="43.38376" lon="5.51607">
        <ele>427</ele>
        <time>2020-10-21T09:58:18Z</time>
      </trkpt>
      <trkpt lat="43.38372" lon="5.51599">
        <ele>427</ele>
        <time>2020-10-21T09:58:24Z</time>
      </trkpt>
      <trkpt lat="43.38369" lon="5.51591">
        <ele>427</ele>
        <time>2020-10-21T09:58:30Z</time>
      </trkpt>
      <trkpt lat="43.38367" lon="5.51583">
        <ele>419</ele>
        <time>2020-10-21T09:58:36Z</time>
      </trkpt>
      <trkpt lat="43.38365" lon="5.51575">
        <ele>419</ele>
        <time>2020-10-21T09:58:42Z</time>
      </trkpt>
      <trkpt lat="43.38363" lon="5.51567">
        <ele>419</ele>
        <time>2020-10-21T09:58:48Z</time>
      </trkpt>
      <trkpt lat="43.38361" lon="5.51561">
        <ele>419</ele>
        <time>2020-10-21T09:58:52Z</time>
      </trkpt>
      <trkpt lat="43.3836" lon="5.51554">
        <ele>418</ele>
        <time>2020-10-21T09:58:56Z</time>
      </trkpt>
      <trkpt lat="43.38359" lon="5.51547">
        <ele>418</ele>
        <time>2020-10-21T09:59:00Z</time>
      </trkpt>
      <trkpt lat="43.38357" lon="5.51539">
        <ele>418</ele>
        <time>2020-10-21T09:59:06Z</time>
      </trkpt>
      <trkpt lat="43.38357" lon="5.51531">
        <ele>418</ele>
        <time>2020-10-21T09:59:12Z</time>
      </trkpt>
      <trkpt lat="43.38356" lon="5.51524">
        <ele>418</ele>
        <time>2020-10-21T09:59:16Z</time>
      </trkpt>
      <trkpt lat="43.38356" lon="5.51516">
        <ele>418</ele>
        <time>2020-10-21T09:59:22Z</time>
      </trkpt>
      <trkpt lat="43.38357" lon="5.51509">
        <ele>418</ele>
        <time>2020-10-21T09:59:26Z</time>
      </trkpt>
      <trkpt lat="43.38357" lon="5.51501">
        <ele>418</ele>
        <time>2020-10-21T09:59:32Z</time>
      </trkpt>
      <trkpt lat="43.38357" lon="5.51494">
        <ele>413</ele>
        <time>2020-10-21T09:59:36Z</time>
      </trkpt>
      <trkpt lat="43.38358" lon="5.51485">
        <ele>412</ele>
        <time>2020-10-21T09:59:42Z</time>
      </trkpt>
      <trkpt lat="43.38359" lon="5.51479">
        <ele>411</ele>
        <time>2020-10-21T09:59:46Z</time>
      </trkpt>
      <trkpt lat="43.3836" lon="5.5147">
        <ele>410</ele>
        <time>2020-10-21T09:59:52Z</time>
      </trkpt>
      <trkpt lat="43.38359" lon="5.51461">
        <ele>410</ele>
        <time>2020-10-21T09:59:58Z</time>
      </trkpt>
      <trkpt lat="43.3836" lon="5.51452">
        <ele>410</ele>
        <time>2020-10-21T10:00:04Z</time>
      </trkpt>
      <trkpt lat="43.38359" lon="5.51444">
        <ele>410</ele>
        <time>2020-10-21T10:00:10Z</time>
      </trkpt>
      <trkpt lat="43.38358" lon="5.51436">
        <ele>411</ele>
        <time>2020-10-21T10:00:16Z</time>
      </trkpt>
      <trkpt lat="43.38357" lon="5.51428">
        <ele>412</ele>
        <time>2020-10-21T10:00:22Z</time>
      </trkpt>
      <trkpt lat="43.38356" lon="5.51422">
        <ele>413</ele>
        <time>2020-10-21T10:00:26Z</time>
      </trkpt>
      <trkpt lat="43.38355" lon="5.51413">
        <ele>410</ele>
        <time>2020-10-21T10:00:32Z</time>
      </trkpt>
      <trkpt lat="43.38354" lon="5.51404">
        <ele>410</ele>
        <time>2020-10-21T10:00:38Z</time>
      </trkpt>
      <trkpt lat="43.38356" lon="5.51396">
        <ele>408</ele>
        <time>2020-10-21T10:00:44Z</time>
      </trkpt>
      <trkpt lat="43.38357" lon="5.51389">
        <ele>407</ele>
        <time>2020-10-21T10:00:48Z</time>
      </trkpt>
      <trkpt lat="43.3836" lon="5.51381">
        <ele>405</ele>
        <time>2020-10-21T10:00:54Z</time>
      </trkpt>
      <trkpt lat="43.38361" lon="5.51372">
        <ele>405</ele>
        <time>2020-10-21T10:01:00Z</time>
      </trkpt>
      <trkpt lat="43.38362" lon="5.51366">
        <ele>405</ele>
        <time>2020-10-21T10:01:04Z</time>
      </trkpt>
      <trkpt lat="43.38363" lon="5.51357">
        <ele>405</ele>
        <time>2020-10-21T10:01:10Z</time>
      </trkpt>
      <trkpt lat="43.38364" lon="5.5135">
        <ele>405</ele>
        <time>2020-10-21T10:01:14Z</time>
      </trkpt>
      <trkpt lat="43.38364" lon="5.51341">
        <ele>405</ele>
        <time>2020-10-21T10:01:20Z</time>
      </trkpt>
      <trkpt lat="43.38364" lon="5.51335">
        <ele>405</ele>
        <time>2020-10-21T10:01:24Z</time>
      </trkpt>
      <trkpt lat="43.38363" lon="5.51326">
        <ele>399</ele>
        <time>2020-10-21T10:01:30Z</time>
      </trkpt>
      <trkpt lat="43.38361" lon="5.51318">
        <ele>399</ele>
        <time>2020-10-21T10:01:36Z</time>
      </trkpt>
      <trkpt lat="43.38358" lon="5.51312">
        <ele>399</ele>
        <time>2020-10-21T10:01:42Z</time>
      </trkpt>
      <trkpt lat="43.38354" lon="5.51307">
        <ele>399</ele>
        <time>2020-10-21T10:01:58Z</time>
      </trkpt>
      <trkpt lat="43.3835" lon="5.51302">
        <ele>399</ele>
        <time>2020-10-21T10:02:04Z</time>
      </trkpt>
      <trkpt lat="43.38346" lon="5.51296">
        <ele>399</ele>
        <time>2020-10-21T10:02:10Z</time>
      </trkpt>
      <trkpt lat="43.38341" lon="5.5129">
        <ele>399</ele>
        <time>2020-10-21T10:02:16Z</time>
      </trkpt>
      <trkpt lat="43.38338" lon="5.51285">
        <ele>399</ele>
        <time>2020-10-21T10:02:20Z</time>
      </trkpt>
      <trkpt lat="43.38336" lon="5.51279">
        <ele>399</ele>
        <time>2020-10-21T10:02:24Z</time>
      </trkpt>
      <trkpt lat="43.38333" lon="5.51272">
        <ele>416</ele>
        <time>2020-10-21T10:02:30Z</time>
      </trkpt>
      <trkpt lat="43.38331" lon="5.51264">
        <ele>413</ele>
        <time>2020-10-21T10:02:36Z</time>
      </trkpt>
      <trkpt lat="43.38329" lon="5.51256">
        <ele>411</ele>
        <time>2020-10-21T10:02:42Z</time>
      </trkpt>
      <trkpt lat="43.38327" lon="5.51249">
        <ele>407</ele>
        <time>2020-10-21T10:02:48Z</time>
      </trkpt>
      <trkpt lat="43.38326" lon="5.51243">
        <ele>407</ele>
        <time>2020-10-21T10:02:52Z</time>
      </trkpt>
      <trkpt lat="43.38325" lon="5.51236">
        <ele>407</ele>
        <time>2020-10-21T10:02:56Z</time>
      </trkpt>
      <trkpt lat="43.38324" lon="5.5123">
        <ele>407</ele>
        <time>2020-10-21T10:03:00Z</time>
      </trkpt>
      <trkpt lat="43.38322" lon="5.51222">
        <ele>406</ele>
        <time>2020-10-21T10:03:06Z</time>
      </trkpt>
      <trkpt lat="43.38322" lon="5.51215">
        <ele>405</ele>
        <time>2020-10-21T10:03:10Z</time>
      </trkpt>
      <trkpt lat="43.38321" lon="5.51208">
        <ele>404</ele>
        <time>2020-10-21T10:03:14Z</time>
      </trkpt>
      <trkpt lat="43.38321" lon="5.51202">
        <ele>403</ele>
        <time>2020-10-21T10:03:18Z</time>
      </trkpt>
      <trkpt lat="43.3832" lon="5.51193">
        <ele>402</ele>
        <time>2020-10-21T10:03:24Z</time>
      </trkpt>
      <trkpt lat="43.38318" lon="5.51185">
        <ele>400</ele>
        <time>2020-10-21T10:03:30Z</time>
      </trkpt>
      <trkpt lat="43.38314" lon="5.51177">
        <ele>400</ele>
        <time>2020-10-21T10:03:36Z</time>
      </trkpt>
      <trkpt lat="43.38312" lon="5.51172">
        <ele>400</ele>
        <time>2020-10-21T10:03:40Z</time>
      </trkpt>
      <trkpt lat="43.38309" lon="5.51166">
        <ele>391</ele>
        <time>2020-10-21T10:03:44Z</time>
      </trkpt>
      <trkpt lat="43.38307" lon="5.51158">
        <ele>391</ele>
        <time>2020-10-21T10:03:50Z</time>
      </trkpt>
      <trkpt lat="43.38304" lon="5.51153">
        <ele>391</ele>
        <time>2020-10-21T10:03:54Z</time>
      </trkpt>
      <trkpt lat="43.38301" lon="5.51147">
        <ele>391</ele>
        <time>2020-10-21T10:03:58Z</time>
      </trkpt>
      <trkpt lat="43.38298" lon="5.51141">
        <ele>390</ele>
        <time>2020-10-21T10:04:02Z</time>
      </trkpt>
      <trkpt lat="43.38295" lon="5.51136">
        <ele>390</ele>
        <time>2020-10-21T10:04:06Z</time>
      </trkpt>
      <trkpt lat="43.38292" lon="5.51131">
        <ele>390</ele>
        <time>2020-10-21T10:04:10Z</time>
      </trkpt>
      <trkpt lat="43.38286" lon="5.51127">
        <ele>390</ele>
        <time>2020-10-21T10:04:16Z</time>
      </trkpt>
      <trkpt lat="43.38279" lon="5.51126">
        <ele>390</ele>
        <time>2020-10-21T10:04:22Z</time>
      </trkpt>
      <trkpt lat="43.38274" lon="5.51125">
        <ele>391</ele>
        <time>2020-10-21T10:04:26Z</time>
      </trkpt>
      <trkpt lat="43.38269" lon="5.51124">
        <ele>391</ele>
        <time>2020-10-21T10:04:30Z</time>
      </trkpt>
      <trkpt lat="43.38265" lon="5.51123">
        <ele>391</ele>
        <time>2020-10-21T10:04:34Z</time>
      </trkpt>
      <trkpt lat="43.38259" lon="5.51121">
        <ele>391</ele>
        <time>2020-10-21T10:04:40Z</time>
      </trkpt>
      <trkpt lat="43.38253" lon="5.5112">
        <ele>391</ele>
        <time>2020-10-21T10:04:46Z</time>
      </trkpt>
      <trkpt lat="43.38247" lon="5.51119">
        <ele>389</ele>
        <time>2020-10-21T10:04:52Z</time>
      </trkpt>
      <trkpt lat="43.38242" lon="5.5112">
        <ele>389</ele>
        <time>2020-10-21T10:04:56Z</time>
      </trkpt>
      <trkpt lat="43.38238" lon="5.51121">
        <ele>389</ele>
        <time>2020-10-21T10:05:00Z</time>
      </trkpt>
      <trkpt lat="43.38232" lon="5.51123">
        <ele>388</ele>
        <time>2020-10-21T10:05:06Z</time>
      </trkpt>
      <trkpt lat="43.38226" lon="5.51125">
        <ele>388</ele>
        <time>2020-10-21T10:05:12Z</time>
      </trkpt>
      <trkpt lat="43.38222" lon="5.51128">
        <ele>388</ele>
        <time>2020-10-21T10:05:18Z</time>
      </trkpt>
      <trkpt lat="43.38217" lon="5.51132">
        <ele>388</ele>
        <time>2020-10-21T10:05:24Z</time>
      </trkpt>
      <trkpt lat="43.38213" lon="5.51137">
        <ele>389</ele>
        <time>2020-10-21T10:05:30Z</time>
      </trkpt>
      <trkpt lat="43.3821" lon="5.51143">
        <ele>389</ele>
        <time>2020-10-21T10:05:36Z</time>
      </trkpt>
      <trkpt lat="43.38205" lon="5.5115">
        <ele>389</ele>
        <time>2020-10-21T10:05:42Z</time>
      </trkpt>
      <trkpt lat="43.38202" lon="5.51154">
        <ele>389</ele>
        <time>2020-10-21T10:05:46Z</time>
      </trkpt>
      <trkpt lat="43.38198" lon="5.5116">
        <ele>389</ele>
        <time>2020-10-21T10:05:52Z</time>
      </trkpt>
      <trkpt lat="43.38195" lon="5.51165">
        <ele>389</ele>
        <time>2020-10-21T10:05:56Z</time>
      </trkpt>
      <trkpt lat="43.3819" lon="5.51171">
        <ele>400</ele>
        <time>2020-10-21T10:06:02Z</time>
      </trkpt>
      <trkpt lat="43.38185" lon="5.51178">
        <ele>399</ele>
        <time>2020-10-21T10:06:08Z</time>
      </trkpt>
      <trkpt lat="43.38179" lon="5.51183">
        <ele>399</ele>
        <time>2020-10-21T10:06:14Z</time>
      </trkpt>
      <trkpt lat="43.38174" lon="5.51187">
        <ele>400</ele>
        <time>2020-10-21T10:06:20Z</time>
      </trkpt>
      <trkpt lat="43.38168" lon="5.5119">
        <ele>400</ele>
        <time>2020-10-21T10:06:26Z</time>
      </trkpt>
      <trkpt lat="43.38163" lon="5.51191">
        <ele>394</ele>
        <time>2020-10-21T10:06:30Z</time>
      </trkpt>
      <trkpt lat="43.38157" lon="5.51193">
        <ele>394</ele>
        <time>2020-10-21T10:06:36Z</time>
      </trkpt>
      <trkpt lat="43.38151" lon="5.51193">
        <ele>394</ele>
        <time>2020-10-21T10:06:42Z</time>
      </trkpt>
      <trkpt lat="43.38145" lon="5.51193">
        <ele>394</ele>
        <time>2020-10-21T10:06:48Z</time>
      </trkpt>
      <trkpt lat="43.38138" lon="5.51192">
        <ele>394</ele>
        <time>2020-10-21T10:06:54Z</time>
      </trkpt>
      <trkpt lat="43.38134" lon="5.51191">
        <ele>393</ele>
        <time>2020-10-21T10:06:58Z</time>
      </trkpt>
      <trkpt lat="43.38129" lon="5.5119">
        <ele>393</ele>
        <time>2020-10-21T10:07:02Z</time>
      </trkpt>
      <trkpt lat="43.38122" lon="5.51189">
        <ele>393</ele>
        <time>2020-10-21T10:07:08Z</time>
      </trkpt>
      <trkpt lat="43.38118" lon="5.51188">
        <ele>392</ele>
        <time>2020-10-21T10:07:12Z</time>
      </trkpt>
      <trkpt lat="43.38113" lon="5.51187">
        <ele>392</ele>
        <time>2020-10-21T10:07:16Z</time>
      </trkpt>
      <trkpt lat="43.38109" lon="5.51184">
        <ele>391</ele>
        <time>2020-10-21T10:07:20Z</time>
      </trkpt>
      <trkpt lat="43.38105" lon="5.51182">
        <ele>390</ele>
        <time>2020-10-21T10:07:24Z</time>
      </trkpt>
      <trkpt lat="43.381" lon="5.5118">
        <ele>389</ele>
        <time>2020-10-21T10:07:28Z</time>
      </trkpt>
      <trkpt lat="43.38094" lon="5.51177">
        <ele>388</ele>
        <time>2020-10-21T10:07:34Z</time>
      </trkpt>
      <trkpt lat="43.3809" lon="5.51175">
        <ele>386</ele>
        <time>2020-10-21T10:07:38Z</time>
      </trkpt>
      <trkpt lat="43.38084" lon="5.51173">
        <ele>385</ele>
        <time>2020-10-21T10:07:44Z</time>
      </trkpt>
      <trkpt lat="43.38078" lon="5.5117">
        <ele>383</ele>
        <time>2020-10-21T10:07:50Z</time>
      </trkpt>
      <trkpt lat="43.38073" lon="5.51169">
        <ele>383</ele>
        <time>2020-10-21T10:07:54Z</time>
      </trkpt>
      <trkpt lat="43.38067" lon="5.51166">
        <ele>375</ele>
        <time>2020-10-21T10:08:00Z</time>
      </trkpt>
      <trkpt lat="43.3806" lon="5.51164">
        <ele>374</ele>
        <time>2020-10-21T10:08:06Z</time>
      </trkpt>
      <trkpt lat="43.38055" lon="5.51162">
        <ele>373</ele>
        <time>2020-10-21T10:08:12Z</time>
      </trkpt>
      <trkpt lat="43.38048" lon="5.5116">
        <ele>372</ele>
        <time>2020-10-21T10:08:18Z</time>
      </trkpt>
      <trkpt lat="43.38043" lon="5.51159">
        <ele>371</ele>
        <time>2020-10-21T10:08:24Z</time>
      </trkpt>
      <trkpt lat="43.38037" lon="5.51157">
        <ele>371</ele>
        <time>2020-10-21T10:08:30Z</time>
      </trkpt>
      <trkpt lat="43.38031" lon="5.51155">
        <ele>371</ele>
        <time>2020-10-21T10:08:36Z</time>
      </trkpt>
      <trkpt lat="43.38026" lon="5.51154">
        <ele>371</ele>
        <time>2020-10-21T10:08:40Z</time>
      </trkpt>
      <trkpt lat="43.38021" lon="5.51153">
        <ele>371</ele>
        <time>2020-10-21T10:08:44Z</time>
      </trkpt>
      <trkpt lat="43.38016" lon="5.51152">
        <ele>371</ele>
        <time>2020-10-21T10:08:48Z</time>
      </trkpt>
      <trkpt lat="43.38009" lon="5.5115">
        <ele>371</ele>
        <time>2020-10-21T10:08:54Z</time>
      </trkpt>
      <trkpt lat="43.38005" lon="5.51148">
        <ele>371</ele>
        <time>2020-10-21T10:08:58Z</time>
      </trkpt>
      <trkpt lat="43.37998" lon="5.51147">
        <ele>367</ele>
        <time>2020-10-21T10:09:04Z</time>
      </trkpt>
      <trkpt lat="43.37992" lon="5.51148">
        <ele>367</ele>
        <time>2020-10-21T10:09:10Z</time>
      </trkpt>
      <trkpt lat="43.37987" lon="5.5115">
        <ele>366</ele>
        <time>2020-10-21T10:09:16Z</time>
      </trkpt>
      <trkpt lat="43.37983" lon="5.51152">
        <ele>366</ele>
        <time>2020-10-21T10:20:02Z</time>
      </trkpt>
      <trkpt lat="43.37982" lon="5.51145">
        <ele>364</ele>
        <time>2020-10-21T10:20:12Z</time>
      </trkpt>
      <trkpt lat="43.37981" lon="5.51137">
        <ele>363</ele>
        <time>2020-10-21T10:20:22Z</time>
      </trkpt>
      <trkpt lat="43.37978" lon="5.51131">
        <ele>362</ele>
        <time>2020-10-21T10:20:30Z</time>
      </trkpt>
      <trkpt lat="43.37975" lon="5.51126">
        <ele>361</ele>
        <time>2020-10-21T10:20:38Z</time>
      </trkpt>
      <trkpt lat="43.37971" lon="5.51121">
        <ele>360</ele>
        <time>2020-10-21T10:20:46Z</time>
      </trkpt>
      <trkpt lat="43.37967" lon="5.51116">
        <ele>360</ele>
        <time>2020-10-21T10:20:54Z</time>
      </trkpt>
      <trkpt lat="43.37963" lon="5.51111">
        <ele>359</ele>
        <time>2020-10-21T10:21:02Z</time>
      </trkpt>
      <trkpt lat="43.3796" lon="5.51106">
        <ele>358</ele>
        <time>2020-10-21T10:21:10Z</time>
      </trkpt>
      <trkpt lat="43.37956" lon="5.511">
        <ele>358</ele>
        <time>2020-10-21T10:21:16Z</time>
      </trkpt>
      <trkpt lat="43.37952" lon="5.51094">
        <ele>357</ele>
        <time>2020-10-21T10:21:20Z</time>
      </trkpt>
      <trkpt lat="43.37949" lon="5.51088">
        <ele>357</ele>
        <time>2020-10-21T10:21:26Z</time>
      </trkpt>
      <trkpt lat="43.37945" lon="5.51081">
        <ele>348</ele>
        <time>2020-10-21T10:21:32Z</time>
      </trkpt>
      <trkpt lat="43.37941" lon="5.51076">
        <ele>348</ele>
        <time>2020-10-21T10:21:36Z</time>
      </trkpt>
      <trkpt lat="43.37938" lon="5.5107">
        <ele>347</ele>
        <time>2020-10-21T10:21:40Z</time>
      </trkpt>
      <trkpt lat="43.37935" lon="5.51065">
        <ele>347</ele>
        <time>2020-10-21T10:21:44Z</time>
      </trkpt>
      <trkpt lat="43.3793" lon="5.51058">
        <ele>347</ele>
        <time>2020-10-21T10:21:50Z</time>
      </trkpt>
      <trkpt lat="43.37926" lon="5.51053">
        <ele>346</ele>
        <time>2020-10-21T10:21:54Z</time>
      </trkpt>
      <trkpt lat="43.37921" lon="5.5105">
        <ele>346</ele>
        <time>2020-10-21T10:22:00Z</time>
      </trkpt>
      <trkpt lat="43.37916" lon="5.51044">
        <ele>341</ele>
        <time>2020-10-21T10:22:06Z</time>
      </trkpt>
      <trkpt lat="43.37914" lon="5.51035">
        <ele>340</ele>
        <time>2020-10-21T10:22:12Z</time>
      </trkpt>
      <trkpt lat="43.37912" lon="5.51028">
        <ele>340</ele>
        <time>2020-10-21T10:22:18Z</time>
      </trkpt>
      <trkpt lat="43.3791" lon="5.51022">
        <ele>339</ele>
        <time>2020-10-21T10:22:24Z</time>
      </trkpt>
      <trkpt lat="43.37908" lon="5.51014">
        <ele>339</ele>
        <time>2020-10-21T10:22:30Z</time>
      </trkpt>
      <trkpt lat="43.37907" lon="5.51008">
        <ele>340</ele>
        <time>2020-10-21T10:22:34Z</time>
      </trkpt>
      <trkpt lat="43.37906" lon="5.50999">
        <ele>338</ele>
        <time>2020-10-21T10:22:40Z</time>
      </trkpt>
      <trkpt lat="43.37906" lon="5.50993">
        <ele>338</ele>
        <time>2020-10-21T10:22:44Z</time>
      </trkpt>
      <trkpt lat="43.37909" lon="5.50987">
        <ele>338</ele>
        <time>2020-10-21T10:22:50Z</time>
      </trkpt>
      <trkpt lat="43.37912" lon="5.5098">
        <ele>337</ele>
        <time>2020-10-21T10:22:56Z</time>
      </trkpt>
      <trkpt lat="43.37911" lon="5.50971">
        <ele>336</ele>
        <time>2020-10-21T10:23:02Z</time>
      </trkpt>
      <trkpt lat="43.37913" lon="5.50978">
        <ele>337</ele>
        <time>2020-10-21T10:23:26Z</time>
      </trkpt>
      <trkpt lat="43.37916" lon="5.50983">
        <ele>338</ele>
        <time>2020-10-21T10:23:32Z</time>
      </trkpt>
      <trkpt lat="43.3792" lon="5.50986">
        <ele>335</ele>
        <time>2020-10-21T10:23:36Z</time>
      </trkpt>
      <trkpt lat="43.37924" lon="5.50991">
        <ele>336</ele>
        <time>2020-10-21T10:23:42Z</time>
      </trkpt>
      <trkpt lat="43.37929" lon="5.50996">
        <ele>336</ele>
        <time>2020-10-21T10:23:48Z</time>
      </trkpt>
      <trkpt lat="43.37934" lon="5.51001">
        <ele>342</ele>
        <time>2020-10-21T10:23:54Z</time>
      </trkpt>
      <trkpt lat="43.37938" lon="5.51005">
        <ele>342</ele>
        <time>2020-10-21T10:23:58Z</time>
      </trkpt>
      <trkpt lat="43.37942" lon="5.51012">
        <ele>342</ele>
        <time>2020-10-21T10:24:04Z</time>
      </trkpt>
      <trkpt lat="43.37948" lon="5.51016">
        <ele>342</ele>
        <time>2020-10-21T10:24:10Z</time>
      </trkpt>
      <trkpt lat="43.37954" lon="5.5102">
        <ele>342</ele>
        <time>2020-10-21T10:24:16Z</time>
      </trkpt>
      <trkpt lat="43.3796" lon="5.51023">
        <ele>342</ele>
        <time>2020-10-21T10:24:22Z</time>
      </trkpt>
      <trkpt lat="43.37966" lon="5.51025">
        <ele>342</ele>
        <time>2020-10-21T10:24:28Z</time>
      </trkpt>
      <trkpt lat="43.37972" lon="5.51027">
        <ele>342</ele>
        <time>2020-10-21T10:24:34Z</time>
      </trkpt>
      <trkpt lat="43.37979" lon="5.51029">
        <ele>341</ele>
        <time>2020-10-21T10:24:40Z</time>
      </trkpt>
      <trkpt lat="43.37985" lon="5.51029">
        <ele>341</ele>
        <time>2020-10-21T10:24:46Z</time>
      </trkpt>
      <trkpt lat="43.37992" lon="5.51029">
        <ele>341</ele>
        <time>2020-10-21T10:24:52Z</time>
      </trkpt>
      <trkpt lat="43.37996" lon="5.5103">
        <ele>341</ele>
        <time>2020-10-21T10:24:56Z</time>
      </trkpt>
      <trkpt lat="43.38002" lon="5.5103">
        <ele>340</ele>
        <time>2020-10-21T10:25:02Z</time>
      </trkpt>
      <trkpt lat="43.38007" lon="5.5103">
        <ele>340</ele>
        <time>2020-10-21T10:25:06Z</time>
      </trkpt>
      <trkpt lat="43.38012" lon="5.5103">
        <ele>340</ele>
        <time>2020-10-21T10:25:10Z</time>
      </trkpt>
      <trkpt lat="43.38019" lon="5.51031">
        <ele>340</ele>
        <time>2020-10-21T10:25:16Z</time>
      </trkpt>
      <trkpt lat="43.38025" lon="5.51032">
        <ele>341</ele>
        <time>2020-10-21T10:25:22Z</time>
      </trkpt>
      <trkpt lat="43.38032" lon="5.51033">
        <ele>341</ele>
        <time>2020-10-21T10:25:28Z</time>
      </trkpt>
      <trkpt lat="43.38036" lon="5.51033">
        <ele>341</ele>
        <time>2020-10-21T10:25:32Z</time>
      </trkpt>
      <trkpt lat="43.38041" lon="5.51033">
        <ele>341</ele>
        <time>2020-10-21T10:25:36Z</time>
      </trkpt>
      <trkpt lat="43.38047" lon="5.51034">
        <ele>342</ele>
        <time>2020-10-21T10:25:42Z</time>
      </trkpt>
      <trkpt lat="43.38052" lon="5.51036">
        <ele>342</ele>
        <time>2020-10-21T10:25:46Z</time>
      </trkpt>
      <trkpt lat="43.38058" lon="5.51038">
        <ele>342</ele>
        <time>2020-10-21T10:25:52Z</time>
      </trkpt>
      <trkpt lat="43.38065" lon="5.51039">
        <ele>342</ele>
        <time>2020-10-21T10:25:58Z</time>
      </trkpt>
      <trkpt lat="43.38072" lon="5.5104">
        <ele>342</ele>
        <time>2020-10-21T10:26:04Z</time>
      </trkpt>
      <trkpt lat="43.38079" lon="5.5104">
        <ele>342</ele>
        <time>2020-10-21T10:26:10Z</time>
      </trkpt>
      <trkpt lat="43.38085" lon="5.5104">
        <ele>348</ele>
        <time>2020-10-21T10:26:16Z</time>
      </trkpt>
      <trkpt lat="43.38089" lon="5.51041">
        <ele>348</ele>
        <time>2020-10-21T10:26:20Z</time>
      </trkpt>
      <trkpt lat="43.38094" lon="5.51041">
        <ele>348</ele>
        <time>2020-10-21T10:26:24Z</time>
      </trkpt>
      <trkpt lat="43.38099" lon="5.51039">
        <ele>348</ele>
        <time>2020-10-21T10:26:28Z</time>
      </trkpt>
      <trkpt lat="43.38104" lon="5.51036">
        <ele>348</ele>
        <time>2020-10-21T10:26:32Z</time>
      </trkpt>
      <trkpt lat="43.38107" lon="5.5103">
        <ele>347</ele>
        <time>2020-10-21T10:26:36Z</time>
      </trkpt>
      <trkpt lat="43.38108" lon="5.51023">
        <ele>346</ele>
        <time>2020-10-21T10:26:40Z</time>
      </trkpt>
      <trkpt lat="43.38107" lon="5.51015">
        <ele>345</ele>
        <time>2020-10-21T10:26:46Z</time>
      </trkpt>
      <trkpt lat="43.38105" lon="5.51007">
        <ele>343</ele>
        <time>2020-10-21T10:26:52Z</time>
      </trkpt>
      <trkpt lat="43.38104" lon="5.50999">
        <ele>333</ele>
        <time>2020-10-21T10:26:58Z</time>
      </trkpt>
      <trkpt lat="43.38103" lon="5.50993">
        <ele>333</ele>
        <time>2020-10-21T10:27:02Z</time>
      </trkpt>
      <trkpt lat="43.38102" lon="5.50987">
        <ele>333</ele>
        <time>2020-10-21T10:27:06Z</time>
      </trkpt>
      <trkpt lat="43.381" lon="5.50978">
        <ele>333</ele>
        <time>2020-10-21T10:27:12Z</time>
      </trkpt>
      <trkpt lat="43.38099" lon="5.5097">
        <ele>332</ele>
        <time>2020-10-21T10:27:18Z</time>
      </trkpt>
      <trkpt lat="43.38098" lon="5.50963">
        <ele>332</ele>
        <time>2020-10-21T10:27:22Z</time>
      </trkpt>
      <trkpt lat="43.38096" lon="5.50955">
        <ele>331</ele>
        <time>2020-10-21T10:27:28Z</time>
      </trkpt>
      <trkpt lat="43.38094" lon="5.50949">
        <ele>330</ele>
        <time>2020-10-21T10:27:32Z</time>
      </trkpt>
      <trkpt lat="43.38092" lon="5.50944">
        <ele>329</ele>
        <time>2020-10-21T10:27:36Z</time>
      </trkpt>
      <trkpt lat="43.38089" lon="5.50936">
        <ele>328</ele>
        <time>2020-10-21T10:27:42Z</time>
      </trkpt>
      <trkpt lat="43.38088" lon="5.5093">
        <ele>326</ele>
        <time>2020-10-21T10:27:46Z</time>
      </trkpt>
      <trkpt lat="43.38087" lon="5.50923">
        <ele>324</ele>
        <time>2020-10-21T10:27:50Z</time>
      </trkpt>
      <trkpt lat="43.38084" lon="5.50915">
        <ele>321</ele>
        <time>2020-10-21T10:27:56Z</time>
      </trkpt>
      <trkpt lat="43.38082" lon="5.50907">
        <ele>318</ele>
        <time>2020-10-21T10:28:02Z</time>
      </trkpt>
      <trkpt lat="43.38079" lon="5.50899">
        <ele>316</ele>
        <time>2020-10-21T10:28:08Z</time>
      </trkpt>
      <trkpt lat="43.38078" lon="5.50893">
        <ele>315</ele>
        <time>2020-10-21T10:28:12Z</time>
      </trkpt>
      <trkpt lat="43.38076" lon="5.50885">
        <ele>313</ele>
        <time>2020-10-21T10:28:18Z</time>
      </trkpt>
      <trkpt lat="43.38075" lon="5.50878">
        <ele>313</ele>
        <time>2020-10-21T10:28:24Z</time>
      </trkpt>
      <trkpt lat="43.38074" lon="5.5087">
        <ele>312</ele>
        <time>2020-10-21T10:28:30Z</time>
      </trkpt>
      <trkpt lat="43.38072" lon="5.50862">
        <ele>311</ele>
        <time>2020-10-21T10:28:36Z</time>
      </trkpt>
      <trkpt lat="43.38072" lon="5.50853">
        <ele>311</ele>
        <time>2020-10-21T10:28:42Z</time>
      </trkpt>
      <trkpt lat="43.38073" lon="5.50845">
        <ele>311</ele>
        <time>2020-10-21T10:28:48Z</time>
      </trkpt>
      <trkpt lat="43.38075" lon="5.50837">
        <ele>311</ele>
        <time>2020-10-21T10:28:54Z</time>
      </trkpt>
      <trkpt lat="43.38078" lon="5.5083">
        <ele>308</ele>
        <time>2020-10-21T10:29:00Z</time>
      </trkpt>
      <trkpt lat="43.38082" lon="5.50824">
        <ele>307</ele>
        <time>2020-10-21T10:29:06Z</time>
      </trkpt>
      <trkpt lat="43.38087" lon="5.5082">
        <ele>307</ele>
        <time>2020-10-21T10:29:12Z</time>
      </trkpt>
      <trkpt lat="43.38091" lon="5.50814">
        <ele>306</ele>
        <time>2020-10-21T10:29:18Z</time>
      </trkpt>
      <trkpt lat="43.38095" lon="5.50811">
        <ele>305</ele>
        <time>2020-10-21T10:29:22Z</time>
      </trkpt>
      <trkpt lat="43.38099" lon="5.50809">
        <ele>304</ele>
        <time>2020-10-21T10:29:26Z</time>
      </trkpt>
      <trkpt lat="43.38103" lon="5.50806">
        <ele>304</ele>
        <time>2020-10-21T10:29:32Z</time>
      </trkpt>
      <trkpt lat="43.38108" lon="5.50801">
        <ele>303</ele>
        <time>2020-10-21T10:29:38Z</time>
      </trkpt>
      <trkpt lat="43.38112" lon="5.50795">
        <ele>302</ele>
        <time>2020-10-21T10:29:44Z</time>
      </trkpt>
      <trkpt lat="43.38117" lon="5.50792">
        <ele>301</ele>
        <time>2020-10-21T10:29:50Z</time>
      </trkpt>
      <trkpt lat="43.38122" lon="5.50791">
        <ele>301</ele>
        <time>2020-10-21T10:29:54Z</time>
      </trkpt>
      <trkpt lat="43.38128" lon="5.50791">
        <ele>301</ele>
        <time>2020-10-21T10:30:00Z</time>
      </trkpt>
      <trkpt lat="43.38134" lon="5.50794">
        <ele>302</ele>
        <time>2020-10-21T10:30:06Z</time>
      </trkpt>
      <trkpt lat="43.38138" lon="5.50798">
        <ele>302</ele>
        <time>2020-10-21T10:30:12Z</time>
      </trkpt>
      <trkpt lat="43.38142" lon="5.50805">
        <ele>303</ele>
        <time>2020-10-21T10:30:18Z</time>
      </trkpt>
      <trkpt lat="43.38144" lon="5.50813">
        <ele>304</ele>
        <time>2020-10-21T10:30:24Z</time>
      </trkpt>
      <trkpt lat="43.38148" lon="5.5082">
        <ele>305</ele>
        <time>2020-10-21T10:30:32Z</time>
      </trkpt>
      <trkpt lat="43.38151" lon="5.50825">
        <ele>306</ele>
        <time>2020-10-21T10:30:36Z</time>
      </trkpt>
      <trkpt lat="43.38153" lon="5.50832">
        <ele>307</ele>
        <time>2020-10-21T10:30:42Z</time>
      </trkpt>
      <trkpt lat="43.38159" lon="5.50837">
        <ele>313</ele>
        <time>2020-10-21T10:30:50Z</time>
      </trkpt>
      <trkpt lat="43.38164" lon="5.50841">
        <ele>313</ele>
        <time>2020-10-21T10:30:56Z</time>
      </trkpt>
      <trkpt lat="43.3817" lon="5.50842">
        <ele>311</ele>
        <time>2020-10-21T10:31:00Z</time>
      </trkpt>
      <trkpt lat="43.38176" lon="5.50842">
        <ele>312</ele>
        <time>2020-10-21T10:31:04Z</time>
      </trkpt>
      <trkpt lat="43.3818" lon="5.5084">
        <ele>312</ele>
        <time>2020-10-21T10:31:08Z</time>
      </trkpt>
      <trkpt lat="43.38185" lon="5.50835">
        <ele>312</ele>
        <time>2020-10-21T10:31:14Z</time>
      </trkpt>
      <trkpt lat="43.3819" lon="5.50832">
        <ele>302</ele>
        <time>2020-10-21T10:31:20Z</time>
      </trkpt>
      <trkpt lat="43.38194" lon="5.50829">
        <ele>301</ele>
        <time>2020-10-21T10:31:26Z</time>
      </trkpt>
      <trkpt lat="43.38198" lon="5.50826">
        <ele>300</ele>
        <time>2020-10-21T10:31:30Z</time>
      </trkpt>
      <trkpt lat="43.38205" lon="5.50826">
        <ele>299</ele>
        <time>2020-10-21T10:31:36Z</time>
      </trkpt>
      <trkpt lat="43.38211" lon="5.50825">
        <ele>298</ele>
        <time>2020-10-21T10:31:42Z</time>
      </trkpt>
      <trkpt lat="43.38216" lon="5.50825">
        <ele>298</ele>
        <time>2020-10-21T10:31:46Z</time>
      </trkpt>
      <trkpt lat="43.38222" lon="5.50827">
        <ele>297</ele>
        <time>2020-10-21T10:31:52Z</time>
      </trkpt>
      <trkpt lat="43.38227" lon="5.5083">
        <ele>297</ele>
        <time>2020-10-21T10:31:58Z</time>
      </trkpt>
      <trkpt lat="43.38231" lon="5.50835">
        <ele>305</ele>
        <time>2020-10-21T10:32:04Z</time>
      </trkpt>
      <trkpt lat="43.38232" lon="5.50842">
        <ele>306</ele>
        <time>2020-10-21T10:32:10Z</time>
      </trkpt>
      <trkpt lat="43.38234" lon="5.50851">
        <ele>307</ele>
        <time>2020-10-21T10:32:16Z</time>
      </trkpt>
      <trkpt lat="43.38237" lon="5.50856">
        <ele>308</ele>
        <time>2020-10-21T10:32:20Z</time>
      </trkpt>
      <trkpt lat="43.38242" lon="5.50862">
        <ele>310</ele>
        <time>2020-10-21T10:32:26Z</time>
      </trkpt>
      <trkpt lat="43.38248" lon="5.50866">
        <ele>310</ele>
        <time>2020-10-21T10:32:32Z</time>
      </trkpt>
      <trkpt lat="43.38253" lon="5.50868">
        <ele>306</ele>
        <time>2020-10-21T10:32:36Z</time>
      </trkpt>
      <trkpt lat="43.38259" lon="5.5087">
        <ele>307</ele>
        <time>2020-10-21T10:32:42Z</time>
      </trkpt>
      <trkpt lat="43.38264" lon="5.50872">
        <ele>307</ele>
        <time>2020-10-21T10:32:48Z</time>
      </trkpt>
      <trkpt lat="43.38269" lon="5.50872">
        <ele>307</ele>
        <time>2020-10-21T10:32:52Z</time>
      </trkpt>
      <trkpt lat="43.38275" lon="5.50873">
        <ele>308</ele>
        <time>2020-10-21T10:32:58Z</time>
      </trkpt>
      <trkpt lat="43.3828" lon="5.50874">
        <ele>308</ele>
        <time>2020-10-21T10:33:02Z</time>
      </trkpt>
      <trkpt lat="43.38284" lon="5.50873">
        <ele>307</ele>
        <time>2020-10-21T10:33:06Z</time>
      </trkpt>
      <trkpt lat="43.3829" lon="5.50872">
        <ele>307</ele>
        <time>2020-10-21T10:33:12Z</time>
      </trkpt>
      <trkpt lat="43.38296" lon="5.50869">
        <ele>306</ele>
        <time>2020-10-21T10:33:18Z</time>
      </trkpt>
      <trkpt lat="43.383" lon="5.50864">
        <ele>306</ele>
        <time>2020-10-21T10:33:24Z</time>
      </trkpt>
      <trkpt lat="43.38305" lon="5.50861">
        <ele>305</ele>
        <time>2020-10-21T10:33:30Z</time>
      </trkpt>
      <trkpt lat="43.38311" lon="5.50858">
        <ele>304</ele>
        <time>2020-10-21T10:33:36Z</time>
      </trkpt>
      <trkpt lat="43.38316" lon="5.50854">
        <ele>303</ele>
        <time>2020-10-21T10:33:42Z</time>
      </trkpt>
      <trkpt lat="43.38321" lon="5.50849">
        <ele>301</ele>
        <time>2020-10-21T10:33:48Z</time>
      </trkpt>
      <trkpt lat="43.38325" lon="5.50845">
        <ele>300</ele>
        <time>2020-10-21T10:33:52Z</time>
      </trkpt>
      <trkpt lat="43.38328" lon="5.50839">
        <ele>298</ele>
        <time>2020-10-21T10:34:10Z</time>
      </trkpt>
      <trkpt lat="43.38333" lon="5.50833">
        <ele>294</ele>
        <time>2020-10-21T10:34:14Z</time>
      </trkpt>
      <trkpt lat="43.38337" lon="5.50828">
        <ele>296</ele>
        <time>2020-10-21T10:34:18Z</time>
      </trkpt>
      <trkpt lat="43.38341" lon="5.50823">
        <ele>298</ele>
        <time>2020-10-21T10:34:22Z</time>
      </trkpt>
      <trkpt lat="43.38346" lon="5.50819">
        <ele>299</ele>
        <time>2020-10-21T10:34:26Z</time>
      </trkpt>
      <trkpt lat="43.38351" lon="5.50818">
        <ele>299</ele>
        <time>2020-10-21T10:34:34Z</time>
      </trkpt>
      <trkpt lat="43.38357" lon="5.50816">
        <ele>300</ele>
        <time>2020-10-21T10:34:40Z</time>
      </trkpt>
      <trkpt lat="43.38363" lon="5.50815">
        <ele>301</ele>
        <time>2020-10-21T10:34:44Z</time>
      </trkpt>
      <trkpt lat="43.38368" lon="5.50814">
        <ele>301</ele>
        <time>2020-10-21T10:34:48Z</time>
      </trkpt>
      <trkpt lat="43.38373" lon="5.50813">
        <ele>301</ele>
        <time>2020-10-21T10:34:54Z</time>
      </trkpt>
      <trkpt lat="43.38378" lon="5.50814">
        <ele>302</ele>
        <time>2020-10-21T10:35:10Z</time>
      </trkpt>
      <trkpt lat="43.38382" lon="5.50811">
        <ele>302</ele>
        <time>2020-10-21T10:35:24Z</time>
      </trkpt>
      <trkpt lat="43.38386" lon="5.50817">
        <ele>302</ele>
        <time>2020-10-21T10:35:54Z</time>
      </trkpt>
      <trkpt lat="43.3839" lon="5.50813">
        <ele>302</ele>
        <time>2020-10-21T10:37:16Z</time>
      </trkpt>
      <trkpt lat="43.38394" lon="5.50817">
        <ele>302</ele>
        <time>2020-10-21T10:37:22Z</time>
      </trkpt>
      <trkpt lat="43.38398" lon="5.50821">
        <ele>302</ele>
        <time>2020-10-21T10:37:28Z</time>
      </trkpt>
      <trkpt lat="43.38403" lon="5.50825">
        <ele>301</ele>
        <time>2020-10-21T10:37:34Z</time>
      </trkpt>
      <trkpt lat="43.38408" lon="5.5083">
        <ele>301</ele>
        <time>2020-10-21T10:37:40Z</time>
      </trkpt>
      <trkpt lat="43.38412" lon="5.50833">
        <ele>300</ele>
        <time>2020-10-21T10:37:46Z</time>
      </trkpt>
      <trkpt lat="43.38417" lon="5.50836">
        <ele>300</ele>
        <time>2020-10-21T10:37:50Z</time>
      </trkpt>
      <trkpt lat="43.38422" lon="5.5084">
        <ele>301</ele>
        <time>2020-10-21T10:37:56Z</time>
      </trkpt>
      <trkpt lat="43.38428" lon="5.50843">
        <ele>302</ele>
        <time>2020-10-21T10:38:02Z</time>
      </trkpt>
      <trkpt lat="43.38432" lon="5.50844">
        <ele>302</ele>
        <time>2020-10-21T10:38:06Z</time>
      </trkpt>
      <trkpt lat="43.38438" lon="5.50849">
        <ele>303</ele>
        <time>2020-10-21T10:38:12Z</time>
      </trkpt>
      <trkpt lat="43.38442" lon="5.50854">
        <ele>303</ele>
        <time>2020-10-21T10:38:18Z</time>
      </trkpt>
      <trkpt lat="43.38447" lon="5.50858">
        <ele>303</ele>
        <time>2020-10-21T10:38:24Z</time>
      </trkpt>
      <trkpt lat="43.38451" lon="5.50863">
        <ele>304</ele>
        <time>2020-10-21T10:38:30Z</time>
      </trkpt>
      <trkpt lat="43.38456" lon="5.5087">
        <ele>304</ele>
        <time>2020-10-21T10:38:36Z</time>
      </trkpt>
      <trkpt lat="43.38459" lon="5.50875">
        <ele>304</ele>
        <time>2020-10-21T10:38:42Z</time>
      </trkpt>
      <trkpt lat="43.38464" lon="5.50879">
        <ele>304</ele>
        <time>2020-10-21T10:38:48Z</time>
      </trkpt>
      <trkpt lat="43.38469" lon="5.50884">
        <ele>303</ele>
        <time>2020-10-21T10:38:54Z</time>
      </trkpt>
      <trkpt lat="43.38472" lon="5.5089">
        <ele>303</ele>
        <time>2020-10-21T10:39:00Z</time>
      </trkpt>
      <trkpt lat="43.38474" lon="5.50896">
        <ele>303</ele>
        <time>2020-10-21T10:39:10Z</time>
      </trkpt>
      <trkpt lat="43.38473" lon="5.50904">
        <ele>303</ele>
        <time>2020-10-21T10:39:16Z</time>
      </trkpt>
      <trkpt lat="43.38473" lon="5.50912">
        <ele>302</ele>
        <time>2020-10-21T10:39:22Z</time>
      </trkpt>
      <trkpt lat="43.38472" lon="5.5092">
        <ele>307</ele>
        <time>2020-10-21T10:39:28Z</time>
      </trkpt>
      <trkpt lat="43.38471" lon="5.50926">
        <ele>307</ele>
        <time>2020-10-21T10:39:34Z</time>
      </trkpt>
      <trkpt lat="43.38472" lon="5.50934">
        <ele>308</ele>
        <time>2020-10-21T10:39:42Z</time>
      </trkpt>
      <trkpt lat="43.38475" lon="5.5094">
        <ele>308</ele>
        <time>2020-10-21T10:40:06Z</time>
      </trkpt>
      <trkpt lat="43.38474" lon="5.50946">
        <ele>309</ele>
        <time>2020-10-21T10:40:12Z</time>
      </trkpt>
      <trkpt lat="43.38476" lon="5.50954">
        <ele>309</ele>
        <time>2020-10-21T10:40:18Z</time>
      </trkpt>
      <trkpt lat="43.38477" lon="5.50961">
        <ele>310</ele>
        <time>2020-10-21T10:40:24Z</time>
      </trkpt>
      <trkpt lat="43.3848" lon="5.50968">
        <ele>310</ele>
        <time>2020-10-21T10:40:30Z</time>
      </trkpt>
      <trkpt lat="43.38481" lon="5.50974">
        <ele>310</ele>
        <time>2020-10-21T10:40:34Z</time>
      </trkpt>
      <trkpt lat="43.38482" lon="5.50982">
        <ele>310</ele>
        <time>2020-10-21T10:40:42Z</time>
      </trkpt>
      <trkpt lat="43.38482" lon="5.50989">
        <ele>310</ele>
        <time>2020-10-21T10:40:48Z</time>
      </trkpt>
      <trkpt lat="43.38482" lon="5.50995">
        <ele>310</ele>
        <time>2020-10-21T10:40:54Z</time>
      </trkpt>
      <trkpt lat="43.38486" lon="5.51001">
        <ele>312</ele>
        <time>2020-10-21T10:42:46Z</time>
      </trkpt>
      <trkpt lat="43.3849" lon="5.51006">
        <ele>312</ele>
        <time>2020-10-21T10:43:00Z</time>
      </trkpt>
      <trkpt lat="43.38495" lon="5.51007">
        <ele>310</ele>
        <time>2020-10-21T10:43:14Z</time>
      </trkpt>
      <trkpt lat="43.385" lon="5.51008">
        <ele>310</ele>
        <time>2020-10-21T10:43:28Z</time>
      </trkpt>
      <trkpt lat="43.38502" lon="5.51015">
        <ele>312</ele>
        <time>2020-10-21T10:43:46Z</time>
      </trkpt>
      <trkpt lat="43.38507" lon="5.51017">
        <ele>313</ele>
        <time>2020-10-21T10:43:58Z</time>
      </trkpt>
      <trkpt lat="43.38511" lon="5.5102">
        <ele>314</ele>
        <time>2020-10-21T10:44:20Z</time>
      </trkpt>
      <trkpt lat="43.38515" lon="5.51023">
        <ele>315</ele>
        <time>2020-10-21T10:44:32Z</time>
      </trkpt>
      <trkpt lat="43.3852" lon="5.51022">
        <ele>316</ele>
        <time>2020-10-21T10:44:42Z</time>
      </trkpt>
      <trkpt lat="43.38525" lon="5.51021">
        <ele>316</ele>
        <time>2020-10-21T10:45:02Z</time>
      </trkpt>
      <trkpt lat="43.38529" lon="5.51024">
        <ele>317</ele>
        <time>2020-10-21T10:45:20Z</time>
      </trkpt>
      <trkpt lat="43.38534" lon="5.51023">
        <ele>318</ele>
        <time>2020-10-21T10:45:30Z</time>
      </trkpt>
      <trkpt lat="43.38537" lon="5.51018">
        <ele>319</ele>
        <time>2020-10-21T10:45:36Z</time>
      </trkpt>
      <trkpt lat="43.38543" lon="5.51017">
        <ele>320</ele>
        <time>2020-10-21T10:46:24Z</time>
      </trkpt>
      <trkpt lat="43.38547" lon="5.51013">
        <ele>320</ele>
        <time>2020-10-21T10:46:40Z</time>
      </trkpt>
      <trkpt lat="43.3855" lon="5.51006">
        <ele>321</ele>
        <time>2020-10-21T10:46:48Z</time>
      </trkpt>
      <trkpt lat="43.38553" lon="5.51001">
        <ele>322</ele>
        <time>2020-10-21T10:47:02Z</time>
      </trkpt>
      <trkpt lat="43.38556" lon="5.50997">
        <ele>317</ele>
        <time>2020-10-21T10:47:08Z</time>
      </trkpt>
      <trkpt lat="43.38561" lon="5.50992">
        <ele>318</ele>
        <time>2020-10-21T10:47:16Z</time>
      </trkpt>
      <trkpt lat="43.38564" lon="5.50988">
        <ele>319</ele>
        <time>2020-10-21T10:47:24Z</time>
      </trkpt>
      <trkpt lat="43.3857" lon="5.50985">
        <ele>320</ele>
        <time>2020-10-21T10:47:36Z</time>
      </trkpt>
      <trkpt lat="43.38571" lon="5.50992">
        <ele>322</ele>
        <time>2020-10-21T10:48:02Z</time>
      </trkpt>
      <trkpt lat="43.38573" lon="5.50998">
        <ele>323</ele>
        <time>2020-10-21T10:48:06Z</time>
      </trkpt>
      <trkpt lat="43.38575" lon="5.51005">
        <ele>327</ele>
        <time>2020-10-21T10:48:14Z</time>
      </trkpt>
      <trkpt lat="43.38575" lon="5.51012">
        <ele>326</ele>
        <time>2020-10-21T10:48:30Z</time>
      </trkpt>
      <trkpt lat="43.38576" lon="5.51019">
        <ele>325</ele>
        <time>2020-10-21T10:48:40Z</time>
      </trkpt>
      <trkpt lat="43.38578" lon="5.51026">
        <ele>325</ele>
        <time>2020-10-21T10:48:54Z</time>
      </trkpt>
      <trkpt lat="43.3858" lon="5.51033">
        <ele>324</ele>
        <time>2020-10-21T10:49:04Z</time>
      </trkpt>
      <trkpt lat="43.38583" lon="5.51037">
        <ele>337</ele>
        <time>2020-10-21T10:49:12Z</time>
      </trkpt>
      <trkpt lat="43.38587" lon="5.51041">
        <ele>338</ele>
        <time>2020-10-21T10:49:30Z</time>
      </trkpt>
      <trkpt lat="43.3859" lon="5.51046">
        <ele>338</ele>
        <time>2020-10-21T10:49:42Z</time>
      </trkpt>
      <trkpt lat="43.38595" lon="5.5105">
        <ele>339</ele>
        <time>2020-10-21T10:49:56Z</time>
      </trkpt>
      <trkpt lat="43.38602" lon="5.51053">
        <ele>339</ele>
        <time>2020-10-21T10:50:02Z</time>
      </trkpt>
      <trkpt lat="43.38607" lon="5.51054">
        <ele>340</ele>
        <time>2020-10-21T10:50:08Z</time>
      </trkpt>
      <trkpt lat="43.38612" lon="5.51054">
        <ele>340</ele>
        <time>2020-10-21T10:50:20Z</time>
      </trkpt>
      <trkpt lat="43.38617" lon="5.51051">
        <ele>340</ele>
        <time>2020-10-21T10:50:34Z</time>
      </trkpt>
      <trkpt lat="43.38622" lon="5.51049">
        <ele>341</ele>
        <time>2020-10-21T10:50:42Z</time>
      </trkpt>
      <trkpt lat="43.38627" lon="5.51052">
        <ele>342</ele>
        <time>2020-10-21T10:50:58Z</time>
      </trkpt>
      <trkpt lat="43.38632" lon="5.51055">
        <ele>342</ele>
        <time>2020-10-21T10:51:04Z</time>
      </trkpt>
      <trkpt lat="43.38636" lon="5.5106">
        <ele>343</ele>
        <time>2020-10-21T10:51:12Z</time>
      </trkpt>
      <trkpt lat="43.3864" lon="5.51062">
        <ele>344</ele>
        <time>2020-10-21T10:51:20Z</time>
      </trkpt>
      <trkpt lat="43.38644" lon="5.51066">
        <ele>345</ele>
        <time>2020-10-21T10:51:32Z</time>
      </trkpt>
      <trkpt lat="43.38647" lon="5.5107">
        <ele>347</ele>
        <time>2020-10-21T10:51:46Z</time>
      </trkpt>
      <trkpt lat="43.3865" lon="5.51076">
        <ele>348</ele>
        <time>2020-10-21T10:51:52Z</time>
      </trkpt>
      <trkpt lat="43.38655" lon="5.51081">
        <ele>351</ele>
        <time>2020-10-21T10:52:00Z</time>
      </trkpt>
      <trkpt lat="43.3866" lon="5.51083">
        <ele>353</ele>
        <time>2020-10-21T10:52:08Z</time>
      </trkpt>
      <trkpt lat="43.38665" lon="5.51088">
        <ele>355</ele>
        <time>2020-10-21T10:52:16Z</time>
      </trkpt>
      <trkpt lat="43.38669" lon="5.51092">
        <ele>360</ele>
        <time>2020-10-21T10:52:22Z</time>
      </trkpt>
      <trkpt lat="43.38673" lon="5.51097">
        <ele>361</ele>
        <time>2020-10-21T10:52:30Z</time>
      </trkpt>
      <trkpt lat="43.38677" lon="5.51102">
        <ele>362</ele>
        <time>2020-10-21T10:52:38Z</time>
      </trkpt>
      <trkpt lat="43.38679" lon="5.51108">
        <ele>363</ele>
        <time>2020-10-21T10:52:44Z</time>
      </trkpt>
      <trkpt lat="43.38683" lon="5.51114">
        <ele>364</ele>
        <time>2020-10-21T10:52:52Z</time>
      </trkpt>
      <trkpt lat="43.38686" lon="5.51119">
        <ele>365</ele>
        <time>2020-10-21T10:52:58Z</time>
      </trkpt>
      <trkpt lat="43.38689" lon="5.51125">
        <ele>365</ele>
        <time>2020-10-21T10:53:06Z</time>
      </trkpt>
      <trkpt lat="43.38692" lon="5.5113">
        <ele>366</ele>
        <time>2020-10-21T10:53:14Z</time>
      </trkpt>
      <trkpt lat="43.38695" lon="5.51135">
        <ele>366</ele>
        <time>2020-10-21T10:53:22Z</time>
      </trkpt>
      <trkpt lat="43.38697" lon="5.51141">
        <ele>367</ele>
        <time>2020-10-21T10:53:32Z</time>
      </trkpt>
      <trkpt lat="43.38698" lon="5.51148">
        <ele>367</ele>
        <time>2020-10-21T10:54:22Z</time>
      </trkpt>
      <trkpt lat="43.38699" lon="5.51154">
        <ele>368</ele>
        <time>2020-10-21T10:54:32Z</time>
      </trkpt>
      <trkpt lat="43.38701" lon="5.5116">
        <ele>368</ele>
        <time>2020-10-21T10:56:00Z</time>
      </trkpt>
      <trkpt lat="43.38707" lon="5.5116">
        <ele>369</ele>
        <time>2020-10-21T10:56:30Z</time>
      </trkpt>
      <trkpt lat="43.38712" lon="5.5116">
        <ele>370</ele>
        <time>2020-10-21T10:56:42Z</time>
      </trkpt>
      <trkpt lat="43.38718" lon="5.51159">
        <ele>371</ele>
        <time>2020-10-21T10:56:50Z</time>
      </trkpt>
      <trkpt lat="43.38722" lon="5.51159">
        <ele>372</ele>
        <time>2020-10-21T10:56:58Z</time>
      </trkpt>
      <trkpt lat="43.38727" lon="5.5116">
        <ele>374</ele>
        <time>2020-10-21T10:57:10Z</time>
      </trkpt>
      <trkpt lat="43.3873" lon="5.51166">
        <ele>375</ele>
        <time>2020-10-21T10:57:22Z</time>
      </trkpt>
      <trkpt lat="43.38731" lon="5.51173">
        <ele>381</ele>
        <time>2020-10-21T10:57:32Z</time>
      </trkpt>
      <trkpt lat="43.38733" lon="5.51179">
        <ele>381</ele>
        <time>2020-10-21T10:57:46Z</time>
      </trkpt>
      <trkpt lat="43.38733" lon="5.51186">
        <ele>381</ele>
        <time>2020-10-21T10:57:58Z</time>
      </trkpt>
      <trkpt lat="43.38734" lon="5.51193">
        <ele>381</ele>
        <time>2020-10-21T10:58:10Z</time>
      </trkpt>
      <trkpt lat="43.38737" lon="5.51198">
        <ele>381</ele>
        <time>2020-10-21T10:58:20Z</time>
      </trkpt>
      <trkpt lat="43.3874" lon="5.51203">
        <ele>382</ele>
        <time>2020-10-21T10:58:30Z</time>
      </trkpt>
      <trkpt lat="43.3874" lon="5.51209">
        <ele>382</ele>
        <time>2020-10-21T10:58:38Z</time>
      </trkpt>
      <trkpt lat="43.38742" lon="5.51216">
        <ele>383</ele>
        <time>2020-10-21T10:58:46Z</time>
      </trkpt>
      <trkpt lat="43.38743" lon="5.51223">
        <ele>384</ele>
        <time>2020-10-21T10:58:54Z</time>
      </trkpt>
      <trkpt lat="43.38742" lon="5.5123">
        <ele>386</ele>
        <time>2020-10-21T10:59:02Z</time>
      </trkpt>
      <trkpt lat="43.38744" lon="5.51236">
        <ele>388</ele>
        <time>2020-10-21T10:59:10Z</time>
      </trkpt>
      <trkpt lat="43.38747" lon="5.51241">
        <ele>391</ele>
        <time>2020-10-21T10:59:16Z</time>
      </trkpt>
      <trkpt lat="43.38752" lon="5.51244">
        <ele>398</ele>
        <time>2020-10-21T10:59:22Z</time>
      </trkpt>
      <trkpt lat="43.38756" lon="5.51247">
        <ele>398</ele>
        <time>2020-10-21T10:59:28Z</time>
      </trkpt>
      <trkpt lat="43.38759" lon="5.51251">
        <ele>401</ele>
        <time>2020-10-21T10:59:36Z</time>
      </trkpt>
      <trkpt lat="43.38763" lon="5.51256">
        <ele>402</ele>
        <time>2020-10-21T10:59:46Z</time>
      </trkpt>
      <trkpt lat="43.38767" lon="5.51262">
        <ele>404</ele>
        <time>2020-10-21T11:00:00Z</time>
      </trkpt>
      <trkpt lat="43.3877" lon="5.51266">
        <ele>405</ele>
        <time>2020-10-21T11:00:16Z</time>
      </trkpt>
      <trkpt lat="43.38775" lon="5.51271">
        <ele>406</ele>
        <time>2020-10-21T11:03:04Z</time>
      </trkpt>
      <trkpt lat="43.38773" lon="5.51265">
        <ele>405</ele>
        <time>2020-10-21T11:03:54Z</time>
      </trkpt>
      <trkpt lat="43.38776" lon="5.51259">
        <ele>406</ele>
        <time>2020-10-21T11:05:58Z</time>
      </trkpt>
      <trkpt lat="43.38778" lon="5.51253">
        <ele>406</ele>
        <time>2020-10-21T11:06:06Z</time>
      </trkpt>
      <trkpt lat="43.3878" lon="5.51246">
        <ele>401</ele>
        <time>2020-10-21T11:06:16Z</time>
      </trkpt>
      <trkpt lat="43.38785" lon="5.51246">
        <ele>402</ele>
        <time>2020-10-21T11:06:28Z</time>
      </trkpt>
      <trkpt lat="43.38789" lon="5.51246">
        <ele>403</ele>
        <time>2020-10-21T11:06:34Z</time>
      </trkpt>
      <trkpt lat="43.38794" lon="5.51246">
        <ele>404</ele>
        <time>2020-10-21T11:06:44Z</time>
      </trkpt>
      <trkpt lat="43.38799" lon="5.5125">
        <ele>405</ele>
        <time>2020-10-21T11:06:54Z</time>
      </trkpt>
      <trkpt lat="43.38803" lon="5.51255">
        <ele>411</ele>
        <time>2020-10-21T11:07:06Z</time>
      </trkpt>
      <trkpt lat="43.38807" lon="5.5126">
        <ele>412</ele>
        <time>2020-10-21T11:07:20Z</time>
      </trkpt>
      <trkpt lat="43.3881" lon="5.51266">
        <ele>412</ele>
        <time>2020-10-21T11:07:32Z</time>
      </trkpt>
      <trkpt lat="43.38815" lon="5.5127">
        <ele>412</ele>
        <time>2020-10-21T11:07:40Z</time>
      </trkpt>
      <trkpt lat="43.38818" lon="5.51276">
        <ele>413</ele>
        <time>2020-10-21T11:07:48Z</time>
      </trkpt>
      <trkpt lat="43.38822" lon="5.51282">
        <ele>413</ele>
        <time>2020-10-21T11:08:00Z</time>
      </trkpt>
      <trkpt lat="43.38824" lon="5.51288">
        <ele>413</ele>
        <time>2020-10-21T11:08:08Z</time>
      </trkpt>
      <trkpt lat="43.38829" lon="5.51285">
        <ele>413</ele>
        <time>2020-10-21T11:08:18Z</time>
      </trkpt>
      <trkpt lat="43.38834" lon="5.51284">
        <ele>425</ele>
        <time>2020-10-21T11:08:26Z</time>
      </trkpt>
      <trkpt lat="43.38839" lon="5.51284">
        <ele>425</ele>
        <time>2020-10-21T11:08:32Z</time>
      </trkpt>
      <trkpt lat="43.38844" lon="5.51283">
        <ele>425</ele>
        <time>2020-10-21T11:08:40Z</time>
      </trkpt>
      <trkpt lat="43.38849" lon="5.51285">
        <ele>426</ele>
        <time>2020-10-21T11:08:50Z</time>
      </trkpt>
      <trkpt lat="43.38854" lon="5.51287">
        <ele>426</ele>
        <time>2020-10-21T11:08:58Z</time>
      </trkpt>
      <trkpt lat="43.38859" lon="5.51286">
        <ele>427</ele>
        <time>2020-10-21T11:09:06Z</time>
      </trkpt>
      <trkpt lat="43.38864" lon="5.51285">
        <ele>427</ele>
        <time>2020-10-21T11:09:12Z</time>
      </trkpt>
      <trkpt lat="43.38869" lon="5.51283">
        <ele>428</ele>
        <time>2020-10-21T11:09:20Z</time>
      </trkpt>
      <trkpt lat="43.38874" lon="5.51282">
        <ele>428</ele>
        <time>2020-10-21T11:09:28Z</time>
      </trkpt>
      <trkpt lat="43.3888" lon="5.51279">
        <ele>429</ele>
        <time>2020-10-21T11:09:36Z</time>
      </trkpt>
      <trkpt lat="43.38884" lon="5.51276">
        <ele>429</ele>
        <time>2020-10-21T11:09:42Z</time>
      </trkpt>
      <trkpt lat="43.38889" lon="5.51273">
        <ele>430</ele>
        <time>2020-10-21T11:09:50Z</time>
      </trkpt>
      <trkpt lat="43.38895" lon="5.51271">
        <ele>430</ele>
        <time>2020-10-21T11:09:58Z</time>
      </trkpt>
      <trkpt lat="43.389" lon="5.51271">
        <ele>431</ele>
        <time>2020-10-21T11:10:04Z</time>
      </trkpt>
      <trkpt lat="43.38905" lon="5.5127">
        <ele>432</ele>
        <time>2020-10-21T11:10:12Z</time>
      </trkpt>
      <trkpt lat="43.3891" lon="5.51268">
        <ele>432</ele>
        <time>2020-10-21T11:10:20Z</time>
      </trkpt>
      <trkpt lat="43.38915" lon="5.51267">
        <ele>433</ele>
        <time>2020-10-21T11:10:26Z</time>
      </trkpt>
      <trkpt lat="43.3892" lon="5.5127">
        <ele>441</ele>
        <time>2020-10-21T11:10:34Z</time>
      </trkpt>
      <trkpt lat="43.38925" lon="5.51272">
        <ele>442</ele>
        <time>2020-10-21T11:10:42Z</time>
      </trkpt>
      <trkpt lat="43.38931" lon="5.51272">
        <ele>443</ele>
        <time>2020-10-21T11:10:52Z</time>
      </trkpt>
      <trkpt lat="43.38936" lon="5.51274">
        <ele>443</ele>
        <time>2020-10-21T11:11:00Z</time>
      </trkpt>
      <trkpt lat="43.38941" lon="5.51276">
        <ele>444</ele>
        <time>2020-10-21T11:11:08Z</time>
      </trkpt>
      <trkpt lat="43.38946" lon="5.51276">
        <ele>445</ele>
        <time>2020-10-21T11:11:18Z</time>
      </trkpt>
      <trkpt lat="43.38951" lon="5.51276">
        <ele>445</ele>
        <time>2020-10-21T11:11:28Z</time>
      </trkpt>
      <trkpt lat="43.38956" lon="5.51277">
        <ele>446</ele>
        <time>2020-10-21T11:11:36Z</time>
      </trkpt>
      <trkpt lat="43.38961" lon="5.51277">
        <ele>447</ele>
        <time>2020-10-21T11:11:50Z</time>
      </trkpt>
      <trkpt lat="43.38965" lon="5.51279">
        <ele>447</ele>
        <time>2020-10-21T11:12:00Z</time>
      </trkpt>
      <trkpt lat="43.38968" lon="5.51285">
        <ele>448</ele>
        <time>2020-10-21T11:12:08Z</time>
      </trkpt>
      <trkpt lat="43.38972" lon="5.51288">
        <ele>448</ele>
        <time>2020-10-21T11:13:56Z</time>
      </trkpt>
      <trkpt lat="43.38976" lon="5.51293">
        <ele>449</ele>
        <time>2020-10-21T11:16:48Z</time>
      </trkpt>
      <trkpt lat="43.38979" lon="5.51299">
        <ele>450</ele>
        <time>2020-10-21T11:16:54Z</time>
      </trkpt>
      <trkpt lat="43.38983" lon="5.51304">
        <ele>451</ele>
        <time>2020-10-21T11:17:02Z</time>
      </trkpt>
      <trkpt lat="43.38986" lon="5.51309">
        <ele>452</ele>
        <time>2020-10-21T11:17:10Z</time>
      </trkpt>
      <trkpt lat="43.38989" lon="5.51314">
        <ele>453</ele>
        <time>2020-10-21T11:17:18Z</time>
      </trkpt>
      <trkpt lat="43.38991" lon="5.5132">
        <ele>455</ele>
        <time>2020-10-21T11:17:28Z</time>
      </trkpt>
      <trkpt lat="43.38994" lon="5.51327">
        <ele>458</ele>
        <time>2020-10-21T11:17:40Z</time>
      </trkpt>
      <trkpt lat="43.38998" lon="5.51333">
        <ele>462</ele>
        <time>2020-10-21T11:17:46Z</time>
      </trkpt>
      <trkpt lat="43.39001" lon="5.5134">
        <ele>464</ele>
        <time>2020-10-21T11:17:52Z</time>
      </trkpt>
      <trkpt lat="43.39003" lon="5.51347">
        <ele>464</ele>
        <time>2020-10-21T11:18:00Z</time>
      </trkpt>
      <trkpt lat="43.39004" lon="5.51355">
        <ele>465</ele>
        <time>2020-10-21T11:18:08Z</time>
      </trkpt>
      <trkpt lat="43.39006" lon="5.51363">
        <ele>465</ele>
        <time>2020-10-21T11:18:16Z</time>
      </trkpt>
      <trkpt lat="43.39008" lon="5.51369">
        <ele>465</ele>
        <time>2020-10-21T11:18:22Z</time>
      </trkpt>
      <trkpt lat="43.39009" lon="5.51376">
        <ele>466</ele>
        <time>2020-10-21T11:18:30Z</time>
      </trkpt>
      <trkpt lat="43.39011" lon="5.51382">
        <ele>466</ele>
        <time>2020-10-21T11:18:34Z</time>
      </trkpt>
      <trkpt lat="43.39012" lon="5.51388">
        <ele>466</ele>
        <time>2020-10-21T11:18:40Z</time>
      </trkpt>
      <trkpt lat="43.39013" lon="5.51395">
        <ele>466</ele>
        <time>2020-10-21T11:18:46Z</time>
      </trkpt>
      <trkpt lat="43.39015" lon="5.51402">
        <ele>466</ele>
        <time>2020-10-21T11:18:52Z</time>
      </trkpt>
      <trkpt lat="43.39018" lon="5.51408">
        <ele>466</ele>
        <time>2020-10-21T11:18:58Z</time>
      </trkpt>
      <trkpt lat="43.3902" lon="5.51416">
        <ele>466</ele>
        <time>2020-10-21T11:19:04Z</time>
      </trkpt>
      <trkpt lat="43.39021" lon="5.51424">
        <ele>467</ele>
        <time>2020-10-21T11:19:10Z</time>
      </trkpt>
      <trkpt lat="43.39022" lon="5.51432">
        <ele>467</ele>
        <time>2020-10-21T11:19:16Z</time>
      </trkpt>
      <trkpt lat="43.39021" lon="5.5144">
        <ele>468</ele>
        <time>2020-10-21T11:19:22Z</time>
      </trkpt>
      <trkpt lat="43.39021" lon="5.51447">
        <ele>468</ele>
        <time>2020-10-21T11:19:28Z</time>
      </trkpt>
      <trkpt lat="43.39023" lon="5.51454">
        <ele>468</ele>
        <time>2020-10-21T11:19:34Z</time>
      </trkpt>
      <trkpt lat="43.39026" lon="5.51461">
        <ele>468</ele>
        <time>2020-10-21T11:19:40Z</time>
      </trkpt>
      <trkpt lat="43.39029" lon="5.51467">
        <ele>468</ele>
        <time>2020-10-21T11:19:46Z</time>
      </trkpt>
      <trkpt lat="43.39031" lon="5.51474">
        <ele>468</ele>
        <time>2020-10-21T11:19:52Z</time>
      </trkpt>
      <trkpt lat="43.39034" lon="5.51479">
        <ele>468</ele>
        <time>2020-10-21T11:19:58Z</time>
      </trkpt>
      <trkpt lat="43.39037" lon="5.51487">
        <ele>468</ele>
        <time>2020-10-21T11:20:04Z</time>
      </trkpt>
      <trkpt lat="43.39041" lon="5.51494">
        <ele>469</ele>
        <time>2020-10-21T11:20:10Z</time>
      </trkpt>
      <trkpt lat="43.39045" lon="5.51502">
        <ele>468</ele>
        <time>2020-10-21T11:20:16Z</time>
      </trkpt>
      <trkpt lat="43.39048" lon="5.51508">
        <ele>468</ele>
        <time>2020-10-21T11:20:22Z</time>
      </trkpt>
      <trkpt lat="43.3905" lon="5.51514">
        <ele>468</ele>
        <time>2020-10-21T11:20:28Z</time>
      </trkpt>
      <trkpt lat="43.39052" lon="5.51523">
        <ele>468</ele>
        <time>2020-10-21T11:20:36Z</time>
      </trkpt>
      <trkpt lat="43.39054" lon="5.5153">
        <ele>468</ele>
        <time>2020-10-21T11:20:42Z</time>
      </trkpt>
      <trkpt lat="43.39056" lon="5.51538">
        <ele>468</ele>
        <time>2020-10-21T11:20:48Z</time>
      </trkpt>
      <trkpt lat="43.39059" lon="5.51546">
        <ele>468</ele>
        <time>2020-10-21T11:20:54Z</time>
      </trkpt>
      <trkpt lat="43.39062" lon="5.51554">
        <ele>468</ele>
        <time>2020-10-21T11:21:00Z</time>
      </trkpt>
      <trkpt lat="43.39063" lon="5.51561">
        <ele>468</ele>
        <time>2020-10-21T11:21:06Z</time>
      </trkpt>
      <trkpt lat="43.39064" lon="5.51569">
        <ele>469</ele>
        <time>2020-10-21T11:21:12Z</time>
      </trkpt>
      <trkpt lat="43.39064" lon="5.51575">
        <ele>469</ele>
        <time>2020-10-21T11:21:18Z</time>
      </trkpt>
      <trkpt lat="43.39066" lon="5.51582">
        <ele>469</ele>
        <time>2020-10-21T11:21:24Z</time>
      </trkpt>
      <trkpt lat="43.39068" lon="5.51589">
        <ele>470</ele>
        <time>2020-10-21T11:21:30Z</time>
      </trkpt>
      <trkpt lat="43.3907" lon="5.51595">
        <ele>470</ele>
        <time>2020-10-21T11:21:36Z</time>
      </trkpt>
      <trkpt lat="43.39074" lon="5.51601">
        <ele>470</ele>
        <time>2020-10-21T11:21:42Z</time>
      </trkpt>
      <trkpt lat="43.39076" lon="5.51607">
        <ele>470</ele>
        <time>2020-10-21T11:21:48Z</time>
      </trkpt>
      <trkpt lat="43.39078" lon="5.51613">
        <ele>471</ele>
        <time>2020-10-21T11:21:54Z</time>
      </trkpt>
      <trkpt lat="43.39081" lon="5.5162">
        <ele>471</ele>
        <time>2020-10-21T11:22:00Z</time>
      </trkpt>
      <trkpt lat="43.39084" lon="5.51627">
        <ele>472</ele>
        <time>2020-10-21T11:22:06Z</time>
      </trkpt>
      <trkpt lat="43.39086" lon="5.51633">
        <ele>473</ele>
        <time>2020-10-21T11:22:10Z</time>
      </trkpt>
      <trkpt lat="43.39088" lon="5.5164">
        <ele>473</ele>
        <time>2020-10-21T11:22:16Z</time>
      </trkpt>
      <trkpt lat="43.3909" lon="5.51649">
        <ele>475</ele>
        <time>2020-10-21T11:22:22Z</time>
      </trkpt>
      <trkpt lat="43.39092" lon="5.51656">
        <ele>476</ele>
        <time>2020-10-21T11:22:28Z</time>
      </trkpt>
      <trkpt lat="43.39093" lon="5.51663">
        <ele>476</ele>
        <time>2020-10-21T11:22:34Z</time>
      </trkpt>
      <trkpt lat="43.39095" lon="5.51671">
        <ele>479</ele>
        <time>2020-10-21T11:22:40Z</time>
      </trkpt>
      <trkpt lat="43.39096" lon="5.51679">
        <ele>479</ele>
        <time>2020-10-21T11:22:46Z</time>
      </trkpt>
      <trkpt lat="43.39097" lon="5.51687">
        <ele>478</ele>
        <time>2020-10-21T11:22:52Z</time>
      </trkpt>
      <trkpt lat="43.39099" lon="5.51694">
        <ele>478</ele>
        <time>2020-10-21T11:22:58Z</time>
      </trkpt>
      <trkpt lat="43.391" lon="5.517">
        <ele>478</ele>
        <time>2020-10-21T11:23:04Z</time>
      </trkpt>
      <trkpt lat="43.39102" lon="5.51707">
        <ele>478</ele>
        <time>2020-10-21T11:23:10Z</time>
      </trkpt>
      <trkpt lat="43.39104" lon="5.51713">
        <ele>479</ele>
        <time>2020-10-21T11:23:14Z</time>
      </trkpt>
      <trkpt lat="43.39107" lon="5.5172">
        <ele>479</ele>
        <time>2020-10-21T11:23:18Z</time>
      </trkpt>
      <trkpt lat="43.39109" lon="5.51727">
        <ele>479</ele>
        <time>2020-10-21T11:23:22Z</time>
      </trkpt>
      <trkpt lat="43.39112" lon="5.51732">
        <ele>479</ele>
        <time>2020-10-21T11:23:26Z</time>
      </trkpt>
      <trkpt lat="43.39115" lon="5.51739">
        <ele>479</ele>
        <time>2020-10-21T11:23:32Z</time>
      </trkpt>
      <trkpt lat="43.39119" lon="5.51745">
        <ele>479</ele>
        <time>2020-10-21T11:23:38Z</time>
      </trkpt>
      <trkpt lat="43.39122" lon="5.51752">
        <ele>480</ele>
        <time>2020-10-21T11:23:44Z</time>
      </trkpt>
      <trkpt lat="43.39126" lon="5.51759">
        <ele>480</ele>
        <time>2020-10-21T11:23:50Z</time>
      </trkpt>
      <trkpt lat="43.39129" lon="5.51764">
        <ele>480</ele>
        <time>2020-10-21T11:23:56Z</time>
      </trkpt>
      <trkpt lat="43.39132" lon="5.51769">
        <ele>480</ele>
        <time>2020-10-21T11:24:02Z</time>
      </trkpt>
      <trkpt lat="43.39137" lon="5.51775">
        <ele>481</ele>
        <time>2020-10-21T11:24:10Z</time>
      </trkpt>
      <trkpt lat="43.39143" lon="5.51778">
        <ele>481</ele>
        <time>2020-10-21T11:24:16Z</time>
      </trkpt>
      <trkpt lat="43.39148" lon="5.51781">
        <ele>481</ele>
        <time>2020-10-21T11:24:22Z</time>
      </trkpt>
      <trkpt lat="43.39153" lon="5.51784">
        <ele>481</ele>
        <time>2020-10-21T11:24:28Z</time>
      </trkpt>
      <trkpt lat="43.39157" lon="5.51788">
        <ele>482</ele>
        <time>2020-10-21T11:24:34Z</time>
      </trkpt>
      <trkpt lat="43.39161" lon="5.51793">
        <ele>482</ele>
        <time>2020-10-21T11:24:40Z</time>
      </trkpt>
      <trkpt lat="43.39165" lon="5.51799">
        <ele>482</ele>
        <time>2020-10-21T11:24:48Z</time>
      </trkpt>
      <trkpt lat="43.39168" lon="5.51804">
        <ele>489</ele>
        <time>2020-10-21T11:24:54Z</time>
      </trkpt>
      <trkpt lat="43.39172" lon="5.51809">
        <ele>489</ele>
        <time>2020-10-21T11:25:02Z</time>
      </trkpt>
      <trkpt lat="43.39175" lon="5.51815">
        <ele>489</ele>
        <time>2020-10-21T11:25:10Z</time>
      </trkpt>
      <trkpt lat="43.39177" lon="5.51821">
        <ele>489</ele>
        <time>2020-10-21T11:25:18Z</time>
      </trkpt>
      <trkpt lat="43.39179" lon="5.51829">
        <ele>489</ele>
        <time>2020-10-21T11:25:28Z</time>
      </trkpt>
      <trkpt lat="43.39181" lon="5.51834">
        <ele>488</ele>
        <time>2020-10-21T11:25:34Z</time>
      </trkpt>
      <trkpt lat="43.39183" lon="5.51841">
        <ele>487</ele>
        <time>2020-10-21T11:25:40Z</time>
      </trkpt>
      <trkpt lat="43.39187" lon="5.51845">
        <ele>487</ele>
        <time>2020-10-21T11:25:46Z</time>
      </trkpt>
      <trkpt lat="43.39192" lon="5.5185">
        <ele>487</ele>
        <time>2020-10-21T11:25:54Z</time>
      </trkpt>
      <trkpt lat="43.39196" lon="5.51853">
        <ele>487</ele>
        <time>2020-10-21T11:26:00Z</time>
      </trkpt>
      <trkpt lat="43.39201" lon="5.51856">
        <ele>487</ele>
        <time>2020-10-21T11:26:06Z</time>
      </trkpt>
      <trkpt lat="43.39207" lon="5.51859">
        <ele>487</ele>
        <time>2020-10-21T11:26:14Z</time>
      </trkpt>
      <trkpt lat="43.39212" lon="5.51861">
        <ele>487</ele>
        <time>2020-10-21T11:26:20Z</time>
      </trkpt>
      <trkpt lat="43.39218" lon="5.51862">
        <ele>488</ele>
        <time>2020-10-21T11:26:26Z</time>
      </trkpt>
      <trkpt lat="43.39223" lon="5.51862">
        <ele>488</ele>
        <time>2020-10-21T11:26:32Z</time>
      </trkpt>
      <trkpt lat="43.39228" lon="5.5186">
        <ele>489</ele>
        <time>2020-10-21T11:26:38Z</time>
      </trkpt>
      <trkpt lat="43.39232" lon="5.51856">
        <ele>489</ele>
        <time>2020-10-21T11:26:44Z</time>
      </trkpt>
      <trkpt lat="43.39236" lon="5.51851">
        <ele>490</ele>
        <time>2020-10-21T11:26:52Z</time>
      </trkpt>
      <trkpt lat="43.39241" lon="5.51848">
        <ele>492</ele>
        <time>2020-10-21T11:27:00Z</time>
      </trkpt>
      <trkpt lat="43.39246" lon="5.51844">
        <ele>493</ele>
        <time>2020-10-21T11:27:06Z</time>
      </trkpt>
      <trkpt lat="43.39251" lon="5.51842">
        <ele>497</ele>
        <time>2020-10-21T11:27:12Z</time>
      </trkpt>
      <trkpt lat="43.39257" lon="5.51842">
        <ele>497</ele>
        <time>2020-10-21T11:27:22Z</time>
      </trkpt>
      <trkpt lat="43.39261" lon="5.51837">
        <ele>498</ele>
        <time>2020-10-21T11:28:28Z</time>
      </trkpt>
      <trkpt lat="43.39259" lon="5.51831">
        <ele>497</ele>
        <time>2020-10-21T11:33:56Z</time>
      </trkpt>
      <trkpt lat="43.39261" lon="5.51825">
        <ele>497</ele>
        <time>2020-10-21T11:34:18Z</time>
      </trkpt>
      <trkpt lat="43.3926" lon="5.51819">
        <ele>497</ele>
        <time>2020-10-21T11:34:44Z</time>
      </trkpt>
      <trkpt lat="43.39259" lon="5.51825">
        <ele>497</ele>
        <time>2020-10-21T12:35:58Z</time>
      </trkpt>
      <trkpt lat="43.39259" lon="5.51833">
        <ele>497</ele>
        <time>2020-10-21T12:37:16Z</time>
      </trkpt>
      <trkpt lat="43.39261" lon="5.51839">
        <ele>498</ele>
        <time>2020-10-21T12:37:54Z</time>
      </trkpt>
      <trkpt lat="43.39266" lon="5.51842">
        <ele>498</ele>
        <time>2020-10-21T12:38:04Z</time>
      </trkpt>
      <trkpt lat="43.3927" lon="5.51847">
        <ele>498</ele>
        <time>2020-10-21T12:38:12Z</time>
      </trkpt>
      <trkpt lat="43.39276" lon="5.51849">
        <ele>498</ele>
        <time>2020-10-21T12:38:24Z</time>
      </trkpt>
      <trkpt lat="43.39281" lon="5.5185">
        <ele>499</ele>
        <time>2020-10-21T12:38:32Z</time>
      </trkpt>
      <trkpt lat="43.39287" lon="5.51851">
        <ele>499</ele>
        <time>2020-10-21T12:38:38Z</time>
      </trkpt>
      <trkpt lat="43.39292" lon="5.5185">
        <ele>500</ele>
        <time>2020-10-21T12:38:48Z</time>
      </trkpt>
      <trkpt lat="43.39298" lon="5.51849">
        <ele>500</ele>
        <time>2020-10-21T12:38:54Z</time>
      </trkpt>
      <trkpt lat="43.39303" lon="5.51849">
        <ele>501</ele>
        <time>2020-10-21T12:39:00Z</time>
      </trkpt>
      <trkpt lat="43.39308" lon="5.51848">
        <ele>501</ele>
        <time>2020-10-21T12:39:06Z</time>
      </trkpt>
      <trkpt lat="43.39314" lon="5.51848">
        <ele>502</ele>
        <time>2020-10-21T12:39:14Z</time>
      </trkpt>
      <trkpt lat="43.3932" lon="5.51848">
        <ele>503</ele>
        <time>2020-10-21T12:39:22Z</time>
      </trkpt>
      <trkpt lat="43.39325" lon="5.51846">
        <ele>504</ele>
        <time>2020-10-21T12:39:30Z</time>
      </trkpt>
      <trkpt lat="43.3933" lon="5.51844">
        <ele>505</ele>
        <time>2020-10-21T12:39:38Z</time>
      </trkpt>
      <trkpt lat="43.39336" lon="5.51844">
        <ele>509</ele>
        <time>2020-10-21T12:39:48Z</time>
      </trkpt>
      <trkpt lat="43.39341" lon="5.51843">
        <ele>509</ele>
        <time>2020-10-21T12:40:00Z</time>
      </trkpt>
      <trkpt lat="43.39347" lon="5.51842">
        <ele>509</ele>
        <time>2020-10-21T12:40:08Z</time>
      </trkpt>
      <trkpt lat="43.39352" lon="5.51842">
        <ele>509</ele>
        <time>2020-10-21T12:40:14Z</time>
      </trkpt>
      <trkpt lat="43.39357" lon="5.51841">
        <ele>510</ele>
        <time>2020-10-21T12:40:20Z</time>
      </trkpt>
      <trkpt lat="43.39362" lon="5.5184">
        <ele>510</ele>
        <time>2020-10-21T12:40:26Z</time>
      </trkpt>
      <trkpt lat="43.39367" lon="5.51839">
        <ele>510</ele>
        <time>2020-10-21T12:40:32Z</time>
      </trkpt>
      <trkpt lat="43.39372" lon="5.51838">
        <ele>511</ele>
        <time>2020-10-21T12:40:38Z</time>
      </trkpt>
      <trkpt lat="43.39377" lon="5.51837">
        <ele>511</ele>
        <time>2020-10-21T12:40:44Z</time>
      </trkpt>
      <trkpt lat="43.39382" lon="5.51835">
        <ele>512</ele>
        <time>2020-10-21T12:40:50Z</time>
      </trkpt>
      <trkpt lat="43.39386" lon="5.51834">
        <ele>513</ele>
        <time>2020-10-21T12:40:56Z</time>
      </trkpt>
      <trkpt lat="43.39392" lon="5.51833">
        <ele>513</ele>
        <time>2020-10-21T12:41:06Z</time>
      </trkpt>
      <trkpt lat="43.39396" lon="5.51832">
        <ele>513</ele>
        <time>2020-10-21T12:41:14Z</time>
      </trkpt>
      <trkpt lat="43.39401" lon="5.51831">
        <ele>515</ele>
        <time>2020-10-21T12:41:22Z</time>
      </trkpt>
      <trkpt lat="43.39406" lon="5.51831">
        <ele>516</ele>
        <time>2020-10-21T12:41:30Z</time>
      </trkpt>
      <trkpt lat="43.39412" lon="5.51831">
        <ele>518</ele>
        <time>2020-10-21T12:41:38Z</time>
      </trkpt>
      <trkpt lat="43.39417" lon="5.5183">
        <ele>518</ele>
        <time>2020-10-21T12:41:44Z</time>
      </trkpt>
      <trkpt lat="43.39421" lon="5.51831">
        <ele>520</ele>
        <time>2020-10-21T12:41:52Z</time>
      </trkpt>
      <trkpt lat="43.39426" lon="5.5183">
        <ele>520</ele>
        <time>2020-10-21T12:42:00Z</time>
      </trkpt>
      <trkpt lat="43.39432" lon="5.51829">
        <ele>520</ele>
        <time>2020-10-21T12:42:08Z</time>
      </trkpt>
      <trkpt lat="43.39436" lon="5.51826">
        <ele>520</ele>
        <time>2020-10-21T12:42:20Z</time>
      </trkpt>
      <trkpt lat="43.39441" lon="5.51824">
        <ele>520</ele>
        <time>2020-10-21T12:42:28Z</time>
      </trkpt>
      <trkpt lat="43.39446" lon="5.51822">
        <ele>520</ele>
        <time>2020-10-21T12:42:36Z</time>
      </trkpt>
      <trkpt lat="43.39451" lon="5.51819">
        <ele>520</ele>
        <time>2020-10-21T12:42:42Z</time>
      </trkpt>
      <trkpt lat="43.39457" lon="5.51817">
        <ele>520</ele>
        <time>2020-10-21T12:42:48Z</time>
      </trkpt>
      <trkpt lat="43.39462" lon="5.51817">
        <ele>521</ele>
        <time>2020-10-21T12:42:54Z</time>
      </trkpt>
      <trkpt lat="43.39468" lon="5.51817">
        <ele>521</ele>
        <time>2020-10-21T12:43:00Z</time>
      </trkpt>
      <trkpt lat="43.39474" lon="5.51817">
        <ele>522</ele>
        <time>2020-10-21T12:43:06Z</time>
      </trkpt>
      <trkpt lat="43.39479" lon="5.51816">
        <ele>522</ele>
        <time>2020-10-21T12:43:12Z</time>
      </trkpt>
      <trkpt lat="43.39485" lon="5.51816">
        <ele>523</ele>
        <time>2020-10-21T12:43:18Z</time>
      </trkpt>
      <trkpt lat="43.39491" lon="5.51816">
        <ele>523</ele>
        <time>2020-10-21T12:43:24Z</time>
      </trkpt>
      <trkpt lat="43.39496" lon="5.51816">
        <ele>524</ele>
        <time>2020-10-21T12:43:30Z</time>
      </trkpt>
      <trkpt lat="43.39501" lon="5.51817">
        <ele>526</ele>
        <time>2020-10-21T12:43:36Z</time>
      </trkpt>
      <trkpt lat="43.39506" lon="5.51818">
        <ele>526</ele>
        <time>2020-10-21T12:43:42Z</time>
      </trkpt>
      <trkpt lat="43.39512" lon="5.51819">
        <ele>526</ele>
        <time>2020-10-21T12:43:50Z</time>
      </trkpt>
      <trkpt lat="43.39517" lon="5.51819">
        <ele>525</ele>
        <time>2020-10-21T12:43:58Z</time>
      </trkpt>
      <trkpt lat="43.39522" lon="5.51817">
        <ele>525</ele>
        <time>2020-10-21T12:44:04Z</time>
      </trkpt>
      <trkpt lat="43.39527" lon="5.51814">
        <ele>525</ele>
        <time>2020-10-21T12:44:12Z</time>
      </trkpt>
      <trkpt lat="43.39532" lon="5.51811">
        <ele>524</ele>
        <time>2020-10-21T12:44:18Z</time>
      </trkpt>
      <trkpt lat="43.39538" lon="5.51809">
        <ele>524</ele>
        <time>2020-10-21T12:44:26Z</time>
      </trkpt>
      <trkpt lat="43.39543" lon="5.51805">
        <ele>524</ele>
        <time>2020-10-21T12:44:32Z</time>
      </trkpt>
      <trkpt lat="43.39548" lon="5.518">
        <ele>524</ele>
        <time>2020-10-21T12:44:38Z</time>
      </trkpt>
      <trkpt lat="43.39552" lon="5.51794">
        <ele>524</ele>
        <time>2020-10-21T12:44:44Z</time>
      </trkpt>
      <trkpt lat="43.39558" lon="5.51791">
        <ele>524</ele>
        <time>2020-10-21T12:44:50Z</time>
      </trkpt>
      <trkpt lat="43.39561" lon="5.51787">
        <ele>524</ele>
        <time>2020-10-21T12:44:54Z</time>
      </trkpt>
      <trkpt lat="43.39566" lon="5.51781">
        <ele>524</ele>
        <time>2020-10-21T12:45:00Z</time>
      </trkpt>
      <trkpt lat="43.39571" lon="5.51776">
        <ele>524</ele>
        <time>2020-10-21T12:45:06Z</time>
      </trkpt>
      <trkpt lat="43.39577" lon="5.51772">
        <ele>524</ele>
        <time>2020-10-21T12:45:12Z</time>
      </trkpt>
      <trkpt lat="43.39584" lon="5.51768">
        <ele>525</ele>
        <time>2020-10-21T12:45:18Z</time>
      </trkpt>
      <trkpt lat="43.39589" lon="5.51766">
        <ele>525</ele>
        <time>2020-10-21T12:45:24Z</time>
      </trkpt>
      <trkpt lat="43.39593" lon="5.51762">
        <ele>525</ele>
        <time>2020-10-21T12:45:28Z</time>
      </trkpt>
      <trkpt lat="43.39597" lon="5.5176">
        <ele>525</ele>
        <time>2020-10-21T12:45:34Z</time>
      </trkpt>
      <trkpt lat="43.39601" lon="5.51757">
        <ele>525</ele>
        <time>2020-10-21T12:45:40Z</time>
      </trkpt>
      <trkpt lat="43.39606" lon="5.51756">
        <ele>525</ele>
        <time>2020-10-21T12:45:46Z</time>
      </trkpt>
      <trkpt lat="43.3961" lon="5.51754">
        <ele>526</ele>
        <time>2020-10-21T12:45:52Z</time>
      </trkpt>
      <trkpt lat="43.39615" lon="5.51752">
        <ele>526</ele>
        <time>2020-10-21T12:45:58Z</time>
      </trkpt>
      <trkpt lat="43.39621" lon="5.51753">
        <ele>526</ele>
        <time>2020-10-21T12:46:06Z</time>
      </trkpt>
      <trkpt lat="43.39626" lon="5.51752">
        <ele>527</ele>
        <time>2020-10-21T12:46:12Z</time>
      </trkpt>
      <trkpt lat="43.3963" lon="5.51751">
        <ele>527</ele>
        <time>2020-10-21T12:46:18Z</time>
      </trkpt>
      <trkpt lat="43.39635" lon="5.5175">
        <ele>526</ele>
        <time>2020-10-21T12:46:24Z</time>
      </trkpt>
      <trkpt lat="43.39639" lon="5.51749">
        <ele>527</ele>
        <time>2020-10-21T12:46:30Z</time>
      </trkpt>
      <trkpt lat="43.39645" lon="5.51748">
        <ele>528</ele>
        <time>2020-10-21T12:46:38Z</time>
      </trkpt>
      <trkpt lat="43.39651" lon="5.51747">
        <ele>529</ele>
        <time>2020-10-21T12:46:44Z</time>
      </trkpt>
      <trkpt lat="43.39656" lon="5.51745">
        <ele>530</ele>
        <time>2020-10-21T12:46:50Z</time>
      </trkpt>
      <trkpt lat="43.3966" lon="5.51747">
        <ele>532</ele>
        <time>2020-10-21T12:46:58Z</time>
      </trkpt>
      <trkpt lat="43.39666" lon="5.51745">
        <ele>533</ele>
        <time>2020-10-21T12:47:06Z</time>
      </trkpt>
      <trkpt lat="43.3967" lon="5.51743">
        <ele>537</ele>
        <time>2020-10-21T12:47:14Z</time>
      </trkpt>
      <trkpt lat="43.39676" lon="5.51741">
        <ele>538</ele>
        <time>2020-10-21T12:47:24Z</time>
      </trkpt>
      <trkpt lat="43.3968" lon="5.51737">
        <ele>538</ele>
        <time>2020-10-21T12:47:32Z</time>
      </trkpt>
      <trkpt lat="43.39685" lon="5.51735">
        <ele>539</ele>
        <time>2020-10-21T12:47:40Z</time>
      </trkpt>
      <trkpt lat="43.3969" lon="5.51732">
        <ele>540</ele>
        <time>2020-10-21T12:47:48Z</time>
      </trkpt>
      <trkpt lat="43.39694" lon="5.51726">
        <ele>540</ele>
        <time>2020-10-21T12:47:56Z</time>
      </trkpt>
      <trkpt lat="43.39699" lon="5.51721">
        <ele>541</ele>
        <time>2020-10-21T12:48:04Z</time>
      </trkpt>
      <trkpt lat="43.39703" lon="5.51717">
        <ele>541</ele>
        <time>2020-10-21T12:48:10Z</time>
      </trkpt>
      <trkpt lat="43.39708" lon="5.51713">
        <ele>542</ele>
        <time>2020-10-21T12:48:18Z</time>
      </trkpt>
      <trkpt lat="43.39713" lon="5.51709">
        <ele>542</ele>
        <time>2020-10-21T12:48:26Z</time>
      </trkpt>
      <trkpt lat="43.39718" lon="5.51704">
        <ele>542</ele>
        <time>2020-10-21T12:48:34Z</time>
      </trkpt>
      <trkpt lat="43.39723" lon="5.517">
        <ele>543</ele>
        <time>2020-10-21T12:48:42Z</time>
      </trkpt>
      <trkpt lat="43.39728" lon="5.51696">
        <ele>543</ele>
        <time>2020-10-21T12:48:50Z</time>
      </trkpt>
      <trkpt lat="43.39733" lon="5.51693">
        <ele>544</ele>
        <time>2020-10-21T12:48:58Z</time>
      </trkpt>
      <trkpt lat="43.39738" lon="5.5169">
        <ele>544</ele>
        <time>2020-10-21T12:49:08Z</time>
      </trkpt>
      <trkpt lat="43.39743" lon="5.51686">
        <ele>544</ele>
        <time>2020-10-21T12:49:16Z</time>
      </trkpt>
      <trkpt lat="43.39747" lon="5.51684">
        <ele>545</ele>
        <time>2020-10-21T12:49:22Z</time>
      </trkpt>
      <trkpt lat="43.39753" lon="5.51682">
        <ele>554</ele>
        <time>2020-10-21T12:49:30Z</time>
      </trkpt>
      <trkpt lat="43.39757" lon="5.5168">
        <ele>554</ele>
        <time>2020-10-21T12:49:36Z</time>
      </trkpt>
      <trkpt lat="43.39763" lon="5.51678">
        <ele>555</ele>
        <time>2020-10-21T12:49:42Z</time>
      </trkpt>
      <trkpt lat="43.39768" lon="5.51675">
        <ele>555</ele>
        <time>2020-10-21T12:49:50Z</time>
      </trkpt>
      <trkpt lat="43.39772" lon="5.51672">
        <ele>556</ele>
        <time>2020-10-21T12:49:56Z</time>
      </trkpt>
      <trkpt lat="43.39777" lon="5.51671">
        <ele>557</ele>
        <time>2020-10-21T12:50:02Z</time>
      </trkpt>
      <trkpt lat="43.39782" lon="5.51672">
        <ele>558</ele>
        <time>2020-10-21T12:50:10Z</time>
      </trkpt>
      <trkpt lat="43.39786" lon="5.51669">
        <ele>559</ele>
        <time>2020-10-21T12:50:16Z</time>
      </trkpt>
      <trkpt lat="43.39792" lon="5.51669">
        <ele>560</ele>
        <time>2020-10-21T12:50:26Z</time>
      </trkpt>
      <trkpt lat="43.39797" lon="5.51666">
        <ele>550</ele>
        <time>2020-10-21T12:50:32Z</time>
      </trkpt>
      <trkpt lat="43.39802" lon="5.51665">
        <ele>551</ele>
        <time>2020-10-21T12:50:40Z</time>
      </trkpt>
      <trkpt lat="43.39807" lon="5.51666">
        <ele>552</ele>
        <time>2020-10-21T12:50:48Z</time>
      </trkpt>
      <trkpt lat="43.39812" lon="5.51665">
        <ele>553</ele>
        <time>2020-10-21T12:50:56Z</time>
      </trkpt>
      <trkpt lat="43.39817" lon="5.51664">
        <ele>555</ele>
        <time>2020-10-21T12:51:02Z</time>
      </trkpt>
      <trkpt lat="43.39822" lon="5.51663">
        <ele>557</ele>
        <time>2020-10-21T12:51:10Z</time>
      </trkpt>
      <trkpt lat="43.39828" lon="5.51663">
        <ele>560</ele>
        <time>2020-10-21T12:51:18Z</time>
      </trkpt>
      <trkpt lat="43.39834" lon="5.51662">
        <ele>562</ele>
        <time>2020-10-21T12:51:24Z</time>
      </trkpt>
      <trkpt lat="43.39838" lon="5.51661">
        <ele>560</ele>
        <time>2020-10-21T12:51:30Z</time>
      </trkpt>
      <trkpt lat="43.39843" lon="5.51661">
        <ele>559</ele>
        <time>2020-10-21T12:51:36Z</time>
      </trkpt>
      <trkpt lat="43.39848" lon="5.51662">
        <ele>558</ele>
        <time>2020-10-21T12:51:44Z</time>
      </trkpt>
      <trkpt lat="43.39854" lon="5.51661">
        <ele>556</ele>
        <time>2020-10-21T12:51:52Z</time>
      </trkpt>
      <trkpt lat="43.39859" lon="5.51663">
        <ele>556</ele>
        <time>2020-10-21T12:51:58Z</time>
      </trkpt>
      <trkpt lat="43.39864" lon="5.51665">
        <ele>555</ele>
        <time>2020-10-21T12:52:04Z</time>
      </trkpt>
      <trkpt lat="43.39868" lon="5.51668">
        <ele>567</ele>
        <time>2020-10-21T12:52:10Z</time>
      </trkpt>
      <trkpt lat="43.39872" lon="5.51673">
        <ele>567</ele>
        <time>2020-10-21T12:52:20Z</time>
      </trkpt>
      <trkpt lat="43.39873" lon="5.5168">
        <ele>568</ele>
        <time>2020-10-21T12:52:32Z</time>
      </trkpt>
      <trkpt lat="43.39868" lon="5.51684">
        <ele>568</ele>
        <time>2020-10-21T12:52:44Z</time>
      </trkpt>
      <trkpt lat="43.39862" lon="5.51684">
        <ele>568</ele>
        <time>2020-10-21T12:52:54Z</time>
      </trkpt>
      <trkpt lat="43.39857" lon="5.51688">
        <ele>568</ele>
        <time>2020-10-21T12:53:02Z</time>
      </trkpt>
      <trkpt lat="43.39853" lon="5.51692">
        <ele>569</ele>
        <time>2020-10-21T12:53:08Z</time>
      </trkpt>
      <trkpt lat="43.39849" lon="5.51698">
        <ele>569</ele>
        <time>2020-10-21T12:53:14Z</time>
      </trkpt>
      <trkpt lat="43.39845" lon="5.51702">
        <ele>570</ele>
        <time>2020-10-21T12:53:20Z</time>
      </trkpt>
      <trkpt lat="43.3984" lon="5.51707">
        <ele>570</ele>
        <time>2020-10-21T12:53:28Z</time>
      </trkpt>
      <trkpt lat="43.39837" lon="5.51711">
        <ele>571</ele>
        <time>2020-10-21T12:53:34Z</time>
      </trkpt>
      <trkpt lat="43.39833" lon="5.51716">
        <ele>567</ele>
        <time>2020-10-21T12:53:42Z</time>
      </trkpt>
      <trkpt lat="43.39829" lon="5.51722">
        <ele>568</ele>
        <time>2020-10-21T12:53:50Z</time>
      </trkpt>
      <trkpt lat="43.39825" lon="5.51727">
        <ele>569</ele>
        <time>2020-10-21T12:53:58Z</time>
      </trkpt>
      <trkpt lat="43.39825" lon="5.51734">
        <ele>571</ele>
        <time>2020-10-21T12:54:06Z</time>
      </trkpt>
      <trkpt lat="43.3983" lon="5.51736">
        <ele>572</ele>
        <time>2020-10-21T12:54:12Z</time>
      </trkpt>
      <trkpt lat="43.39835" lon="5.51735">
        <ele>575</ele>
        <time>2020-10-21T12:54:18Z</time>
      </trkpt>
      <trkpt lat="43.3984" lon="5.51733">
        <ele>574</ele>
        <time>2020-10-21T12:54:24Z</time>
      </trkpt>
      <trkpt lat="43.39845" lon="5.51731">
        <ele>574</ele>
        <time>2020-10-21T12:54:30Z</time>
      </trkpt>
      <trkpt lat="43.3985" lon="5.51733">
        <ele>574</ele>
        <time>2020-10-21T12:54:36Z</time>
      </trkpt>
      <trkpt lat="43.39854" lon="5.51736">
        <ele>574</ele>
        <time>2020-10-21T12:54:42Z</time>
      </trkpt>
      <trkpt lat="43.3986" lon="5.51739">
        <ele>574</ele>
        <time>2020-10-21T12:54:50Z</time>
      </trkpt>
      <trkpt lat="43.39863" lon="5.51742">
        <ele>574</ele>
        <time>2020-10-21T12:54:56Z</time>
      </trkpt>
      <trkpt lat="43.39866" lon="5.51748">
        <ele>574</ele>
        <time>2020-10-21T12:55:02Z</time>
      </trkpt>
      <trkpt lat="43.39869" lon="5.51753">
        <ele>579</ele>
        <time>2020-10-21T12:55:08Z</time>
      </trkpt>
      <trkpt lat="43.39871" lon="5.51759">
        <ele>579</ele>
        <time>2020-10-21T12:55:14Z</time>
      </trkpt>
      <trkpt lat="43.39873" lon="5.51765">
        <ele>579</ele>
        <time>2020-10-21T12:55:20Z</time>
      </trkpt>
      <trkpt lat="43.39876" lon="5.51771">
        <ele>579</ele>
        <time>2020-10-21T12:55:26Z</time>
      </trkpt>
      <trkpt lat="43.39879" lon="5.51776">
        <ele>579</ele>
        <time>2020-10-21T12:55:32Z</time>
      </trkpt>
      <trkpt lat="43.39883" lon="5.51781">
        <ele>579</ele>
        <time>2020-10-21T12:55:38Z</time>
      </trkpt>
      <trkpt lat="43.39886" lon="5.51786">
        <ele>579</ele>
        <time>2020-10-21T12:55:46Z</time>
      </trkpt>
      <trkpt lat="43.39889" lon="5.51792">
        <ele>579</ele>
        <time>2020-10-21T12:55:52Z</time>
      </trkpt>
      <trkpt lat="43.39892" lon="5.51797">
        <ele>580</ele>
        <time>2020-10-21T12:55:58Z</time>
      </trkpt>
      <trkpt lat="43.39897" lon="5.51803">
        <ele>580</ele>
        <time>2020-10-21T12:56:06Z</time>
      </trkpt>
      <trkpt lat="43.39901" lon="5.51809">
        <ele>581</ele>
        <time>2020-10-21T12:56:14Z</time>
      </trkpt>
      <trkpt lat="43.39904" lon="5.51815">
        <ele>582</ele>
        <time>2020-10-21T12:56:22Z</time>
      </trkpt>
      <trkpt lat="43.39908" lon="5.51821">
        <ele>583</ele>
        <time>2020-10-21T12:56:30Z</time>
      </trkpt>
      <trkpt lat="43.39913" lon="5.51824">
        <ele>585</ele>
        <time>2020-10-21T12:56:38Z</time>
      </trkpt>
      <trkpt lat="43.39916" lon="5.51829">
        <ele>586</ele>
        <time>2020-10-21T12:56:54Z</time>
      </trkpt>
      <trkpt lat="43.39921" lon="5.51828">
        <ele>589</ele>
        <time>2020-10-21T12:59:46Z</time>
      </trkpt>
      <trkpt lat="43.39921" lon="5.51836">
        <ele>589</ele>
        <time>2020-10-21T13:02:14Z</time>
      </trkpt>
      <trkpt lat="43.39923" lon="5.51841">
        <ele>590</ele>
        <time>2020-10-21T13:02:20Z</time>
      </trkpt>
      <trkpt lat="43.39926" lon="5.51847">
        <ele>591</ele>
        <time>2020-10-21T13:02:28Z</time>
      </trkpt>
      <trkpt lat="43.39928" lon="5.51853">
        <ele>591</ele>
        <time>2020-10-21T13:02:34Z</time>
      </trkpt>
      <trkpt lat="43.39932" lon="5.51859">
        <ele>592</ele>
        <time>2020-10-21T13:02:42Z</time>
      </trkpt>
      <trkpt lat="43.39936" lon="5.51864">
        <ele>592</ele>
        <time>2020-10-21T13:02:48Z</time>
      </trkpt>
      <trkpt lat="43.39941" lon="5.51869">
        <ele>592</ele>
        <time>2020-10-21T13:02:56Z</time>
      </trkpt>
      <trkpt lat="43.39945" lon="5.51873">
        <ele>593</ele>
        <time>2020-10-21T13:03:02Z</time>
      </trkpt>
      <trkpt lat="43.39949" lon="5.51876">
        <ele>593</ele>
        <time>2020-10-21T13:03:08Z</time>
      </trkpt>
      <trkpt lat="43.39953" lon="5.5188">
        <ele>593</ele>
        <time>2020-10-21T13:03:14Z</time>
      </trkpt>
      <trkpt lat="43.39958" lon="5.51884">
        <ele>594</ele>
        <time>2020-10-21T13:03:22Z</time>
      </trkpt>
      <trkpt lat="43.39962" lon="5.51887">
        <ele>594</ele>
        <time>2020-10-21T13:03:28Z</time>
      </trkpt>
      <trkpt lat="43.39966" lon="5.51891">
        <ele>595</ele>
        <time>2020-10-21T13:03:34Z</time>
      </trkpt>
      <trkpt lat="43.3997" lon="5.51896">
        <ele>596</ele>
        <time>2020-10-21T13:03:40Z</time>
      </trkpt>
      <trkpt lat="43.39974" lon="5.51902">
        <ele>596</ele>
        <time>2020-10-21T13:03:46Z</time>
      </trkpt>
      <trkpt lat="43.39976" lon="5.51907">
        <ele>597</ele>
        <time>2020-10-21T13:03:52Z</time>
      </trkpt>
      <trkpt lat="43.39978" lon="5.51913">
        <ele>598</ele>
        <time>2020-10-21T13:03:58Z</time>
      </trkpt>
      <trkpt lat="43.3998" lon="5.51918">
        <ele>593</ele>
        <time>2020-10-21T13:04:04Z</time>
      </trkpt>
      <trkpt lat="43.39982" lon="5.51925">
        <ele>593</ele>
        <time>2020-10-21T13:04:10Z</time>
      </trkpt>
      <trkpt lat="43.39985" lon="5.5193">
        <ele>593</ele>
        <time>2020-10-21T13:04:16Z</time>
      </trkpt>
      <trkpt lat="43.39989" lon="5.51935">
        <ele>592</ele>
        <time>2020-10-21T13:04:22Z</time>
      </trkpt>
      <trkpt lat="43.39993" lon="5.51937">
        <ele>593</ele>
        <time>2020-10-21T13:04:28Z</time>
      </trkpt>
      <trkpt lat="43.39998" lon="5.51937">
        <ele>593</ele>
        <time>2020-10-21T13:04:34Z</time>
      </trkpt>
      <trkpt lat="43.40003" lon="5.51938">
        <ele>605</ele>
        <time>2020-10-21T13:04:40Z</time>
      </trkpt>
      <trkpt lat="43.40009" lon="5.51937">
        <ele>605</ele>
        <time>2020-10-21T13:04:46Z</time>
      </trkpt>
      <trkpt lat="43.40014" lon="5.51936">
        <ele>606</ele>
        <time>2020-10-21T13:04:52Z</time>
      </trkpt>
      <trkpt lat="43.40019" lon="5.51935">
        <ele>606</ele>
        <time>2020-10-21T13:04:58Z</time>
      </trkpt>
      <trkpt lat="43.40024" lon="5.51933">
        <ele>607</ele>
        <time>2020-10-21T13:05:04Z</time>
      </trkpt>
      <trkpt lat="43.40029" lon="5.51932">
        <ele>607</ele>
        <time>2020-10-21T13:05:10Z</time>
      </trkpt>
      <trkpt lat="43.40034" lon="5.51932">
        <ele>608</ele>
        <time>2020-10-21T13:05:16Z</time>
      </trkpt>
      <trkpt lat="43.40039" lon="5.51933">
        <ele>609</ele>
        <time>2020-10-21T13:05:22Z</time>
      </trkpt>
      <trkpt lat="43.40044" lon="5.51935">
        <ele>610</ele>
        <time>2020-10-21T13:05:28Z</time>
      </trkpt>
      <trkpt lat="43.40049" lon="5.51939">
        <ele>610</ele>
        <time>2020-10-21T13:05:36Z</time>
      </trkpt>
      <trkpt lat="43.40055" lon="5.51943">
        <ele>611</ele>
        <time>2020-10-21T13:05:44Z</time>
      </trkpt>
      <trkpt lat="43.40059" lon="5.51945">
        <ele>611</ele>
        <time>2020-10-21T13:05:50Z</time>
      </trkpt>
      <trkpt lat="43.40064" lon="5.51947">
        <ele>611</ele>
        <time>2020-10-21T13:05:56Z</time>
      </trkpt>
      <trkpt lat="43.4007" lon="5.51947">
        <ele>612</ele>
        <time>2020-10-21T13:06:02Z</time>
      </trkpt>
      <trkpt lat="43.40075" lon="5.51946">
        <ele>613</ele>
        <time>2020-10-21T13:06:08Z</time>
      </trkpt>
      <trkpt lat="43.4008" lon="5.51946">
        <ele>613</ele>
        <time>2020-10-21T13:06:14Z</time>
      </trkpt>
      <trkpt lat="43.40085" lon="5.51946">
        <ele>624</ele>
        <time>2020-10-21T13:06:22Z</time>
      </trkpt>
      <trkpt lat="43.40091" lon="5.51945">
        <ele>625</ele>
        <time>2020-10-21T13:06:30Z</time>
      </trkpt>
      <trkpt lat="43.40095" lon="5.51946">
        <ele>625</ele>
        <time>2020-10-21T13:06:36Z</time>
      </trkpt>
      <trkpt lat="43.40101" lon="5.51946">
        <ele>625</ele>
        <time>2020-10-21T13:06:42Z</time>
      </trkpt>
      <trkpt lat="43.40107" lon="5.51946">
        <ele>625</ele>
        <time>2020-10-21T13:06:48Z</time>
      </trkpt>
      <trkpt lat="43.40113" lon="5.51946">
        <ele>626</ele>
        <time>2020-10-21T13:06:56Z</time>
      </trkpt>
      <trkpt lat="43.40118" lon="5.51947">
        <ele>626</ele>
        <time>2020-10-21T13:07:02Z</time>
      </trkpt>
      <trkpt lat="43.40123" lon="5.51948">
        <ele>626</ele>
        <time>2020-10-21T13:07:08Z</time>
      </trkpt>
      <trkpt lat="43.40129" lon="5.51948">
        <ele>627</ele>
        <time>2020-10-21T13:07:14Z</time>
      </trkpt>
      <trkpt lat="43.40135" lon="5.51949">
        <ele>627</ele>
        <time>2020-10-21T13:07:20Z</time>
      </trkpt>
      <trkpt lat="43.40141" lon="5.51951">
        <ele>628</ele>
        <time>2020-10-21T13:07:26Z</time>
      </trkpt>
      <trkpt lat="43.40147" lon="5.51952">
        <ele>628</ele>
        <time>2020-10-21T13:07:32Z</time>
      </trkpt>
      <trkpt lat="43.40153" lon="5.51952">
        <ele>629</ele>
        <time>2020-10-21T13:07:38Z</time>
      </trkpt>
      <trkpt lat="43.40159" lon="5.51953">
        <ele>629</ele>
        <time>2020-10-21T13:07:44Z</time>
      </trkpt>
      <trkpt lat="43.40164" lon="5.51955">
        <ele>629</ele>
        <time>2020-10-21T13:07:50Z</time>
      </trkpt>
      <trkpt lat="43.40169" lon="5.51959">
        <ele>640</ele>
        <time>2020-10-21T13:07:56Z</time>
      </trkpt>
      <trkpt lat="43.4017" lon="5.51966">
        <ele>639</ele>
        <time>2020-10-21T13:08:04Z</time>
      </trkpt>
      <trkpt lat="43.40169" lon="5.51975">
        <ele>638</ele>
        <time>2020-10-21T13:08:12Z</time>
      </trkpt>
      <trkpt lat="43.40168" lon="5.51983">
        <ele>637</ele>
        <time>2020-10-21T13:08:18Z</time>
      </trkpt>
      <trkpt lat="43.40167" lon="5.51992">
        <ele>634</ele>
        <time>2020-10-21T13:08:24Z</time>
      </trkpt>
      <trkpt lat="43.40165" lon="5.52">
        <ele>630</ele>
        <time>2020-10-21T13:08:30Z</time>
      </trkpt>
      <trkpt lat="43.40164" lon="5.52008">
        <ele>628</ele>
        <time>2020-10-21T13:08:36Z</time>
      </trkpt>
      <trkpt lat="43.40163" lon="5.52017">
        <ele>628</ele>
        <time>2020-10-21T13:08:42Z</time>
      </trkpt>
      <trkpt lat="43.40161" lon="5.52024">
        <ele>627</ele>
        <time>2020-10-21T13:08:48Z</time>
      </trkpt>
      <trkpt lat="43.40161" lon="5.52032">
        <ele>628</ele>
        <time>2020-10-21T13:08:54Z</time>
      </trkpt>
      <trkpt lat="43.40159" lon="5.52038">
        <ele>628</ele>
        <time>2020-10-21T13:09:00Z</time>
      </trkpt>
      <trkpt lat="43.40158" lon="5.52046">
        <ele>628</ele>
        <time>2020-10-21T13:09:06Z</time>
      </trkpt>
      <trkpt lat="43.40156" lon="5.52052">
        <ele>629</ele>
        <time>2020-10-21T13:09:10Z</time>
      </trkpt>
      <trkpt lat="43.40153" lon="5.52059">
        <ele>630</ele>
        <time>2020-10-21T13:09:16Z</time>
      </trkpt>
      <trkpt lat="43.40151" lon="5.52066">
        <ele>631</ele>
        <time>2020-10-21T13:09:22Z</time>
      </trkpt>
      <trkpt lat="43.40148" lon="5.52073">
        <ele>631</ele>
        <time>2020-10-21T13:09:28Z</time>
      </trkpt>
      <trkpt lat="43.40146" lon="5.52079">
        <ele>631</ele>
        <time>2020-10-21T13:09:34Z</time>
      </trkpt>
      <trkpt lat="43.40144" lon="5.52086">
        <ele>634</ele>
        <time>2020-10-21T13:09:40Z</time>
      </trkpt>
      <trkpt lat="43.40143" lon="5.52093">
        <ele>634</ele>
        <time>2020-10-21T13:09:46Z</time>
      </trkpt>
      <trkpt lat="43.40141" lon="5.52101">
        <ele>633</ele>
        <time>2020-10-21T13:09:52Z</time>
      </trkpt>
      <trkpt lat="43.40139" lon="5.52108">
        <ele>632</ele>
        <time>2020-10-21T13:09:58Z</time>
      </trkpt>
      <trkpt lat="43.40136" lon="5.52116">
        <ele>632</ele>
        <time>2020-10-21T13:10:04Z</time>
      </trkpt>
      <trkpt lat="43.40131" lon="5.52121">
        <ele>631</ele>
        <time>2020-10-21T13:10:10Z</time>
      </trkpt>
      <trkpt lat="43.40127" lon="5.52125">
        <ele>630</ele>
        <time>2020-10-21T13:10:16Z</time>
      </trkpt>
      <trkpt lat="43.40122" lon="5.52129">
        <ele>630</ele>
        <time>2020-10-21T13:10:22Z</time>
      </trkpt>
      <trkpt lat="43.40118" lon="5.52135">
        <ele>629</ele>
        <time>2020-10-21T13:10:28Z</time>
      </trkpt>
      <trkpt lat="43.40113" lon="5.52142">
        <ele>629</ele>
        <time>2020-10-21T13:10:34Z</time>
      </trkpt>
      <trkpt lat="43.40111" lon="5.5215">
        <ele>629</ele>
        <time>2020-10-21T13:10:40Z</time>
      </trkpt>
      <trkpt lat="43.40114" lon="5.52155">
        <ele>629</ele>
        <time>2020-10-21T13:10:46Z</time>
      </trkpt>
      <trkpt lat="43.40118" lon="5.52158">
        <ele>630</ele>
        <time>2020-10-21T13:10:52Z</time>
      </trkpt>
      <trkpt lat="43.40122" lon="5.52161">
        <ele>631</ele>
        <time>2020-10-21T13:10:58Z</time>
      </trkpt>
      <trkpt lat="43.40128" lon="5.52163">
        <ele>632</ele>
        <time>2020-10-21T13:11:04Z</time>
      </trkpt>
      <trkpt lat="43.40133" lon="5.52163">
        <ele>633</ele>
        <time>2020-10-21T13:11:10Z</time>
      </trkpt>
      <trkpt lat="43.40139" lon="5.52162">
        <ele>634</ele>
        <time>2020-10-21T13:11:16Z</time>
      </trkpt>
      <trkpt lat="43.40145" lon="5.52162">
        <ele>635</ele>
        <time>2020-10-21T13:11:22Z</time>
      </trkpt>
      <trkpt lat="43.40151" lon="5.52163">
        <ele>637</ele>
        <time>2020-10-21T13:11:28Z</time>
      </trkpt>
      <trkpt lat="43.40157" lon="5.52163">
        <ele>639</ele>
        <time>2020-10-21T13:11:34Z</time>
      </trkpt>
      <trkpt lat="43.40161" lon="5.52165">
        <ele>640</ele>
        <time>2020-10-21T13:11:40Z</time>
      </trkpt>
      <trkpt lat="43.40167" lon="5.52165">
        <ele>644</ele>
        <time>2020-10-21T13:11:46Z</time>
      </trkpt>
      <trkpt lat="43.40172" lon="5.52166">
        <ele>645</ele>
        <time>2020-10-21T13:11:52Z</time>
      </trkpt>
      <trkpt lat="43.40178" lon="5.52169">
        <ele>644</ele>
        <time>2020-10-21T13:11:58Z</time>
      </trkpt>
      <trkpt lat="43.40183" lon="5.52171">
        <ele>644</ele>
        <time>2020-10-21T13:12:04Z</time>
      </trkpt>
      <trkpt lat="43.40189" lon="5.52174">
        <ele>645</ele>
        <time>2020-10-21T13:12:10Z</time>
      </trkpt>
      <trkpt lat="43.40194" lon="5.52176">
        <ele>645</ele>
        <time>2020-10-21T13:12:16Z</time>
      </trkpt>
      <trkpt lat="43.40199" lon="5.52179">
        <ele>646</ele>
        <time>2020-10-21T13:12:22Z</time>
      </trkpt>
      <trkpt lat="43.40205" lon="5.52181">
        <ele>647</ele>
        <time>2020-10-21T13:12:28Z</time>
      </trkpt>
      <trkpt lat="43.40211" lon="5.52184">
        <ele>647</ele>
        <time>2020-10-21T13:12:34Z</time>
      </trkpt>
      <trkpt lat="43.40217" lon="5.52187">
        <ele>648</ele>
        <time>2020-10-21T13:12:40Z</time>
      </trkpt>
      <trkpt lat="43.40222" lon="5.52191">
        <ele>649</ele>
        <time>2020-10-21T13:12:46Z</time>
      </trkpt>
      <trkpt lat="43.40228" lon="5.52193">
        <ele>649</ele>
        <time>2020-10-21T13:12:52Z</time>
      </trkpt>
      <trkpt lat="43.40234" lon="5.52195">
        <ele>650</ele>
        <time>2020-10-21T13:12:58Z</time>
      </trkpt>
      <trkpt lat="43.4024" lon="5.52198">
        <ele>650</ele>
        <time>2020-10-21T13:13:04Z</time>
      </trkpt>
      <trkpt lat="43.40246" lon="5.522">
        <ele>650</ele>
        <time>2020-10-21T13:13:10Z</time>
      </trkpt>
      <trkpt lat="43.40252" lon="5.52202">
        <ele>660</ele>
        <time>2020-10-21T13:13:16Z</time>
      </trkpt>
      <trkpt lat="43.40258" lon="5.52204">
        <ele>660</ele>
        <time>2020-10-21T13:13:22Z</time>
      </trkpt>
      <trkpt lat="43.40264" lon="5.52206">
        <ele>660</ele>
        <time>2020-10-21T13:13:28Z</time>
      </trkpt>
      <trkpt lat="43.4027" lon="5.52207">
        <ele>660</ele>
        <time>2020-10-21T13:13:34Z</time>
      </trkpt>
      <trkpt lat="43.40275" lon="5.52211">
        <ele>660</ele>
        <time>2020-10-21T13:13:40Z</time>
      </trkpt>
      <trkpt lat="43.40279" lon="5.52215">
        <ele>660</ele>
        <time>2020-10-21T13:13:46Z</time>
      </trkpt>
      <trkpt lat="43.40285" lon="5.52217">
        <ele>660</ele>
        <time>2020-10-21T13:13:52Z</time>
      </trkpt>
      <trkpt lat="43.4029" lon="5.52214">
        <ele>661</ele>
        <time>2020-10-21T13:14:46Z</time>
      </trkpt>
      <trkpt lat="43.40292" lon="5.5222">
        <ele>660</ele>
        <time>2020-10-21T13:17:56Z</time>
      </trkpt>
      <trkpt lat="43.40295" lon="5.52225">
        <ele>660</ele>
        <time>2020-10-21T13:18:04Z</time>
      </trkpt>
      <trkpt lat="43.40297" lon="5.5223">
        <ele>660</ele>
        <time>2020-10-21T13:18:14Z</time>
      </trkpt>
      <trkpt lat="43.40301" lon="5.52233">
        <ele>660</ele>
        <time>2020-10-21T13:18:22Z</time>
      </trkpt>
      <trkpt lat="43.40306" lon="5.52234">
        <ele>660</ele>
        <time>2020-10-21T13:18:30Z</time>
      </trkpt>
      <trkpt lat="43.40305" lon="5.52242">
        <ele>660</ele>
        <time>2020-10-21T13:18:40Z</time>
      </trkpt>
      <trkpt lat="43.40306" lon="5.52251">
        <ele>652</ele>
        <time>2020-10-21T13:18:46Z</time>
      </trkpt>
      <trkpt lat="43.40305" lon="5.52257">
        <ele>652</ele>
        <time>2020-10-21T13:18:52Z</time>
      </trkpt>
      <trkpt lat="43.40301" lon="5.52263">
        <ele>651</ele>
        <time>2020-10-21T13:18:58Z</time>
      </trkpt>
      <trkpt lat="43.40297" lon="5.52267">
        <ele>651</ele>
        <time>2020-10-21T13:19:06Z</time>
      </trkpt>
      <trkpt lat="43.40293" lon="5.52272">
        <ele>650</ele>
        <time>2020-10-21T13:19:14Z</time>
      </trkpt>
      <trkpt lat="43.40291" lon="5.52278">
        <ele>650</ele>
        <time>2020-10-21T13:19:20Z</time>
      </trkpt>
      <trkpt lat="43.40287" lon="5.52284">
        <ele>649</ele>
        <time>2020-10-21T13:19:26Z</time>
      </trkpt>
      <trkpt lat="43.40284" lon="5.52289">
        <ele>649</ele>
        <time>2020-10-21T13:19:32Z</time>
      </trkpt>
      <trkpt lat="43.40281" lon="5.52296">
        <ele>649</ele>
        <time>2020-10-21T13:19:38Z</time>
      </trkpt>
      <trkpt lat="43.40279" lon="5.52302">
        <ele>649</ele>
        <time>2020-10-21T13:19:44Z</time>
      </trkpt>
      <trkpt lat="43.40274" lon="5.52305">
        <ele>649</ele>
        <time>2020-10-21T13:20:14Z</time>
      </trkpt>
      <trkpt lat="43.40269" lon="5.52305">
        <ele>649</ele>
        <time>2020-10-21T13:20:20Z</time>
      </trkpt>
      <trkpt lat="43.40265" lon="5.52312">
        <ele>649</ele>
        <time>2020-10-21T13:20:26Z</time>
      </trkpt>
      <trkpt lat="43.40261" lon="5.52317">
        <ele>650</ele>
        <time>2020-10-21T13:20:32Z</time>
      </trkpt>
      <trkpt lat="43.40255" lon="5.5232">
        <ele>650</ele>
        <time>2020-10-21T13:20:40Z</time>
      </trkpt>
      <trkpt lat="43.40252" lon="5.52324">
        <ele>651</ele>
        <time>2020-10-21T13:20:52Z</time>
      </trkpt>
      <trkpt lat="43.40249" lon="5.5233">
        <ele>651</ele>
        <time>2020-10-21T13:21:24Z</time>
      </trkpt>
      <trkpt lat="43.40246" lon="5.52334">
        <ele>651</ele>
        <time>2020-10-21T13:21:30Z</time>
      </trkpt>
      <trkpt lat="43.40242" lon="5.52341">
        <ele>650</ele>
        <time>2020-10-21T13:21:40Z</time>
      </trkpt>
      <trkpt lat="43.40239" lon="5.52347">
        <ele>649</ele>
        <time>2020-10-21T13:21:46Z</time>
      </trkpt>
      <trkpt lat="43.40235" lon="5.5235">
        <ele>648</ele>
        <time>2020-10-21T13:22:00Z</time>
      </trkpt>
      <trkpt lat="43.40232" lon="5.52355">
        <ele>648</ele>
        <time>2020-10-21T13:22:10Z</time>
      </trkpt>
      <trkpt lat="43.40228" lon="5.52359">
        <ele>647</ele>
        <time>2020-10-21T13:22:16Z</time>
      </trkpt>
      <trkpt lat="43.40224" lon="5.52364">
        <ele>647</ele>
        <time>2020-10-21T13:22:22Z</time>
      </trkpt>
      <trkpt lat="43.4022" lon="5.52369">
        <ele>647</ele>
        <time>2020-10-21T13:22:30Z</time>
      </trkpt>
      <trkpt lat="43.40216" lon="5.52373">
        <ele>647</ele>
        <time>2020-10-21T13:22:48Z</time>
      </trkpt>
      <trkpt lat="43.40214" lon="5.5238">
        <ele>647</ele>
        <time>2020-10-21T13:22:54Z</time>
      </trkpt>
      <trkpt lat="43.4021" lon="5.52387">
        <ele>647</ele>
        <time>2020-10-21T13:23:00Z</time>
      </trkpt>
      <trkpt lat="43.40207" lon="5.52392">
        <ele>647</ele>
        <time>2020-10-21T13:23:08Z</time>
      </trkpt>
      <trkpt lat="43.40201" lon="5.52394">
        <ele>648</ele>
        <time>2020-10-21T13:23:14Z</time>
      </trkpt>
      <trkpt lat="43.40197" lon="5.52399">
        <ele>649</ele>
        <time>2020-10-21T13:23:20Z</time>
      </trkpt>
      <trkpt lat="43.40194" lon="5.52404">
        <ele>649</ele>
        <time>2020-10-21T13:23:24Z</time>
      </trkpt>
      <trkpt lat="43.40191" lon="5.5241">
        <ele>650</ele>
        <time>2020-10-21T13:23:30Z</time>
      </trkpt>
      <trkpt lat="43.40186" lon="5.52415">
        <ele>651</ele>
        <time>2020-10-21T13:23:36Z</time>
      </trkpt>
      <trkpt lat="43.40182" lon="5.5242">
        <ele>652</ele>
        <time>2020-10-21T13:23:44Z</time>
      </trkpt>
      <trkpt lat="43.40178" lon="5.52424">
        <ele>653</ele>
        <time>2020-10-21T13:23:50Z</time>
      </trkpt>
      <trkpt lat="43.40177" lon="5.52431">
        <ele>652</ele>
        <time>2020-10-21T13:23:58Z</time>
      </trkpt>
      <trkpt lat="43.40174" lon="5.52436">
        <ele>651</ele>
        <time>2020-10-21T13:24:04Z</time>
      </trkpt>
      <trkpt lat="43.40171" lon="5.52442">
        <ele>651</ele>
        <time>2020-10-21T13:24:12Z</time>
      </trkpt>
      <trkpt lat="43.40168" lon="5.52447">
        <ele>651</ele>
        <time>2020-10-21T13:24:20Z</time>
      </trkpt>
      <trkpt lat="43.40164" lon="5.52451">
        <ele>658</ele>
        <time>2020-10-21T13:24:28Z</time>
      </trkpt>
      <trkpt lat="43.4016" lon="5.52454">
        <ele>658</ele>
        <time>2020-10-21T13:24:36Z</time>
      </trkpt>
      <trkpt lat="43.40156" lon="5.52457">
        <ele>658</ele>
        <time>2020-10-21T13:24:44Z</time>
      </trkpt>
      <trkpt lat="43.40151" lon="5.5246">
        <ele>658</ele>
        <time>2020-10-21T13:24:52Z</time>
      </trkpt>
      <trkpt lat="43.40147" lon="5.52463">
        <ele>658</ele>
        <time>2020-10-21T13:24:58Z</time>
      </trkpt>
      <trkpt lat="43.40143" lon="5.52469">
        <ele>659</ele>
        <time>2020-10-21T13:25:08Z</time>
      </trkpt>
      <trkpt lat="43.4014" lon="5.52476">
        <ele>659</ele>
        <time>2020-10-21T13:25:16Z</time>
      </trkpt>
      <trkpt lat="43.40138" lon="5.52483">
        <ele>659</ele>
        <time>2020-10-21T13:25:24Z</time>
      </trkpt>
      <trkpt lat="43.40135" lon="5.52489">
        <ele>659</ele>
        <time>2020-10-21T13:25:32Z</time>
      </trkpt>
      <trkpt lat="43.40132" lon="5.52494">
        <ele>659</ele>
        <time>2020-10-21T13:25:52Z</time>
      </trkpt>
      <trkpt lat="43.40134" lon="5.525">
        <ele>660</ele>
        <time>2020-10-21T13:26:00Z</time>
      </trkpt>
      <trkpt lat="43.40135" lon="5.52508">
        <ele>657</ele>
        <time>2020-10-21T13:26:08Z</time>
      </trkpt>
      <trkpt lat="43.40137" lon="5.52515">
        <ele>657</ele>
        <time>2020-10-21T13:26:14Z</time>
      </trkpt>
      <trkpt lat="43.40141" lon="5.52519">
        <ele>656</ele>
        <time>2020-10-21T13:26:42Z</time>
      </trkpt>
      <trkpt lat="43.40146" lon="5.52519">
        <ele>657</ele>
        <time>2020-10-21T13:26:50Z</time>
      </trkpt>
      <trkpt lat="43.40151" lon="5.52518">
        <ele>658</ele>
        <time>2020-10-21T13:26:56Z</time>
      </trkpt>
      <trkpt lat="43.40149" lon="5.52512">
        <ele>658</ele>
        <time>2020-10-21T13:28:54Z</time>
      </trkpt>
      <trkpt lat="43.40148" lon="5.52506">
        <ele>659</ele>
        <time>2020-10-21T13:29:02Z</time>
      </trkpt>
      <trkpt lat="43.40148" lon="5.52499">
        <ele>661</ele>
        <time>2020-10-21T13:29:10Z</time>
      </trkpt>
      <trkpt lat="43.40143" lon="5.52499">
        <ele>661</ele>
        <time>2020-10-21T13:29:18Z</time>
      </trkpt>
      <trkpt lat="43.40139" lon="5.52497">
        <ele>660</ele>
        <time>2020-10-21T13:29:24Z</time>
      </trkpt>
      <trkpt lat="43.40135" lon="5.52493">
        <ele>660</ele>
        <time>2020-10-21T13:29:30Z</time>
      </trkpt>
      <trkpt lat="43.40129" lon="5.52494">
        <ele>659</ele>
        <time>2020-10-21T13:29:38Z</time>
      </trkpt>
      <trkpt lat="43.40124" lon="5.52494">
        <ele>659</ele>
        <time>2020-10-21T13:29:44Z</time>
      </trkpt>
      <trkpt lat="43.40119" lon="5.52497">
        <ele>659</ele>
        <time>2020-10-21T13:29:52Z</time>
      </trkpt>
      <trkpt lat="43.40115" lon="5.52501">
        <ele>656</ele>
        <time>2020-10-21T13:30:06Z</time>
      </trkpt>
      <trkpt lat="43.40111" lon="5.52505">
        <ele>656</ele>
        <time>2020-10-21T13:30:18Z</time>
      </trkpt>
      <trkpt lat="43.4011" lon="5.52511">
        <ele>656</ele>
        <time>2020-10-21T13:30:32Z</time>
      </trkpt>
      <trkpt lat="43.40108" lon="5.52517">
        <ele>655</ele>
        <time>2020-10-21T13:30:46Z</time>
      </trkpt>
      <trkpt lat="43.4011" lon="5.52523">
        <ele>655</ele>
        <time>2020-10-21T13:30:54Z</time>
      </trkpt>
      <trkpt lat="43.40111" lon="5.5253">
        <ele>654</ele>
        <time>2020-10-21T13:31:04Z</time>
      </trkpt>
      <trkpt lat="43.40112" lon="5.52536">
        <ele>653</ele>
        <time>2020-10-21T13:31:12Z</time>
      </trkpt>
      <trkpt lat="43.40114" lon="5.52542">
        <ele>653</ele>
        <time>2020-10-21T13:31:22Z</time>
      </trkpt>
      <trkpt lat="43.40115" lon="5.52549">
        <ele>652</ele>
        <time>2020-10-21T13:31:44Z</time>
      </trkpt>
      <trkpt lat="43.40113" lon="5.52554">
        <ele>651</ele>
        <time>2020-10-21T13:32:14Z</time>
      </trkpt>
      <trkpt lat="43.40115" lon="5.5256">
        <ele>650</ele>
        <time>2020-10-21T13:32:26Z</time>
      </trkpt>
      <trkpt lat="43.4011" lon="5.52563">
        <ele>650</ele>
        <time>2020-10-21T13:32:54Z</time>
      </trkpt>
      <trkpt lat="43.40107" lon="5.52568">
        <ele>649</ele>
        <time>2020-10-21T13:33:28Z</time>
      </trkpt>
      <trkpt lat="43.40107" lon="5.52575">
        <ele>648</ele>
        <time>2020-10-21T13:33:58Z</time>
      </trkpt>
      <trkpt lat="43.4011" lon="5.5258">
        <ele>648</ele>
        <time>2020-10-21T13:34:44Z</time>
      </trkpt>
      <trkpt lat="43.40105" lon="5.5258">
        <ele>647</ele>
        <time>2020-10-21T13:35:20Z</time>
      </trkpt>
      <trkpt lat="43.40104" lon="5.52586">
        <ele>634</ele>
        <time>2020-10-21T13:35:42Z</time>
      </trkpt>
      <trkpt lat="43.40104" lon="5.52593">
        <ele>633</ele>
        <time>2020-10-21T13:35:54Z</time>
      </trkpt>
      <trkpt lat="43.40102" lon="5.52599">
        <ele>633</ele>
        <time>2020-10-21T13:37:10Z</time>
      </trkpt>
      <trkpt lat="43.40097" lon="5.52597">
        <ele>633</ele>
        <time>2020-10-21T13:37:26Z</time>
      </trkpt>
      <trkpt lat="43.40098" lon="5.52604">
        <ele>632</ele>
        <time>2020-10-21T13:37:44Z</time>
      </trkpt>
      <trkpt lat="43.40094" lon="5.52605">
        <ele>632</ele>
        <time>2020-10-21T13:38:28Z</time>
      </trkpt>
      <trkpt lat="43.40089" lon="5.52606">
        <ele>632</ele>
        <time>2020-10-21T13:39:12Z</time>
      </trkpt>
      <trkpt lat="43.40086" lon="5.52611">
        <ele>631</ele>
        <time>2020-10-21T13:39:38Z</time>
      </trkpt>
      <trkpt lat="43.40088" lon="5.52616">
        <ele>629</ele>
        <time>2020-10-21T13:39:58Z</time>
      </trkpt>
      <trkpt lat="43.40088" lon="5.52623">
        <ele>627</ele>
        <time>2020-10-21T13:40:30Z</time>
      </trkpt>
      <trkpt lat="43.40084" lon="5.52622">
        <ele>628</ele>
        <time>2020-10-21T13:40:56Z</time>
      </trkpt>
      <trkpt lat="43.40081" lon="5.52628">
        <ele>617</ele>
        <time>2020-10-21T13:41:32Z</time>
      </trkpt>
      <trkpt lat="43.40082" lon="5.52635">
        <ele>616</ele>
        <time>2020-10-21T13:41:44Z</time>
      </trkpt>
      <trkpt lat="43.40084" lon="5.52641">
        <ele>623</ele>
        <time>2020-10-21T13:41:56Z</time>
      </trkpt>
      <trkpt lat="43.40082" lon="5.52647">
        <ele>614</ele>
        <time>2020-10-21T13:42:30Z</time>
      </trkpt>
      <trkpt lat="43.40081" lon="5.52653">
        <ele>613</ele>
        <time>2020-10-21T13:42:54Z</time>
      </trkpt>
      <trkpt lat="43.4008" lon="5.52661">
        <ele>613</ele>
        <time>2020-10-21T13:43:20Z</time>
      </trkpt>
      <trkpt lat="43.4008" lon="5.52667">
        <ele>610</ele>
        <time>2020-10-21T13:43:36Z</time>
      </trkpt>
      <trkpt lat="43.40082" lon="5.52673">
        <ele>607</ele>
        <time>2020-10-21T13:44:16Z</time>
      </trkpt>
      <trkpt lat="43.40079" lon="5.52678">
        <ele>604</ele>
        <time>2020-10-21T13:44:58Z</time>
      </trkpt>
      <trkpt lat="43.40077" lon="5.52683">
        <ele>600</ele>
        <time>2020-10-21T13:45:16Z</time>
      </trkpt>
      <trkpt lat="43.40076" lon="5.5269">
        <ele>597</ele>
        <time>2020-10-21T13:45:28Z</time>
      </trkpt>
      <trkpt lat="43.40078" lon="5.52696">
        <ele>596</ele>
        <time>2020-10-21T13:45:34Z</time>
      </trkpt>
      <trkpt lat="43.40078" lon="5.52703">
        <ele>594</ele>
        <time>2020-10-21T13:45:44Z</time>
      </trkpt>
      <trkpt lat="43.40078" lon="5.5271">
        <ele>592</ele>
        <time>2020-10-21T13:46:34Z</time>
      </trkpt>
      <trkpt lat="43.40077" lon="5.52717">
        <ele>591</ele>
        <time>2020-10-21T13:46:40Z</time>
      </trkpt>
      <trkpt lat="43.4008" lon="5.52724">
        <ele>591</ele>
        <time>2020-10-21T13:46:44Z</time>
      </trkpt>
      <trkpt lat="43.4008" lon="5.52732">
        <ele>590</ele>
        <time>2020-10-21T13:46:52Z</time>
      </trkpt>
      <trkpt lat="43.4008" lon="5.5274">
        <ele>590</ele>
        <time>2020-10-21T13:46:58Z</time>
      </trkpt>
      <trkpt lat="43.40076" lon="5.52746">
        <ele>589</ele>
        <time>2020-10-21T13:47:04Z</time>
      </trkpt>
      <trkpt lat="43.40072" lon="5.5275">
        <ele>589</ele>
        <time>2020-10-21T13:47:08Z</time>
      </trkpt>
      <trkpt lat="43.40067" lon="5.52756">
        <ele>585</ele>
        <time>2020-10-21T13:47:14Z</time>
      </trkpt>
      <trkpt lat="43.40064" lon="5.52762">
        <ele>584</ele>
        <time>2020-10-21T13:47:20Z</time>
      </trkpt>
      <trkpt lat="43.40062" lon="5.52768">
        <ele>583</ele>
        <time>2020-10-21T13:47:30Z</time>
      </trkpt>
      <trkpt lat="43.40064" lon="5.52774">
        <ele>583</ele>
        <time>2020-10-21T13:48:14Z</time>
      </trkpt>
      <trkpt lat="43.40062" lon="5.52781">
        <ele>583</ele>
        <time>2020-10-21T13:48:44Z</time>
      </trkpt>
      <trkpt lat="43.40059" lon="5.52786">
        <ele>582</ele>
        <time>2020-10-21T13:48:52Z</time>
      </trkpt>
      <trkpt lat="43.40056" lon="5.52792">
        <ele>582</ele>
        <time>2020-10-21T13:49:58Z</time>
      </trkpt>
      <trkpt lat="43.40053" lon="5.52797">
        <ele>582</ele>
        <time>2020-10-21T13:50:14Z</time>
      </trkpt>
      <trkpt lat="43.40048" lon="5.52801">
        <ele>582</ele>
        <time>2020-10-21T13:50:20Z</time>
      </trkpt>
      <trkpt lat="43.40044" lon="5.52805">
        <ele>582</ele>
        <time>2020-10-21T13:50:24Z</time>
      </trkpt>
      <trkpt lat="43.4004" lon="5.52812">
        <ele>582</ele>
        <time>2020-10-21T13:50:30Z</time>
      </trkpt>
      <trkpt lat="43.40036" lon="5.52817">
        <ele>582</ele>
        <time>2020-10-21T13:50:36Z</time>
      </trkpt>
      <trkpt lat="43.40031" lon="5.5282">
        <ele>582</ele>
        <time>2020-10-21T13:50:40Z</time>
      </trkpt>
      <trkpt lat="43.40028" lon="5.52825">
        <ele>582</ele>
        <time>2020-10-21T13:50:44Z</time>
      </trkpt>
      <trkpt lat="43.40024" lon="5.52829">
        <ele>582</ele>
        <time>2020-10-21T13:50:48Z</time>
      </trkpt>
      <trkpt lat="43.4002" lon="5.52836">
        <ele>582</ele>
        <time>2020-10-21T13:50:54Z</time>
      </trkpt>
      <trkpt lat="43.40016" lon="5.52842">
        <ele>582</ele>
        <time>2020-10-21T13:51:00Z</time>
      </trkpt>
      <trkpt lat="43.40013" lon="5.52851">
        <ele>582</ele>
        <time>2020-10-21T13:51:06Z</time>
      </trkpt>
      <trkpt lat="43.40009" lon="5.52858">
        <ele>582</ele>
        <time>2020-10-21T13:51:12Z</time>
      </trkpt>
      <trkpt lat="43.40008" lon="5.52864">
        <ele>582</ele>
        <time>2020-10-21T13:51:18Z</time>
      </trkpt>
      <trkpt lat="43.40005" lon="5.52869">
        <ele>582</ele>
        <time>2020-10-21T13:51:24Z</time>
      </trkpt>
      <trkpt lat="43.4" lon="5.52873">
        <ele>588</ele>
        <time>2020-10-21T13:51:30Z</time>
      </trkpt>
      <trkpt lat="43.39998" lon="5.5288">
        <ele>588</ele>
        <time>2020-10-21T13:51:36Z</time>
      </trkpt>
      <trkpt lat="43.39997" lon="5.52887">
        <ele>588</ele>
        <time>2020-10-21T13:51:42Z</time>
      </trkpt>
      <trkpt lat="43.39996" lon="5.52894">
        <ele>588</ele>
        <time>2020-10-21T13:51:48Z</time>
      </trkpt>
      <trkpt lat="43.39991" lon="5.52899">
        <ele>588</ele>
        <time>2020-10-21T13:51:54Z</time>
      </trkpt>
      <trkpt lat="43.39987" lon="5.52903">
        <ele>588</ele>
        <time>2020-10-21T13:51:58Z</time>
      </trkpt>
      <trkpt lat="43.39982" lon="5.52907">
        <ele>589</ele>
        <time>2020-10-21T13:52:04Z</time>
      </trkpt>
      <trkpt lat="43.39978" lon="5.52914">
        <ele>589</ele>
        <time>2020-10-21T13:52:10Z</time>
      </trkpt>
      <trkpt lat="43.39976" lon="5.5292">
        <ele>591</ele>
        <time>2020-10-21T13:52:14Z</time>
      </trkpt>
      <trkpt lat="43.39975" lon="5.52927">
        <ele>592</ele>
        <time>2020-10-21T13:52:20Z</time>
      </trkpt>
      <trkpt lat="43.39975" lon="5.52934">
        <ele>592</ele>
        <time>2020-10-21T13:52:24Z</time>
      </trkpt>
      <trkpt lat="43.39973" lon="5.52941">
        <ele>592</ele>
        <time>2020-10-21T13:52:28Z</time>
      </trkpt>
      <trkpt lat="43.39972" lon="5.52947">
        <ele>592</ele>
        <time>2020-10-21T13:52:32Z</time>
      </trkpt>
      <trkpt lat="43.3997" lon="5.52953">
        <ele>592</ele>
        <time>2020-10-21T13:52:36Z</time>
      </trkpt>
      <trkpt lat="43.39967" lon="5.52961">
        <ele>592</ele>
        <time>2020-10-21T13:52:42Z</time>
      </trkpt>
      <trkpt lat="43.39965" lon="5.52967">
        <ele>592</ele>
        <time>2020-10-21T13:52:46Z</time>
      </trkpt>
      <trkpt lat="43.39962" lon="5.52975">
        <ele>592</ele>
        <time>2020-10-21T13:52:52Z</time>
      </trkpt>
      <trkpt lat="43.39961" lon="5.52981">
        <ele>592</ele>
        <time>2020-10-21T13:52:58Z</time>
      </trkpt>
      <trkpt lat="43.39959" lon="5.52986">
        <ele>593</ele>
        <time>2020-10-21T13:53:04Z</time>
      </trkpt>
      <trkpt lat="43.39955" lon="5.52994">
        <ele>594</ele>
        <time>2020-10-21T13:53:10Z</time>
      </trkpt>
      <trkpt lat="43.39956" lon="5.53001">
        <ele>585</ele>
        <time>2020-10-21T13:53:16Z</time>
      </trkpt>
      <trkpt lat="43.39955" lon="5.53008">
        <ele>585</ele>
        <time>2020-10-21T13:53:20Z</time>
      </trkpt>
      <trkpt lat="43.39952" lon="5.53015">
        <ele>585</ele>
        <time>2020-10-21T13:53:26Z</time>
      </trkpt>
      <trkpt lat="43.3995" lon="5.53023">
        <ele>585</ele>
        <time>2020-10-21T13:53:34Z</time>
      </trkpt>
      <trkpt lat="43.3995" lon="5.5303">
        <ele>584</ele>
        <time>2020-10-21T13:53:38Z</time>
      </trkpt>
      <trkpt lat="43.39946" lon="5.53036">
        <ele>584</ele>
        <time>2020-10-21T13:53:44Z</time>
      </trkpt>
      <trkpt lat="43.39943" lon="5.5304">
        <ele>585</ele>
        <time>2020-10-21T13:53:50Z</time>
      </trkpt>
      <trkpt lat="43.39939" lon="5.53047">
        <ele>585</ele>
        <time>2020-10-21T13:53:58Z</time>
      </trkpt>
      <trkpt lat="43.39937" lon="5.53053">
        <ele>585</ele>
        <time>2020-10-21T13:54:04Z</time>
      </trkpt>
      <trkpt lat="43.39935" lon="5.5306">
        <ele>585</ele>
        <time>2020-10-21T13:54:10Z</time>
      </trkpt>
      <trkpt lat="43.39933" lon="5.53066">
        <ele>586</ele>
        <time>2020-10-21T13:54:16Z</time>
      </trkpt>
      <trkpt lat="43.39931" lon="5.53072">
        <ele>586</ele>
        <time>2020-10-21T13:54:22Z</time>
      </trkpt>
      <trkpt lat="43.39926" lon="5.53077">
        <ele>589</ele>
        <time>2020-10-21T13:54:28Z</time>
      </trkpt>
      <trkpt lat="43.39923" lon="5.53082">
        <ele>591</ele>
        <time>2020-10-21T13:54:34Z</time>
      </trkpt>
      <trkpt lat="43.39919" lon="5.53087">
        <ele>589</ele>
        <time>2020-10-21T13:54:42Z</time>
      </trkpt>
      <trkpt lat="43.39913" lon="5.53092">
        <ele>595</ele>
        <time>2020-10-21T13:54:48Z</time>
      </trkpt>
      <trkpt lat="43.39909" lon="5.53098">
        <ele>596</ele>
        <time>2020-10-21T13:54:54Z</time>
      </trkpt>
      <trkpt lat="43.39908" lon="5.53105">
        <ele>596</ele>
        <time>2020-10-21T13:55:00Z</time>
      </trkpt>
      <trkpt lat="43.39905" lon="5.5311">
        <ele>596</ele>
        <time>2020-10-21T13:55:06Z</time>
      </trkpt>
      <trkpt lat="43.39904" lon="5.53117">
        <ele>595</ele>
        <time>2020-10-21T13:55:12Z</time>
      </trkpt>
      <trkpt lat="43.39902" lon="5.53123">
        <ele>594</ele>
        <time>2020-10-21T13:55:18Z</time>
      </trkpt>
      <trkpt lat="43.399" lon="5.5313">
        <ele>593</ele>
        <time>2020-10-21T13:55:24Z</time>
      </trkpt>
      <trkpt lat="43.39897" lon="5.53137">
        <ele>592</ele>
        <time>2020-10-21T13:55:30Z</time>
      </trkpt>
      <trkpt lat="43.39895" lon="5.53143">
        <ele>592</ele>
        <time>2020-10-21T13:55:36Z</time>
      </trkpt>
      <trkpt lat="43.39893" lon="5.53151">
        <ele>590</ele>
        <time>2020-10-21T13:55:42Z</time>
      </trkpt>
      <trkpt lat="43.3989" lon="5.53158">
        <ele>590</ele>
        <time>2020-10-21T13:55:46Z</time>
      </trkpt>
      <trkpt lat="43.39888" lon="5.53164">
        <ele>590</ele>
        <time>2020-10-21T13:55:50Z</time>
      </trkpt>
      <trkpt lat="43.39887" lon="5.53172">
        <ele>578</ele>
        <time>2020-10-21T13:55:58Z</time>
      </trkpt>
      <trkpt lat="43.39888" lon="5.5318">
        <ele>578</ele>
        <time>2020-10-21T13:56:04Z</time>
      </trkpt>
      <trkpt lat="43.39886" lon="5.53187">
        <ele>578</ele>
        <time>2020-10-21T13:56:12Z</time>
      </trkpt>
      <trkpt lat="43.39879" lon="5.53187">
        <ele>579</ele>
        <time>2020-10-21T13:56:22Z</time>
      </trkpt>
      <trkpt lat="43.39874" lon="5.53186">
        <ele>580</ele>
        <time>2020-10-21T13:56:28Z</time>
      </trkpt>
      <trkpt lat="43.39868" lon="5.53187">
        <ele>582</ele>
        <time>2020-10-21T13:56:38Z</time>
      </trkpt>
      <trkpt lat="43.39863" lon="5.53187">
        <ele>583</ele>
        <time>2020-10-21T13:56:44Z</time>
      </trkpt>
      <trkpt lat="43.39858" lon="5.5319">
        <ele>584</ele>
        <time>2020-10-21T13:56:52Z</time>
      </trkpt>
      <trkpt lat="43.39853" lon="5.53193">
        <ele>584</ele>
        <time>2020-10-21T13:56:58Z</time>
      </trkpt>
      <trkpt lat="43.39849" lon="5.53195">
        <ele>584</ele>
        <time>2020-10-21T13:57:04Z</time>
      </trkpt>
      <trkpt lat="43.39844" lon="5.532">
        <ele>584</ele>
        <time>2020-10-21T13:57:12Z</time>
      </trkpt>
      <trkpt lat="43.39839" lon="5.53204">
        <ele>584</ele>
        <time>2020-10-21T13:57:20Z</time>
      </trkpt>
      <trkpt lat="43.39835" lon="5.53207">
        <ele>583</ele>
        <time>2020-10-21T13:57:26Z</time>
      </trkpt>
      <trkpt lat="43.39829" lon="5.53213">
        <ele>594</ele>
        <time>2020-10-21T13:57:34Z</time>
      </trkpt>
      <trkpt lat="43.39826" lon="5.53219">
        <ele>593</ele>
        <time>2020-10-21T13:57:40Z</time>
      </trkpt>
      <trkpt lat="43.39823" lon="5.53225">
        <ele>592</ele>
        <time>2020-10-21T13:57:46Z</time>
      </trkpt>
      <trkpt lat="43.39819" lon="5.5323">
        <ele>591</ele>
        <time>2020-10-21T13:57:50Z</time>
      </trkpt>
      <trkpt lat="43.39816" lon="5.53235">
        <ele>590</ele>
        <time>2020-10-21T13:57:56Z</time>
      </trkpt>
      <trkpt lat="43.39813" lon="5.53241">
        <ele>590</ele>
        <time>2020-10-21T13:58:02Z</time>
      </trkpt>
      <trkpt lat="43.3981" lon="5.53246">
        <ele>590</ele>
        <time>2020-10-21T13:58:10Z</time>
      </trkpt>
      <trkpt lat="43.39806" lon="5.53248">
        <ele>591</ele>
        <time>2020-10-21T13:58:18Z</time>
      </trkpt>
      <trkpt lat="43.398" lon="5.5325">
        <ele>583</ele>
        <time>2020-10-21T13:58:24Z</time>
      </trkpt>
      <trkpt lat="43.39796" lon="5.53254">
        <ele>584</ele>
        <time>2020-10-21T13:58:30Z</time>
      </trkpt>
      <trkpt lat="43.39794" lon="5.53261">
        <ele>584</ele>
        <time>2020-10-21T13:58:38Z</time>
      </trkpt>
      <trkpt lat="43.39792" lon="5.53269">
        <ele>584</ele>
        <time>2020-10-21T13:58:46Z</time>
      </trkpt>
      <trkpt lat="43.39789" lon="5.53276">
        <ele>584</ele>
        <time>2020-10-21T13:58:52Z</time>
      </trkpt>
      <trkpt lat="43.39787" lon="5.53282">
        <ele>583</ele>
        <time>2020-10-21T13:58:56Z</time>
      </trkpt>
      <trkpt lat="43.39784" lon="5.53287">
        <ele>583</ele>
        <time>2020-10-21T13:59:00Z</time>
      </trkpt>
      <trkpt lat="43.39782" lon="5.53293">
        <ele>583</ele>
        <time>2020-10-21T13:59:08Z</time>
      </trkpt>
      <trkpt lat="43.39777" lon="5.53299">
        <ele>583</ele>
        <time>2020-10-21T13:59:20Z</time>
      </trkpt>
      <trkpt lat="43.39773" lon="5.53303">
        <ele>583</ele>
        <time>2020-10-21T13:59:24Z</time>
      </trkpt>
      <trkpt lat="43.3977" lon="5.53307">
        <ele>583</ele>
        <time>2020-10-21T13:59:28Z</time>
      </trkpt>
      <trkpt lat="43.39766" lon="5.53312">
        <ele>583</ele>
        <time>2020-10-21T13:59:36Z</time>
      </trkpt>
      <trkpt lat="43.39765" lon="5.53319">
        <ele>583</ele>
        <time>2020-10-21T13:59:44Z</time>
      </trkpt>
      <trkpt lat="43.3976" lon="5.53321">
        <ele>584</ele>
        <time>2020-10-21T13:59:50Z</time>
      </trkpt>
      <trkpt lat="43.39756" lon="5.53324">
        <ele>584</ele>
        <time>2020-10-21T13:59:56Z</time>
      </trkpt>
      <trkpt lat="43.3975" lon="5.53328">
        <ele>584</ele>
        <time>2020-10-21T14:00:04Z</time>
      </trkpt>
      <trkpt lat="43.39745" lon="5.53329">
        <ele>585</ele>
        <time>2020-10-21T14:00:12Z</time>
      </trkpt>
      <trkpt lat="43.3974" lon="5.53333">
        <ele>584</ele>
        <time>2020-10-21T14:00:24Z</time>
      </trkpt>
      <trkpt lat="43.39734" lon="5.53336">
        <ele>578</ele>
        <time>2020-10-21T14:00:30Z</time>
      </trkpt>
      <trkpt lat="43.39729" lon="5.53339">
        <ele>576</ele>
        <time>2020-10-21T14:00:36Z</time>
      </trkpt>
      <trkpt lat="43.39723" lon="5.53342">
        <ele>575</ele>
        <time>2020-10-21T14:00:42Z</time>
      </trkpt>
      <trkpt lat="43.39719" lon="5.53346">
        <ele>574</ele>
        <time>2020-10-21T14:00:50Z</time>
      </trkpt>
      <trkpt lat="43.39715" lon="5.53351">
        <ele>573</ele>
        <time>2020-10-21T14:01:00Z</time>
      </trkpt>
      <trkpt lat="43.3971" lon="5.53355">
        <ele>572</ele>
        <time>2020-10-21T14:01:10Z</time>
      </trkpt>
      <trkpt lat="43.39704" lon="5.53356">
        <ele>571</ele>
        <time>2020-10-21T14:01:16Z</time>
      </trkpt>
      <trkpt lat="43.397" lon="5.53359">
        <ele>570</ele>
        <time>2020-10-21T14:01:24Z</time>
      </trkpt>
      <trkpt lat="43.39695" lon="5.53364">
        <ele>570</ele>
        <time>2020-10-21T14:01:32Z</time>
      </trkpt>
      <trkpt lat="43.39691" lon="5.53368">
        <ele>569</ele>
        <time>2020-10-21T14:01:38Z</time>
      </trkpt>
      <trkpt lat="43.39686" lon="5.5337">
        <ele>569</ele>
        <time>2020-10-21T14:01:44Z</time>
      </trkpt>
      <trkpt lat="43.39682" lon="5.53367">
        <ele>569</ele>
        <time>2020-10-21T14:03:50Z</time>
      </trkpt>
      <trkpt lat="43.3968" lon="5.53373">
        <ele>568</ele>
        <time>2020-10-21T14:04:30Z</time>
      </trkpt>
      <trkpt lat="43.39679" lon="5.5338">
        <ele>567</ele>
        <time>2020-10-21T14:04:40Z</time>
      </trkpt>
      <trkpt lat="43.39677" lon="5.53387">
        <ele>566</ele>
        <time>2020-10-21T14:04:48Z</time>
      </trkpt>
      <trkpt lat="43.39673" lon="5.53393">
        <ele>564</ele>
        <time>2020-10-21T14:04:54Z</time>
      </trkpt>
      <trkpt lat="43.39671" lon="5.53398">
        <ele>563</ele>
        <time>2020-10-21T14:05:00Z</time>
      </trkpt>
      <trkpt lat="43.39667" lon="5.53403">
        <ele>562</ele>
        <time>2020-10-21T14:05:06Z</time>
      </trkpt>
      <trkpt lat="43.39663" lon="5.53407">
        <ele>555</ele>
        <time>2020-10-21T14:05:14Z</time>
      </trkpt>
      <trkpt lat="43.39658" lon="5.53406">
        <ele>554</ele>
        <time>2020-10-21T14:05:40Z</time>
      </trkpt>
      <trkpt lat="43.39653" lon="5.53407">
        <ele>553</ele>
        <time>2020-10-21T14:05:52Z</time>
      </trkpt>
      <trkpt lat="43.39648" lon="5.53407">
        <ele>553</ele>
        <time>2020-10-21T14:06:08Z</time>
      </trkpt>
      <trkpt lat="43.39643" lon="5.53405">
        <ele>552</ele>
        <time>2020-10-21T14:06:24Z</time>
      </trkpt>
      <trkpt lat="43.39638" lon="5.53403">
        <ele>551</ele>
        <time>2020-10-21T14:06:42Z</time>
      </trkpt>
      <trkpt lat="43.39634" lon="5.53401">
        <ele>551</ele>
        <time>2020-10-21T14:06:52Z</time>
      </trkpt>
      <trkpt lat="43.39629" lon="5.53401">
        <ele>550</ele>
        <time>2020-10-21T14:07:08Z</time>
      </trkpt>
      <trkpt lat="43.39624" lon="5.53403">
        <ele>549</ele>
        <time>2020-10-21T14:07:20Z</time>
      </trkpt>
      <trkpt lat="43.39619" lon="5.53402">
        <ele>548</ele>
        <time>2020-10-21T14:07:32Z</time>
      </trkpt>
      <trkpt lat="43.39614" lon="5.534">
        <ele>547</ele>
        <time>2020-10-21T14:07:46Z</time>
      </trkpt>
      <trkpt lat="43.39609" lon="5.534">
        <ele>546</ele>
        <time>2020-10-21T14:07:58Z</time>
      </trkpt>
      <trkpt lat="43.39604" lon="5.53396">
        <ele>546</ele>
        <time>2020-10-21T14:08:14Z</time>
      </trkpt>
      <trkpt lat="43.39599" lon="5.53395">
        <ele>545</ele>
        <time>2020-10-21T14:08:26Z</time>
      </trkpt>
      <trkpt lat="43.39595" lon="5.53393">
        <ele>545</ele>
        <time>2020-10-21T14:08:36Z</time>
      </trkpt>
      <trkpt lat="43.3959" lon="5.53391">
        <ele>545</ele>
        <time>2020-10-21T14:08:46Z</time>
      </trkpt>
      <trkpt lat="43.39585" lon="5.53391">
        <ele>544</ele>
        <time>2020-10-21T14:09:12Z</time>
      </trkpt>
      <trkpt lat="43.39581" lon="5.53395">
        <ele>541</ele>
        <time>2020-10-21T14:10:16Z</time>
      </trkpt>
      <trkpt lat="43.39576" lon="5.53396">
        <ele>541</ele>
        <time>2020-10-21T14:12:22Z</time>
      </trkpt>
      <trkpt lat="43.39571" lon="5.53396">
        <ele>541</ele>
        <time>2020-10-21T14:12:34Z</time>
      </trkpt>
      <trkpt lat="43.39566" lon="5.53396">
        <ele>542</ele>
        <time>2020-10-21T14:12:48Z</time>
      </trkpt>
      <trkpt lat="43.39561" lon="5.53398">
        <ele>542</ele>
        <time>2020-10-21T14:12:56Z</time>
      </trkpt>
      <trkpt lat="43.39557" lon="5.53395">
        <ele>543</ele>
        <time>2020-10-21T14:13:06Z</time>
      </trkpt>
      <trkpt lat="43.39555" lon="5.53401">
        <ele>543</ele>
        <time>2020-10-21T14:13:18Z</time>
      </trkpt>
      <trkpt lat="43.39552" lon="5.53408">
        <ele>543</ele>
        <time>2020-10-21T14:13:28Z</time>
      </trkpt>
      <trkpt lat="43.39549" lon="5.53414">
        <ele>543</ele>
        <time>2020-10-21T14:13:38Z</time>
      </trkpt>
      <trkpt lat="43.39544" lon="5.53415">
        <ele>544</ele>
        <time>2020-10-21T14:13:48Z</time>
      </trkpt>
      <trkpt lat="43.39539" lon="5.53416">
        <ele>545</ele>
        <time>2020-10-21T14:13:54Z</time>
      </trkpt>
      <trkpt lat="43.39534" lon="5.53417">
        <ele>546</ele>
        <time>2020-10-21T14:14:02Z</time>
      </trkpt>
      <trkpt lat="43.39529" lon="5.53419">
        <ele>542</ele>
        <time>2020-10-21T14:14:08Z</time>
      </trkpt>
      <trkpt lat="43.39524" lon="5.53422">
        <ele>543</ele>
        <time>2020-10-21T14:14:16Z</time>
      </trkpt>
      <trkpt lat="43.3952" lon="5.53423">
        <ele>544</ele>
        <time>2020-10-21T14:14:26Z</time>
      </trkpt>
      <trkpt lat="43.39515" lon="5.53424">
        <ele>546</ele>
        <time>2020-10-21T14:14:36Z</time>
      </trkpt>
      <trkpt lat="43.3951" lon="5.53422">
        <ele>548</ele>
        <time>2020-10-21T14:14:48Z</time>
      </trkpt>
      <trkpt lat="43.39506" lon="5.53427">
        <ele>547</ele>
        <time>2020-10-21T14:15:00Z</time>
      </trkpt>
      <trkpt lat="43.39501" lon="5.53428">
        <ele>548</ele>
        <time>2020-10-21T14:15:10Z</time>
      </trkpt>
      <trkpt lat="43.39496" lon="5.53428">
        <ele>557</ele>
        <time>2020-10-21T14:15:18Z</time>
      </trkpt>
      <trkpt lat="43.39492" lon="5.53431">
        <ele>558</ele>
        <time>2020-10-21T14:15:30Z</time>
      </trkpt>
      <trkpt lat="43.39487" lon="5.53433">
        <ele>558</ele>
        <time>2020-10-21T14:15:44Z</time>
      </trkpt>
      <trkpt lat="43.39484" lon="5.53438">
        <ele>559</ele>
        <time>2020-10-21T14:15:54Z</time>
      </trkpt>
      <trkpt lat="43.39479" lon="5.53443">
        <ele>560</ele>
        <time>2020-10-21T14:16:06Z</time>
      </trkpt>
      <trkpt lat="43.39474" lon="5.53443">
        <ele>560</ele>
        <time>2020-10-21T14:16:14Z</time>
      </trkpt>
      <trkpt lat="43.39471" lon="5.53438">
        <ele>561</ele>
        <time>2020-10-21T14:16:24Z</time>
      </trkpt>
      <trkpt lat="43.39465" lon="5.53441">
        <ele>562</ele>
        <time>2020-10-21T14:16:36Z</time>
      </trkpt>
      <trkpt lat="43.39461" lon="5.53445">
        <ele>563</ele>
        <time>2020-10-21T14:16:48Z</time>
      </trkpt>
      <trkpt lat="43.39455" lon="5.53446">
        <ele>564</ele>
        <time>2020-10-21T14:16:58Z</time>
      </trkpt>
      <trkpt lat="43.39451" lon="5.53445">
        <ele>565</ele>
        <time>2020-10-21T14:17:06Z</time>
      </trkpt>
      <trkpt lat="43.39449" lon="5.53452">
        <ele>564</ele>
        <time>2020-10-21T14:17:16Z</time>
      </trkpt>
      <trkpt lat="43.39446" lon="5.53458">
        <ele>564</ele>
        <time>2020-10-21T14:17:24Z</time>
      </trkpt>
      <trkpt lat="43.39441" lon="5.53461">
        <ele>565</ele>
        <time>2020-10-21T14:17:38Z</time>
      </trkpt>
      <trkpt lat="43.39436" lon="5.53461">
        <ele>565</ele>
        <time>2020-10-21T14:17:48Z</time>
      </trkpt>
      <trkpt lat="43.39432" lon="5.53461">
        <ele>566</ele>
        <time>2020-10-21T14:18:24Z</time>
      </trkpt>
      <trkpt lat="43.39436" lon="5.53461">
        <ele>565</ele>
        <time>2020-10-21T14:21:28Z</time>
      </trkpt>
      <trkpt lat="43.39431" lon="5.53459">
        <ele>566</ele>
        <time>2020-10-21T14:23:46Z</time>
      </trkpt>
      <trkpt lat="43.39426" lon="5.53454">
        <ele>568</ele>
        <time>2020-10-21T14:23:52Z</time>
      </trkpt>
      <trkpt lat="43.39421" lon="5.53455">
        <ele>568</ele>
        <time>2020-10-21T14:23:58Z</time>
      </trkpt>
      <trkpt lat="43.39416" lon="5.53451">
        <ele>584</ele>
        <time>2020-10-21T14:24:10Z</time>
      </trkpt>
      <trkpt lat="43.3941" lon="5.53453">
        <ele>584</ele>
        <time>2020-10-21T14:24:20Z</time>
      </trkpt>
      <trkpt lat="43.39405" lon="5.53452">
        <ele>585</ele>
        <time>2020-10-21T14:24:26Z</time>
      </trkpt>
      <trkpt lat="43.394" lon="5.53453">
        <ele>585</ele>
        <time>2020-10-21T14:24:36Z</time>
      </trkpt>
      <trkpt lat="43.39394" lon="5.53454">
        <ele>585</ele>
        <time>2020-10-21T14:24:48Z</time>
      </trkpt>
      <trkpt lat="43.39389" lon="5.53455">
        <ele>586</ele>
        <time>2020-10-21T14:25:02Z</time>
      </trkpt>
      <trkpt lat="43.39385" lon="5.53455">
        <ele>586</ele>
        <time>2020-10-21T14:25:10Z</time>
      </trkpt>
      <trkpt lat="43.39379" lon="5.53453">
        <ele>587</ele>
        <time>2020-10-21T14:25:20Z</time>
      </trkpt>
      <trkpt lat="43.39375" lon="5.53452">
        <ele>588</ele>
        <time>2020-10-21T14:25:26Z</time>
      </trkpt>
      <trkpt lat="43.39369" lon="5.5345">
        <ele>589</ele>
        <time>2020-10-21T14:25:38Z</time>
      </trkpt>
      <trkpt lat="43.39364" lon="5.53449">
        <ele>590</ele>
        <time>2020-10-21T14:25:50Z</time>
      </trkpt>
      <trkpt lat="43.39359" lon="5.53449">
        <ele>591</ele>
        <time>2020-10-21T14:26:04Z</time>
      </trkpt>
      <trkpt lat="43.39354" lon="5.53446">
        <ele>593</ele>
        <time>2020-10-21T14:26:16Z</time>
      </trkpt>
      <trkpt lat="43.39348" lon="5.53448">
        <ele>593</ele>
        <time>2020-10-21T14:26:24Z</time>
      </trkpt>
      <trkpt lat="43.39344" lon="5.53448">
        <ele>593</ele>
        <time>2020-10-21T14:26:28Z</time>
      </trkpt>
      <trkpt lat="43.39339" lon="5.53448">
        <ele>594</ele>
        <time>2020-10-21T14:26:32Z</time>
      </trkpt>
      <trkpt lat="43.39334" lon="5.5345">
        <ele>594</ele>
        <time>2020-10-21T14:26:38Z</time>
      </trkpt>
      <trkpt lat="43.39329" lon="5.53451">
        <ele>601</ele>
        <time>2020-10-21T14:26:44Z</time>
      </trkpt>
      <trkpt lat="43.39324" lon="5.53453">
        <ele>600</ele>
        <time>2020-10-21T14:26:50Z</time>
      </trkpt>
      <trkpt lat="43.39319" lon="5.53453">
        <ele>600</ele>
        <time>2020-10-21T14:26:56Z</time>
      </trkpt>
      <trkpt lat="43.39313" lon="5.53451">
        <ele>601</ele>
        <time>2020-10-21T14:27:02Z</time>
      </trkpt>
      <trkpt lat="43.39308" lon="5.5345">
        <ele>601</ele>
        <time>2020-10-21T14:27:10Z</time>
      </trkpt>
      <trkpt lat="43.39303" lon="5.53453">
        <ele>600</ele>
        <time>2020-10-21T14:27:28Z</time>
      </trkpt>
      <trkpt lat="43.39297" lon="5.53451">
        <ele>601</ele>
        <time>2020-10-21T14:27:46Z</time>
      </trkpt>
      <trkpt lat="43.39293" lon="5.53448">
        <ele>601</ele>
        <time>2020-10-21T14:27:58Z</time>
      </trkpt>
      <trkpt lat="43.3929" lon="5.53444">
        <ele>601</ele>
        <time>2020-10-21T14:28:26Z</time>
      </trkpt>
      <trkpt lat="43.39285" lon="5.53443">
        <ele>601</ele>
        <time>2020-10-21T14:28:40Z</time>
      </trkpt>
      <trkpt lat="43.39283" lon="5.53436">
        <ele>602</ele>
        <time>2020-10-21T14:28:50Z</time>
      </trkpt>
      <trkpt lat="43.39278" lon="5.53434">
        <ele>602</ele>
        <time>2020-10-21T14:28:58Z</time>
      </trkpt>
      <trkpt lat="43.39274" lon="5.53437">
        <ele>602</ele>
        <time>2020-10-21T14:29:06Z</time>
      </trkpt>
      <trkpt lat="43.39269" lon="5.53437">
        <ele>602</ele>
        <time>2020-10-21T14:29:36Z</time>
      </trkpt>
      <trkpt lat="43.39265" lon="5.53442">
        <ele>602</ele>
        <time>2020-10-21T14:32:00Z</time>
      </trkpt>
      <trkpt lat="43.39262" lon="5.53448">
        <ele>601</ele>
        <time>2020-10-21T14:32:10Z</time>
      </trkpt>
      <trkpt lat="43.39259" lon="5.53453">
        <ele>601</ele>
        <time>2020-10-21T14:32:22Z</time>
      </trkpt>
      <trkpt lat="43.39257" lon="5.53458">
        <ele>601</ele>
        <time>2020-10-21T14:32:30Z</time>
      </trkpt>
      <trkpt lat="43.39252" lon="5.53462">
        <ele>600</ele>
        <time>2020-10-21T14:32:38Z</time>
      </trkpt>
      <trkpt lat="43.39247" lon="5.53463">
        <ele>605</ele>
        <time>2020-10-21T14:32:44Z</time>
      </trkpt>
      <trkpt lat="43.39242" lon="5.53467">
        <ele>605</ele>
        <time>2020-10-21T14:33:14Z</time>
      </trkpt>
      <trkpt lat="43.3924" lon="5.53472">
        <ele>605</ele>
        <time>2020-10-21T14:33:20Z</time>
      </trkpt>
      <trkpt lat="43.39236" lon="5.53479">
        <ele>605</ele>
        <time>2020-10-21T14:33:28Z</time>
      </trkpt>
      <trkpt lat="43.39234" lon="5.53486">
        <ele>605</ele>
        <time>2020-10-21T14:33:38Z</time>
      </trkpt>
      <trkpt lat="43.39231" lon="5.53491">
        <ele>605</ele>
        <time>2020-10-21T14:33:44Z</time>
      </trkpt>
      <trkpt lat="43.39227" lon="5.53496">
        <ele>605</ele>
        <time>2020-10-21T14:33:52Z</time>
      </trkpt>
      <trkpt lat="43.39222" lon="5.535">
        <ele>600</ele>
        <time>2020-10-21T14:34:00Z</time>
      </trkpt>
      <trkpt lat="43.39217" lon="5.53504">
        <ele>600</ele>
        <time>2020-10-21T14:34:06Z</time>
      </trkpt>
      <trkpt lat="43.39212" lon="5.53503">
        <ele>601</ele>
        <time>2020-10-21T14:34:14Z</time>
      </trkpt>
      <trkpt lat="43.39207" lon="5.53502">
        <ele>602</ele>
        <time>2020-10-21T14:34:22Z</time>
      </trkpt>
      <trkpt lat="43.39201" lon="5.53503">
        <ele>603</ele>
        <time>2020-10-21T14:34:32Z</time>
      </trkpt>
      <trkpt lat="43.39196" lon="5.53502">
        <ele>605</ele>
        <time>2020-10-21T14:34:40Z</time>
      </trkpt>
      <trkpt lat="43.39191" lon="5.53504">
        <ele>606</ele>
        <time>2020-10-21T14:34:50Z</time>
      </trkpt>
      <trkpt lat="43.39186" lon="5.53504">
        <ele>608</ele>
        <time>2020-10-21T14:35:00Z</time>
      </trkpt>
      <trkpt lat="43.39183" lon="5.535">
        <ele>614</ele>
        <time>2020-10-21T14:35:10Z</time>
      </trkpt>
      <trkpt lat="43.39177" lon="5.535">
        <ele>613</ele>
        <time>2020-10-21T14:35:24Z</time>
      </trkpt>
      <trkpt lat="43.39172" lon="5.53503">
        <ele>615</ele>
        <time>2020-10-21T14:35:38Z</time>
      </trkpt>
      <trkpt lat="43.39168" lon="5.53506">
        <ele>615</ele>
        <time>2020-10-21T14:35:52Z</time>
      </trkpt>
      <trkpt lat="43.39164" lon="5.53507">
        <ele>619</ele>
        <time>2020-10-21T14:36:02Z</time>
      </trkpt>
      <trkpt lat="43.3916" lon="5.53512">
        <ele>619</ele>
        <time>2020-10-21T14:36:10Z</time>
      </trkpt>
      <trkpt lat="43.39155" lon="5.53513">
        <ele>619</ele>
        <time>2020-10-21T14:36:20Z</time>
      </trkpt>
      <trkpt lat="43.39153" lon="5.53519">
        <ele>619</ele>
        <time>2020-10-21T14:36:30Z</time>
      </trkpt>
      <trkpt lat="43.39149" lon="5.53524">
        <ele>619</ele>
        <time>2020-10-21T14:36:38Z</time>
      </trkpt>
      <trkpt lat="43.39145" lon="5.53527">
        <ele>619</ele>
        <time>2020-10-21T14:36:48Z</time>
      </trkpt>
      <trkpt lat="43.39142" lon="5.53534">
        <ele>618</ele>
        <time>2020-10-21T14:37:00Z</time>
      </trkpt>
      <trkpt lat="43.39141" lon="5.53542">
        <ele>618</ele>
        <time>2020-10-21T14:37:10Z</time>
      </trkpt>
      <trkpt lat="43.3914" lon="5.53548">
        <ele>618</ele>
        <time>2020-10-21T14:37:18Z</time>
      </trkpt>
      <trkpt lat="43.39138" lon="5.53554">
        <ele>617</ele>
        <time>2020-10-21T14:37:26Z</time>
      </trkpt>
      <trkpt lat="43.39139" lon="5.5356">
        <ele>617</ele>
        <time>2020-10-21T14:37:34Z</time>
      </trkpt>
      <trkpt lat="43.39135" lon="5.53565">
        <ele>617</ele>
        <time>2020-10-21T14:37:52Z</time>
      </trkpt>
      <trkpt lat="43.39129" lon="5.53568">
        <ele>618</ele>
        <time>2020-10-21T14:38:00Z</time>
      </trkpt>
      <trkpt lat="43.39125" lon="5.53571">
        <ele>618</ele>
        <time>2020-10-21T14:38:06Z</time>
      </trkpt>
      <trkpt lat="43.39121" lon="5.53575">
        <ele>619</ele>
        <time>2020-10-21T14:38:12Z</time>
      </trkpt>
      <trkpt lat="43.39118" lon="5.53581">
        <ele>619</ele>
        <time>2020-10-21T14:38:56Z</time>
      </trkpt>
      <trkpt lat="43.39117" lon="5.53589">
        <ele>613</ele>
        <time>2020-10-21T14:39:04Z</time>
      </trkpt>
      <trkpt lat="43.39117" lon="5.53595">
        <ele>612</ele>
        <time>2020-10-21T14:39:14Z</time>
      </trkpt>
      <trkpt lat="43.39114" lon="5.53601">
        <ele>612</ele>
        <time>2020-10-21T14:39:26Z</time>
      </trkpt>
      <trkpt lat="43.39119" lon="5.53603">
        <ele>611</ele>
        <time>2020-10-21T14:43:04Z</time>
      </trkpt>
      <trkpt lat="43.39117" lon="5.53596">
        <ele>612</ele>
        <time>2020-10-21T14:44:14Z</time>
      </trkpt>
      <trkpt lat="43.39117" lon="5.53589">
        <ele>613</ele>
        <time>2020-10-21T14:44:20Z</time>
      </trkpt>
      <trkpt lat="43.39118" lon="5.53581">
        <ele>619</ele>
        <time>2020-10-21T14:44:28Z</time>
      </trkpt>
      <trkpt lat="43.39118" lon="5.53574">
        <ele>619</ele>
        <time>2020-10-21T14:44:34Z</time>
      </trkpt>
      <trkpt lat="43.39118" lon="5.53566">
        <ele>619</ele>
        <time>2020-10-21T14:44:40Z</time>
      </trkpt>
      <trkpt lat="43.39117" lon="5.53559">
        <ele>619</ele>
        <time>2020-10-21T14:44:46Z</time>
      </trkpt>
      <trkpt lat="43.39116" lon="5.53553">
        <ele>619</ele>
        <time>2020-10-21T14:44:52Z</time>
      </trkpt>
      <trkpt lat="43.39114" lon="5.53547">
        <ele>619</ele>
        <time>2020-10-21T14:44:58Z</time>
      </trkpt>
      <trkpt lat="43.39113" lon="5.5354">
        <ele>619</ele>
        <time>2020-10-21T14:45:04Z</time>
      </trkpt>
      <trkpt lat="43.39112" lon="5.53533">
        <ele>619</ele>
        <time>2020-10-21T14:45:10Z</time>
      </trkpt>
      <trkpt lat="43.39108" lon="5.5353">
        <ele>620</ele>
        <time>2020-10-21T14:45:18Z</time>
      </trkpt>
      <trkpt lat="43.39103" lon="5.53528">
        <ele>620</ele>
        <time>2020-10-21T14:45:26Z</time>
      </trkpt>
      <trkpt lat="43.39098" lon="5.53524">
        <ele>620</ele>
        <time>2020-10-21T14:45:38Z</time>
      </trkpt>
      <trkpt lat="43.39096" lon="5.53518">
        <ele>620</ele>
        <time>2020-10-21T14:45:46Z</time>
      </trkpt>
      <trkpt lat="43.39093" lon="5.53512">
        <ele>620</ele>
        <time>2020-10-21T14:45:54Z</time>
      </trkpt>
      <trkpt lat="43.39089" lon="5.53506">
        <ele>621</ele>
        <time>2020-10-21T14:46:02Z</time>
      </trkpt>
      <trkpt lat="43.39086" lon="5.535">
        <ele>621</ele>
        <time>2020-10-21T14:46:08Z</time>
      </trkpt>
      <trkpt lat="43.39084" lon="5.53494">
        <ele>619</ele>
        <time>2020-10-21T14:46:14Z</time>
      </trkpt>
      <trkpt lat="43.39078" lon="5.53491">
        <ele>613</ele>
        <time>2020-10-21T14:46:20Z</time>
      </trkpt>
      <trkpt lat="43.39072" lon="5.53491">
        <ele>611</ele>
        <time>2020-10-21T14:46:26Z</time>
      </trkpt>
      <trkpt lat="43.39067" lon="5.53491">
        <ele>609</ele>
        <time>2020-10-21T14:46:30Z</time>
      </trkpt>
      <trkpt lat="43.39061" lon="5.53489">
        <ele>607</ele>
        <time>2020-10-21T14:46:36Z</time>
      </trkpt>
      <trkpt lat="43.39057" lon="5.53486">
        <ele>605</ele>
        <time>2020-10-21T14:46:40Z</time>
      </trkpt>
      <trkpt lat="43.39052" lon="5.5348">
        <ele>603</ele>
        <time>2020-10-21T14:46:48Z</time>
      </trkpt>
      <trkpt lat="43.39047" lon="5.53477">
        <ele>601</ele>
        <time>2020-10-21T14:46:54Z</time>
      </trkpt>
      <trkpt lat="43.39042" lon="5.53473">
        <ele>600</ele>
        <time>2020-10-21T14:46:58Z</time>
      </trkpt>
      <trkpt lat="43.39039" lon="5.53468">
        <ele>599</ele>
        <time>2020-10-21T14:47:02Z</time>
      </trkpt>
      <trkpt lat="43.39035" lon="5.53463">
        <ele>598</ele>
        <time>2020-10-21T14:47:06Z</time>
      </trkpt>
      <trkpt lat="43.39031" lon="5.53459">
        <ele>598</ele>
        <time>2020-10-21T14:47:10Z</time>
      </trkpt>
      <trkpt lat="43.39027" lon="5.53456">
        <ele>597</ele>
        <time>2020-10-21T14:47:16Z</time>
      </trkpt>
      <trkpt lat="43.39025" lon="5.53449">
        <ele>596</ele>
        <time>2020-10-21T14:47:22Z</time>
      </trkpt>
      <trkpt lat="43.39024" lon="5.53443">
        <ele>596</ele>
        <time>2020-10-21T14:47:28Z</time>
      </trkpt>
      <trkpt lat="43.3902" lon="5.53438">
        <ele>595</ele>
        <time>2020-10-21T14:47:34Z</time>
      </trkpt>
      <trkpt lat="43.39017" lon="5.53434">
        <ele>594</ele>
        <time>2020-10-21T14:47:40Z</time>
      </trkpt>
      <trkpt lat="43.39013" lon="5.5343">
        <ele>593</ele>
        <time>2020-10-21T14:47:44Z</time>
      </trkpt>
      <trkpt lat="43.39007" lon="5.5343">
        <ele>592</ele>
        <time>2020-10-21T14:47:48Z</time>
      </trkpt>
      <trkpt lat="43.39002" lon="5.53428">
        <ele>591</ele>
        <time>2020-10-21T14:47:54Z</time>
      </trkpt>
      <trkpt lat="43.38999" lon="5.53423">
        <ele>583</ele>
        <time>2020-10-21T14:47:58Z</time>
      </trkpt>
      <trkpt lat="43.38996" lon="5.53417">
        <ele>585</ele>
        <time>2020-10-21T14:48:02Z</time>
      </trkpt>
      <trkpt lat="43.38994" lon="5.5341">
        <ele>582</ele>
        <time>2020-10-21T14:48:08Z</time>
      </trkpt>
      <trkpt lat="43.3899" lon="5.53403">
        <ele>579</ele>
        <time>2020-10-21T14:48:14Z</time>
      </trkpt>
      <trkpt lat="43.38985" lon="5.53398">
        <ele>577</ele>
        <time>2020-10-21T14:48:20Z</time>
      </trkpt>
      <trkpt lat="43.3898" lon="5.53397">
        <ele>576</ele>
        <time>2020-10-21T14:48:24Z</time>
      </trkpt>
      <trkpt lat="43.38974" lon="5.53396">
        <ele>575</ele>
        <time>2020-10-21T14:48:28Z</time>
      </trkpt>
      <trkpt lat="43.38968" lon="5.53397">
        <ele>574</ele>
        <time>2020-10-21T14:48:34Z</time>
      </trkpt>
      <trkpt lat="43.38962" lon="5.53395">
        <ele>573</ele>
        <time>2020-10-21T14:48:40Z</time>
      </trkpt>
      <trkpt lat="43.38959" lon="5.5339">
        <ele>572</ele>
        <time>2020-10-21T14:48:46Z</time>
      </trkpt>
      <trkpt lat="43.38955" lon="5.53385">
        <ele>572</ele>
        <time>2020-10-21T14:48:58Z</time>
      </trkpt>
      <trkpt lat="43.38953" lon="5.53379">
        <ele>571</ele>
        <time>2020-10-21T14:49:04Z</time>
      </trkpt>
      <trkpt lat="43.38951" lon="5.53371">
        <ele>571</ele>
        <time>2020-10-21T14:49:12Z</time>
      </trkpt>
      <trkpt lat="43.38951" lon="5.53363">
        <ele>571</ele>
        <time>2020-10-21T14:49:20Z</time>
      </trkpt>
      <trkpt lat="43.38948" lon="5.53358">
        <ele>571</ele>
        <time>2020-10-21T14:49:26Z</time>
      </trkpt>
      <trkpt lat="43.38944" lon="5.53352">
        <ele>571</ele>
        <time>2020-10-21T14:49:34Z</time>
      </trkpt>
      <trkpt lat="43.3894" lon="5.53347">
        <ele>571</ele>
        <time>2020-10-21T14:49:40Z</time>
      </trkpt>
      <trkpt lat="43.38937" lon="5.53342">
        <ele>570</ele>
        <time>2020-10-21T14:49:46Z</time>
      </trkpt>
      <trkpt lat="43.38935" lon="5.53336">
        <ele>570</ele>
        <time>2020-10-21T14:49:56Z</time>
      </trkpt>
      <trkpt lat="43.38933" lon="5.53328">
        <ele>566</ele>
        <time>2020-10-21T14:50:04Z</time>
      </trkpt>
      <trkpt lat="43.38929" lon="5.53321">
        <ele>565</ele>
        <time>2020-10-21T14:50:10Z</time>
      </trkpt>
      <trkpt lat="43.38925" lon="5.53314">
        <ele>565</ele>
        <time>2020-10-21T14:50:16Z</time>
      </trkpt>
      <trkpt lat="43.38921" lon="5.53308">
        <ele>564</ele>
        <time>2020-10-21T14:50:22Z</time>
      </trkpt>
      <trkpt lat="43.38917" lon="5.53301">
        <ele>563</ele>
        <time>2020-10-21T14:50:28Z</time>
      </trkpt>
      <trkpt lat="43.38914" lon="5.53294">
        <ele>559</ele>
        <time>2020-10-21T14:50:34Z</time>
      </trkpt>
      <trkpt lat="43.3891" lon="5.53291">
        <ele>558</ele>
        <time>2020-10-21T14:50:38Z</time>
      </trkpt>
      <trkpt lat="43.38904" lon="5.53292">
        <ele>558</ele>
        <time>2020-10-21T14:50:44Z</time>
      </trkpt>
      <trkpt lat="43.389" lon="5.53295">
        <ele>558</ele>
        <time>2020-10-21T14:50:50Z</time>
      </trkpt>
      <trkpt lat="43.38898" lon="5.53304">
        <ele>558</ele>
        <time>2020-10-21T14:51:10Z</time>
      </trkpt>
      <trkpt lat="43.38897" lon="5.5331">
        <ele>559</ele>
        <time>2020-10-21T14:51:18Z</time>
      </trkpt>
      <trkpt lat="43.38896" lon="5.53317">
        <ele>560</ele>
        <time>2020-10-21T14:51:40Z</time>
      </trkpt>
      <trkpt lat="43.38894" lon="5.53324">
        <ele>560</ele>
        <time>2020-10-21T14:51:46Z</time>
      </trkpt>
      <trkpt lat="43.38893" lon="5.53333">
        <ele>560</ele>
        <time>2020-10-21T14:51:52Z</time>
      </trkpt>
      <trkpt lat="43.38892" lon="5.5334">
        <ele>557</ele>
        <time>2020-10-21T14:51:58Z</time>
      </trkpt>
      <trkpt lat="43.38892" lon="5.53348">
        <ele>556</ele>
        <time>2020-10-21T14:52:04Z</time>
      </trkpt>
      <trkpt lat="43.38892" lon="5.53357">
        <ele>555</ele>
        <time>2020-10-21T14:52:10Z</time>
      </trkpt>
      <trkpt lat="43.38894" lon="5.53365">
        <ele>554</ele>
        <time>2020-10-21T14:52:16Z</time>
      </trkpt>
      <trkpt lat="43.38896" lon="5.53371">
        <ele>554</ele>
        <time>2020-10-21T14:52:22Z</time>
      </trkpt>
      <trkpt lat="43.38899" lon="5.53379">
        <ele>554</ele>
        <time>2020-10-21T14:52:28Z</time>
      </trkpt>
      <trkpt lat="43.38902" lon="5.53384">
        <ele>554</ele>
        <time>2020-10-21T14:52:34Z</time>
      </trkpt>
      <trkpt lat="43.38906" lon="5.5339">
        <ele>555</ele>
        <time>2020-10-21T14:52:40Z</time>
      </trkpt>
      <trkpt lat="43.3891" lon="5.53396">
        <ele>556</ele>
        <time>2020-10-21T14:52:46Z</time>
      </trkpt>
      <trkpt lat="43.38914" lon="5.53401">
        <ele>557</ele>
        <time>2020-10-21T14:52:52Z</time>
      </trkpt>
      <trkpt lat="43.38918" lon="5.53407">
        <ele>565</ele>
        <time>2020-10-21T14:52:58Z</time>
      </trkpt>
      <trkpt lat="43.38921" lon="5.53412">
        <ele>564</ele>
        <time>2020-10-21T14:53:02Z</time>
      </trkpt>
      <trkpt lat="43.38923" lon="5.53418">
        <ele>564</ele>
        <time>2020-10-21T14:53:06Z</time>
      </trkpt>
      <trkpt lat="43.38926" lon="5.53422">
        <ele>565</ele>
        <time>2020-10-21T14:53:10Z</time>
      </trkpt>
      <trkpt lat="43.38929" lon="5.53429">
        <ele>566</ele>
        <time>2020-10-21T14:53:16Z</time>
      </trkpt>
      <trkpt lat="43.38932" lon="5.53436">
        <ele>566</ele>
        <time>2020-10-21T14:53:22Z</time>
      </trkpt>
      <trkpt lat="43.38935" lon="5.53443">
        <ele>567</ele>
        <time>2020-10-21T14:53:28Z</time>
      </trkpt>
      <trkpt lat="43.38937" lon="5.53452">
        <ele>567</ele>
        <time>2020-10-21T14:53:34Z</time>
      </trkpt>
      <trkpt lat="43.38939" lon="5.5346">
        <ele>566</ele>
        <time>2020-10-21T14:53:40Z</time>
      </trkpt>
      <trkpt lat="43.38942" lon="5.53467">
        <ele>566</ele>
        <time>2020-10-21T14:53:46Z</time>
      </trkpt>
      <trkpt lat="43.38945" lon="5.53475">
        <ele>565</ele>
        <time>2020-10-21T14:53:52Z</time>
      </trkpt>
      <trkpt lat="43.38947" lon="5.53483">
        <ele>565</ele>
        <time>2020-10-21T14:53:58Z</time>
      </trkpt>
      <trkpt lat="43.38949" lon="5.53491">
        <ele>565</ele>
        <time>2020-10-21T14:54:04Z</time>
      </trkpt>
      <trkpt lat="43.3895" lon="5.53499">
        <ele>565</ele>
        <time>2020-10-21T14:54:10Z</time>
      </trkpt>
      <trkpt lat="43.38953" lon="5.53507">
        <ele>560</ele>
        <time>2020-10-21T14:54:16Z</time>
      </trkpt>
      <trkpt lat="43.38954" lon="5.53514">
        <ele>561</ele>
        <time>2020-10-21T14:54:22Z</time>
      </trkpt>
      <trkpt lat="43.38955" lon="5.53522">
        <ele>561</ele>
        <time>2020-10-21T14:54:28Z</time>
      </trkpt>
      <trkpt lat="43.38957" lon="5.5353">
        <ele>561</ele>
        <time>2020-10-21T14:54:34Z</time>
      </trkpt>
      <trkpt lat="43.38958" lon="5.53536">
        <ele>561</ele>
        <time>2020-10-21T14:54:38Z</time>
      </trkpt>
      <trkpt lat="43.3896" lon="5.53542">
        <ele>561</ele>
        <time>2020-10-21T14:54:42Z</time>
      </trkpt>
      <trkpt lat="43.38961" lon="5.53551">
        <ele>561</ele>
        <time>2020-10-21T14:54:48Z</time>
      </trkpt>
      <trkpt lat="43.38963" lon="5.53557">
        <ele>561</ele>
        <time>2020-10-21T14:54:52Z</time>
      </trkpt>
      <trkpt lat="43.38963" lon="5.53566">
        <ele>561</ele>
        <time>2020-10-21T14:54:58Z</time>
      </trkpt>
      <trkpt lat="43.38964" lon="5.53574">
        <ele>561</ele>
        <time>2020-10-21T14:55:04Z</time>
      </trkpt>
      <trkpt lat="43.38965" lon="5.53583">
        <ele>561</ele>
        <time>2020-10-21T14:55:10Z</time>
      </trkpt>
      <trkpt lat="43.38966" lon="5.53591">
        <ele>561</ele>
        <time>2020-10-21T14:55:16Z</time>
      </trkpt>
      <trkpt lat="43.38967" lon="5.53599">
        <ele>562</ele>
        <time>2020-10-21T14:55:22Z</time>
      </trkpt>
      <trkpt lat="43.38968" lon="5.53606">
        <ele>562</ele>
        <time>2020-10-21T14:55:28Z</time>
      </trkpt>
      <trkpt lat="43.38969" lon="5.53614">
        <ele>562</ele>
        <time>2020-10-21T14:55:34Z</time>
      </trkpt>
      <trkpt lat="43.38969" lon="5.53622">
        <ele>562</ele>
        <time>2020-10-21T14:55:40Z</time>
      </trkpt>
      <trkpt lat="43.38969" lon="5.53629">
        <ele>562</ele>
        <time>2020-10-21T14:55:46Z</time>
      </trkpt>
      <trkpt lat="43.38966" lon="5.53635">
        <ele>562</ele>
        <time>2020-10-21T14:55:52Z</time>
      </trkpt>
      <trkpt lat="43.38962" lon="5.5364">
        <ele>561</ele>
        <time>2020-10-21T14:55:58Z</time>
      </trkpt>
      <trkpt lat="43.38956" lon="5.53644">
        <ele>560</ele>
        <time>2020-10-21T14:56:04Z</time>
      </trkpt>
      <trkpt lat="43.3895" lon="5.53648">
        <ele>559</ele>
        <time>2020-10-21T14:56:10Z</time>
      </trkpt>
      <trkpt lat="43.38947" lon="5.53653">
        <ele>558</ele>
        <time>2020-10-21T14:56:14Z</time>
      </trkpt>
      <trkpt lat="43.38942" lon="5.53655">
        <ele>557</ele>
        <time>2020-10-21T14:56:18Z</time>
      </trkpt>
      <trkpt lat="43.38938" lon="5.53657">
        <ele>555</ele>
        <time>2020-10-21T14:56:22Z</time>
      </trkpt>
      <trkpt lat="43.38933" lon="5.5366">
        <ele>554</ele>
        <time>2020-10-21T14:56:28Z</time>
      </trkpt>
      <trkpt lat="43.38928" lon="5.53663">
        <ele>552</ele>
        <time>2020-10-21T14:56:34Z</time>
      </trkpt>
      <trkpt lat="43.38923" lon="5.53669">
        <ele>552</ele>
        <time>2020-10-21T14:56:40Z</time>
      </trkpt>
      <trkpt lat="43.38918" lon="5.53674">
        <ele>553</ele>
        <time>2020-10-21T14:56:46Z</time>
      </trkpt>
      <trkpt lat="43.38915" lon="5.53679">
        <ele>545</ele>
        <time>2020-10-21T14:56:50Z</time>
      </trkpt>
      <trkpt lat="43.38911" lon="5.53683">
        <ele>544</ele>
        <time>2020-10-21T14:56:54Z</time>
      </trkpt>
      <trkpt lat="43.38907" lon="5.53686">
        <ele>544</ele>
        <time>2020-10-21T14:56:58Z</time>
      </trkpt>
      <trkpt lat="43.38901" lon="5.5369">
        <ele>543</ele>
        <time>2020-10-21T14:57:04Z</time>
      </trkpt>
      <trkpt lat="43.38896" lon="5.53696">
        <ele>543</ele>
        <time>2020-10-21T14:57:10Z</time>
      </trkpt>
      <trkpt lat="43.38893" lon="5.53701">
        <ele>543</ele>
        <time>2020-10-21T14:57:14Z</time>
      </trkpt>
      <trkpt lat="43.3889" lon="5.53705">
        <ele>543</ele>
        <time>2020-10-21T14:57:18Z</time>
      </trkpt>
      <trkpt lat="43.38885" lon="5.53711">
        <ele>543</ele>
        <time>2020-10-21T14:57:24Z</time>
      </trkpt>
      <trkpt lat="43.38882" lon="5.53717">
        <ele>543</ele>
        <time>2020-10-21T14:57:30Z</time>
      </trkpt>
      <trkpt lat="43.38878" lon="5.5372">
        <ele>542</ele>
        <time>2020-10-21T14:57:34Z</time>
      </trkpt>
      <trkpt lat="43.38874" lon="5.53725">
        <ele>542</ele>
        <time>2020-10-21T14:57:38Z</time>
      </trkpt>
      <trkpt lat="43.38871" lon="5.53729">
        <ele>542</ele>
        <time>2020-10-21T14:57:42Z</time>
      </trkpt>
      <trkpt lat="43.38868" lon="5.53735">
        <ele>541</ele>
        <time>2020-10-21T14:57:48Z</time>
      </trkpt>
      <trkpt lat="43.38864" lon="5.53742">
        <ele>541</ele>
        <time>2020-10-21T14:57:54Z</time>
      </trkpt>
      <trkpt lat="43.38859" lon="5.53749">
        <ele>540</ele>
        <time>2020-10-21T14:58:00Z</time>
      </trkpt>
      <trkpt lat="43.38854" lon="5.53754">
        <ele>541</ele>
        <time>2020-10-21T14:58:06Z</time>
      </trkpt>
      <trkpt lat="43.38849" lon="5.53759">
        <ele>540</ele>
        <time>2020-10-21T14:58:12Z</time>
      </trkpt>
      <trkpt lat="43.38845" lon="5.53766">
        <ele>540</ele>
        <time>2020-10-21T14:58:18Z</time>
      </trkpt>
      <trkpt lat="43.38842" lon="5.53773">
        <ele>541</ele>
        <time>2020-10-21T14:58:24Z</time>
      </trkpt>
      <trkpt lat="43.38838" lon="5.53778">
        <ele>541</ele>
        <time>2020-10-21T14:58:30Z</time>
      </trkpt>
      <trkpt lat="43.38834" lon="5.53783">
        <ele>541</ele>
        <time>2020-10-21T14:58:36Z</time>
      </trkpt>
      <trkpt lat="43.38831" lon="5.53789">
        <ele>533</ele>
        <time>2020-10-21T14:58:42Z</time>
      </trkpt>
      <trkpt lat="43.38827" lon="5.53794">
        <ele>533</ele>
        <time>2020-10-21T14:58:48Z</time>
      </trkpt>
      <trkpt lat="43.38822" lon="5.538">
        <ele>533</ele>
        <time>2020-10-21T14:58:54Z</time>
      </trkpt>
      <trkpt lat="43.38819" lon="5.53805">
        <ele>533</ele>
        <time>2020-10-21T14:59:00Z</time>
      </trkpt>
      <trkpt lat="43.38814" lon="5.53809">
        <ele>533</ele>
        <time>2020-10-21T14:59:06Z</time>
      </trkpt>
      <trkpt lat="43.3881" lon="5.53814">
        <ele>533</ele>
        <time>2020-10-21T14:59:12Z</time>
      </trkpt>
      <trkpt lat="43.38808" lon="5.5382">
        <ele>533</ele>
        <time>2020-10-21T14:59:20Z</time>
      </trkpt>
      <trkpt lat="43.38808" lon="5.53826">
        <ele>533</ele>
        <time>2020-10-21T15:00:42Z</time>
      </trkpt>
      <trkpt lat="43.38809" lon="5.53833">
        <ele>533</ele>
        <time>2020-10-21T15:00:54Z</time>
      </trkpt>
      <trkpt lat="43.38813" lon="5.53838">
        <ele>531</ele>
        <time>2020-10-21T15:01:04Z</time>
      </trkpt>
      <trkpt lat="43.38816" lon="5.53842">
        <ele>531</ele>
        <time>2020-10-21T15:01:16Z</time>
      </trkpt>
      <trkpt lat="43.3882" lon="5.53847">
        <ele>531</ele>
        <time>2020-10-21T15:01:26Z</time>
      </trkpt>
      <trkpt lat="43.38823" lon="5.53852">
        <ele>530</ele>
        <time>2020-10-21T15:01:36Z</time>
      </trkpt>
      <trkpt lat="43.38828" lon="5.53856">
        <ele>530</ele>
        <time>2020-10-21T15:01:44Z</time>
      </trkpt>
      <trkpt lat="43.38832" lon="5.53861">
        <ele>529</ele>
        <time>2020-10-21T15:01:52Z</time>
      </trkpt>
      <trkpt lat="43.38835" lon="5.53867">
        <ele>527</ele>
        <time>2020-10-21T15:02:00Z</time>
      </trkpt>
      <trkpt lat="43.38839" lon="5.53872">
        <ele>526</ele>
        <time>2020-10-21T15:02:08Z</time>
      </trkpt>
      <trkpt lat="43.38842" lon="5.53877">
        <ele>525</ele>
        <time>2020-10-21T15:02:16Z</time>
      </trkpt>
      <trkpt lat="43.38846" lon="5.53881">
        <ele>524</ele>
        <time>2020-10-21T15:02:26Z</time>
      </trkpt>
      <trkpt lat="43.38849" lon="5.53887">
        <ele>523</ele>
        <time>2020-10-21T15:02:36Z</time>
      </trkpt>
      <trkpt lat="43.38853" lon="5.53892">
        <ele>522</ele>
        <time>2020-10-21T15:02:44Z</time>
      </trkpt>
      <trkpt lat="43.38856" lon="5.53899">
        <ele>522</ele>
        <time>2020-10-21T15:02:54Z</time>
      </trkpt>
      <trkpt lat="43.3886" lon="5.53905">
        <ele>521</ele>
        <time>2020-10-21T15:03:00Z</time>
      </trkpt>
      <trkpt lat="43.38863" lon="5.5391">
        <ele>521</ele>
        <time>2020-10-21T15:03:12Z</time>
      </trkpt>
      <trkpt lat="43.38865" lon="5.53917">
        <ele>505</ele>
        <time>2020-10-21T15:03:24Z</time>
      </trkpt>
      <trkpt lat="43.38866" lon="5.53924">
        <ele>504</ele>
        <time>2020-10-21T15:03:34Z</time>
      </trkpt>
      <trkpt lat="43.38867" lon="5.5393">
        <ele>504</ele>
        <time>2020-10-21T15:03:42Z</time>
      </trkpt>
      <trkpt lat="43.38869" lon="5.53936">
        <ele>503</ele>
        <time>2020-10-21T15:03:50Z</time>
      </trkpt>
      <trkpt lat="43.38869" lon="5.53943">
        <ele>502</ele>
        <time>2020-10-21T15:03:58Z</time>
      </trkpt>
      <trkpt lat="43.3887" lon="5.53949">
        <ele>501</ele>
        <time>2020-10-21T15:04:04Z</time>
      </trkpt>
      <trkpt lat="43.38872" lon="5.53955">
        <ele>500</ele>
        <time>2020-10-21T15:04:12Z</time>
      </trkpt>
      <trkpt lat="43.38874" lon="5.53961">
        <ele>500</ele>
        <time>2020-10-21T15:04:18Z</time>
      </trkpt>
      <trkpt lat="43.38876" lon="5.53967">
        <ele>499</ele>
        <time>2020-10-21T15:04:26Z</time>
      </trkpt>
      <trkpt lat="43.38877" lon="5.53975">
        <ele>497</ele>
        <time>2020-10-21T15:04:34Z</time>
      </trkpt>
      <trkpt lat="43.38879" lon="5.53981">
        <ele>497</ele>
        <time>2020-10-21T15:04:40Z</time>
      </trkpt>
      <trkpt lat="43.3888" lon="5.53987">
        <ele>496</ele>
        <time>2020-10-21T15:04:48Z</time>
      </trkpt>
      <trkpt lat="43.38884" lon="5.53993">
        <ele>495</ele>
        <time>2020-10-21T15:04:58Z</time>
      </trkpt>
      <trkpt lat="43.38888" lon="5.53997">
        <ele>495</ele>
        <time>2020-10-21T15:05:12Z</time>
      </trkpt>
      <trkpt lat="43.38893" lon="5.53999">
        <ele>494</ele>
        <time>2020-10-21T15:05:24Z</time>
      </trkpt>
      <trkpt lat="43.38897" lon="5.54001">
        <ele>481</ele>
        <time>2020-10-21T15:05:32Z</time>
      </trkpt>
      <trkpt lat="43.38902" lon="5.54001">
        <ele>482</ele>
        <time>2020-10-21T15:05:46Z</time>
      </trkpt>
      <trkpt lat="43.38906" lon="5.54004">
        <ele>483</ele>
        <time>2020-10-21T15:05:58Z</time>
      </trkpt>
      <trkpt lat="43.38911" lon="5.54007">
        <ele>483</ele>
        <time>2020-10-21T15:06:18Z</time>
      </trkpt>
      <trkpt lat="43.38916" lon="5.54008">
        <ele>484</ele>
        <time>2020-10-21T15:06:26Z</time>
      </trkpt>
      <trkpt lat="43.3892" lon="5.54011">
        <ele>480</ele>
        <time>2020-10-21T15:06:38Z</time>
      </trkpt>
      <trkpt lat="43.38925" lon="5.54014">
        <ele>478</ele>
        <time>2020-10-21T15:06:50Z</time>
      </trkpt>
      <trkpt lat="43.38928" lon="5.54018">
        <ele>475</ele>
        <time>2020-10-21T15:07:02Z</time>
      </trkpt>
      <trkpt lat="43.38932" lon="5.54023">
        <ele>473</ele>
        <time>2020-10-21T15:07:14Z</time>
      </trkpt>
      <trkpt lat="43.38934" lon="5.5403">
        <ele>471</ele>
        <time>2020-10-21T15:07:22Z</time>
      </trkpt>
      <trkpt lat="43.38936" lon="5.54037">
        <ele>469</ele>
        <time>2020-10-21T15:07:30Z</time>
      </trkpt>
      <trkpt lat="43.38936" lon="5.54044">
        <ele>468</ele>
        <time>2020-10-21T15:07:38Z</time>
      </trkpt>
      <trkpt lat="43.38938" lon="5.54051">
        <ele>466</ele>
        <time>2020-10-21T15:07:46Z</time>
      </trkpt>
      <trkpt lat="43.3894" lon="5.54058">
        <ele>465</ele>
        <time>2020-10-21T15:07:54Z</time>
      </trkpt>
      <trkpt lat="43.38942" lon="5.54064">
        <ele>464</ele>
        <time>2020-10-21T15:08:06Z</time>
      </trkpt>
      <trkpt lat="43.38944" lon="5.5407">
        <ele>464</ele>
        <time>2020-10-21T15:08:18Z</time>
      </trkpt>
      <trkpt lat="43.38944" lon="5.54077">
        <ele>463</ele>
        <time>2020-10-21T15:08:32Z</time>
      </trkpt>
      <trkpt lat="43.38944" lon="5.54084">
        <ele>452</ele>
        <time>2020-10-21T15:08:46Z</time>
      </trkpt>
      <trkpt lat="43.38944" lon="5.54091">
        <ele>451</ele>
        <time>2020-10-21T15:08:56Z</time>
      </trkpt>
      <trkpt lat="43.38941" lon="5.54097">
        <ele>451</ele>
        <time>2020-10-21T15:09:04Z</time>
      </trkpt>
      <trkpt lat="43.38939" lon="5.54103">
        <ele>451</ele>
        <time>2020-10-21T15:09:12Z</time>
      </trkpt>
      <trkpt lat="43.38937" lon="5.54109">
        <ele>450</ele>
        <time>2020-10-21T15:09:20Z</time>
      </trkpt>
      <trkpt lat="43.38935" lon="5.54116">
        <ele>449</ele>
        <time>2020-10-21T15:09:30Z</time>
      </trkpt>
      <trkpt lat="43.38932" lon="5.54122">
        <ele>449</ele>
        <time>2020-10-21T15:09:40Z</time>
      </trkpt>
      <trkpt lat="43.3893" lon="5.54129">
        <ele>448</ele>
        <time>2020-10-21T15:09:50Z</time>
      </trkpt>
      <trkpt lat="43.38927" lon="5.54134">
        <ele>447</ele>
        <time>2020-10-21T15:10:00Z</time>
      </trkpt>
      <trkpt lat="43.38924" lon="5.5414">
        <ele>446</ele>
        <time>2020-10-21T15:10:10Z</time>
      </trkpt>
      <trkpt lat="43.3892" lon="5.54145">
        <ele>446</ele>
        <time>2020-10-21T15:10:16Z</time>
      </trkpt>
      <trkpt lat="43.38917" lon="5.54151">
        <ele>445</ele>
        <time>2020-10-21T15:10:22Z</time>
      </trkpt>
      <trkpt lat="43.38916" lon="5.54158">
        <ele>445</ele>
        <time>2020-10-21T15:10:30Z</time>
      </trkpt>
      <trkpt lat="43.38917" lon="5.54164">
        <ele>443</ele>
        <time>2020-10-21T15:10:40Z</time>
      </trkpt>
      <trkpt lat="43.38919" lon="5.54171">
        <ele>441</ele>
        <time>2020-10-21T15:10:48Z</time>
      </trkpt>
      <trkpt lat="43.38924" lon="5.54174">
        <ele>440</ele>
        <time>2020-10-21T15:12:02Z</time>
      </trkpt>
      <trkpt lat="43.38929" lon="5.54175">
        <ele>439</ele>
        <time>2020-10-21T15:12:08Z</time>
      </trkpt>
      <trkpt lat="43.38935" lon="5.54176">
        <ele>438</ele>
        <time>2020-10-21T15:12:14Z</time>
      </trkpt>
      <trkpt lat="43.38941" lon="5.54176">
        <ele>438</ele>
        <time>2020-10-21T15:12:20Z</time>
      </trkpt>
      <trkpt lat="43.38946" lon="5.54178">
        <ele>437</ele>
        <time>2020-10-21T15:12:26Z</time>
      </trkpt>
      <trkpt lat="43.38951" lon="5.54178">
        <ele>437</ele>
        <time>2020-10-21T15:12:32Z</time>
      </trkpt>
      <trkpt lat="43.38956" lon="5.54177">
        <ele>437</ele>
        <time>2020-10-21T15:12:38Z</time>
      </trkpt>
      <trkpt lat="43.38961" lon="5.54177">
        <ele>437</ele>
        <time>2020-10-21T15:12:46Z</time>
      </trkpt>
      <trkpt lat="43.38966" lon="5.54175">
        <ele>437</ele>
        <time>2020-10-21T15:12:52Z</time>
      </trkpt>
      <trkpt lat="43.38972" lon="5.54174">
        <ele>437</ele>
        <time>2020-10-21T15:12:58Z</time>
      </trkpt>
      <trkpt lat="43.38979" lon="5.54176">
        <ele>437</ele>
        <time>2020-10-21T15:13:04Z</time>
      </trkpt>
      <trkpt lat="43.38983" lon="5.5418">
        <ele>437</ele>
        <time>2020-10-21T15:13:10Z</time>
      </trkpt>
      <trkpt lat="43.38987" lon="5.54185">
        <ele>437</ele>
        <time>2020-10-21T15:13:18Z</time>
      </trkpt>
      <trkpt lat="43.38991" lon="5.54189">
        <ele>437</ele>
        <time>2020-10-21T15:13:22Z</time>
      </trkpt>
      <trkpt lat="43.38996" lon="5.54194">
        <ele>437</ele>
        <time>2020-10-21T15:13:28Z</time>
      </trkpt>
      <trkpt lat="43.38997" lon="5.54202">
        <ele>436</ele>
        <time>2020-10-21T15:13:36Z</time>
      </trkpt>
      <trkpt lat="43.39003" lon="5.54203">
        <ele>435</ele>
        <time>2020-10-21T15:13:42Z</time>
      </trkpt>
      <trkpt lat="43.39008" lon="5.542">
        <ele>435</ele>
        <time>2020-10-21T15:13:48Z</time>
      </trkpt>
      <trkpt lat="43.39012" lon="5.54195">
        <ele>435</ele>
        <time>2020-10-21T15:13:54Z</time>
      </trkpt>
      <trkpt lat="43.39016" lon="5.54189">
        <ele>435</ele>
        <time>2020-10-21T15:14:02Z</time>
      </trkpt>
      <trkpt lat="43.39019" lon="5.54185">
        <ele>435</ele>
        <time>2020-10-21T15:14:08Z</time>
      </trkpt>
      <trkpt lat="43.39023" lon="5.54179">
        <ele>435</ele>
        <time>2020-10-21T15:14:16Z</time>
      </trkpt>
      <trkpt lat="43.39027" lon="5.54172">
        <ele>435</ele>
        <time>2020-10-21T15:14:22Z</time>
      </trkpt>
      <trkpt lat="43.39031" lon="5.54167">
        <ele>437</ele>
        <time>2020-10-21T15:14:28Z</time>
      </trkpt>
      <trkpt lat="43.39035" lon="5.54162">
        <ele>436</ele>
        <time>2020-10-21T15:14:34Z</time>
      </trkpt>
      <trkpt lat="43.39039" lon="5.54156">
        <ele>436</ele>
        <time>2020-10-21T15:14:40Z</time>
      </trkpt>
      <trkpt lat="43.39043" lon="5.54151">
        <ele>436</ele>
        <time>2020-10-21T15:14:46Z</time>
      </trkpt>
      <trkpt lat="43.39047" lon="5.54145">
        <ele>436</ele>
        <time>2020-10-21T15:14:52Z</time>
      </trkpt>
      <trkpt lat="43.39052" lon="5.5414">
        <ele>435</ele>
        <time>2020-10-21T15:14:58Z</time>
      </trkpt>
      <trkpt lat="43.39056" lon="5.54136">
        <ele>435</ele>
        <time>2020-10-21T15:15:04Z</time>
      </trkpt>
      <trkpt lat="43.3906" lon="5.54133">
        <ele>435</ele>
        <time>2020-10-21T15:15:10Z</time>
      </trkpt>
      <trkpt lat="43.39064" lon="5.54129">
        <ele>435</ele>
        <time>2020-10-21T15:15:14Z</time>
      </trkpt>
      <trkpt lat="43.3907" lon="5.54124">
        <ele>435</ele>
        <time>2020-10-21T15:15:20Z</time>
      </trkpt>
      <trkpt lat="43.39074" lon="5.54118">
        <ele>435</ele>
        <time>2020-10-21T15:15:26Z</time>
      </trkpt>
      <trkpt lat="43.39079" lon="5.54115">
        <ele>435</ele>
        <time>2020-10-21T15:15:32Z</time>
      </trkpt>
      <trkpt lat="43.39084" lon="5.54113">
        <ele>427</ele>
        <time>2020-10-21T15:15:38Z</time>
      </trkpt>
      <trkpt lat="43.3909" lon="5.54107">
        <ele>427</ele>
        <time>2020-10-21T15:15:44Z</time>
      </trkpt>
      <trkpt lat="43.39096" lon="5.541">
        <ele>428</ele>
        <time>2020-10-21T15:15:48Z</time>
      </trkpt>
      <trkpt lat="43.39101" lon="5.54096">
        <ele>428</ele>
        <time>2020-10-21T15:15:52Z</time>
      </trkpt>
      <trkpt lat="43.39107" lon="5.54093">
        <ele>427</ele>
        <time>2020-10-21T15:15:58Z</time>
      </trkpt>
      <trkpt lat="43.39113" lon="5.54092">
        <ele>427</ele>
        <time>2020-10-21T15:16:04Z</time>
      </trkpt>
      <trkpt lat="43.39119" lon="5.54092">
        <ele>426</ele>
        <time>2020-10-21T15:16:10Z</time>
      </trkpt>
      <trkpt lat="43.39125" lon="5.54092">
        <ele>426</ele>
        <time>2020-10-21T15:16:16Z</time>
      </trkpt>
      <trkpt lat="43.39131" lon="5.5409">
        <ele>425</ele>
        <time>2020-10-21T15:16:20Z</time>
      </trkpt>
      <trkpt lat="43.39136" lon="5.5409">
        <ele>425</ele>
        <time>2020-10-21T15:16:26Z</time>
      </trkpt>
      <trkpt lat="43.39142" lon="5.54089">
        <ele>425</ele>
        <time>2020-10-21T15:16:32Z</time>
      </trkpt>
      <trkpt lat="43.39148" lon="5.54086">
        <ele>424</ele>
        <time>2020-10-21T15:16:38Z</time>
      </trkpt>
      <trkpt lat="43.39153" lon="5.54081">
        <ele>430</ele>
        <time>2020-10-21T15:16:44Z</time>
      </trkpt>
      <trkpt lat="43.39158" lon="5.54074">
        <ele>430</ele>
        <time>2020-10-21T15:16:50Z</time>
      </trkpt>
      <trkpt lat="43.39161" lon="5.5407">
        <ele>430</ele>
        <time>2020-10-21T15:16:54Z</time>
      </trkpt>
      <trkpt lat="43.39165" lon="5.54064">
        <ele>432</ele>
        <time>2020-10-21T15:17:00Z</time>
      </trkpt>
      <trkpt lat="43.39169" lon="5.54061">
        <ele>427</ele>
        <time>2020-10-21T15:17:06Z</time>
      </trkpt>
      <trkpt lat="43.39175" lon="5.54059">
        <ele>427</ele>
        <time>2020-10-21T15:17:12Z</time>
      </trkpt>
      <trkpt lat="43.3918" lon="5.54058">
        <ele>428</ele>
        <time>2020-10-21T15:17:18Z</time>
      </trkpt>
      <trkpt lat="43.39186" lon="5.54056">
        <ele>428</ele>
        <time>2020-10-21T15:17:24Z</time>
      </trkpt>
      <trkpt lat="43.39192" lon="5.54052">
        <ele>428</ele>
        <time>2020-10-21T15:17:28Z</time>
      </trkpt>
      <trkpt lat="43.39197" lon="5.54049">
        <ele>428</ele>
        <time>2020-10-21T15:17:34Z</time>
      </trkpt>
      <trkpt lat="43.39203" lon="5.54048">
        <ele>428</ele>
        <time>2020-10-21T15:17:40Z</time>
      </trkpt>
      <trkpt lat="43.3921" lon="5.5405">
        <ele>427</ele>
        <time>2020-10-21T15:17:46Z</time>
      </trkpt>
      <trkpt lat="43.39216" lon="5.54053">
        <ele>427</ele>
        <time>2020-10-21T15:17:52Z</time>
      </trkpt>
      <trkpt lat="43.39221" lon="5.54058">
        <ele>426</ele>
        <time>2020-10-21T15:17:58Z</time>
      </trkpt>
      <trkpt lat="43.39227" lon="5.54062">
        <ele>425</ele>
        <time>2020-10-21T15:18:04Z</time>
      </trkpt>
      <trkpt lat="43.39231" lon="5.54067">
        <ele>424</ele>
        <time>2020-10-21T15:18:10Z</time>
      </trkpt>
      <trkpt lat="43.39236" lon="5.54071">
        <ele>423</ele>
        <time>2020-10-21T15:18:18Z</time>
      </trkpt>
      <trkpt lat="43.39239" lon="5.54077">
        <ele>422</ele>
        <time>2020-10-21T15:18:26Z</time>
      </trkpt>
      <trkpt lat="43.39245" lon="5.54079">
        <ele>420</ele>
        <time>2020-10-21T15:19:24Z</time>
      </trkpt>
      <trkpt lat="43.39246" lon="5.54086">
        <ele>418</ele>
        <time>2020-10-21T15:23:28Z</time>
      </trkpt>
      <trkpt lat="43.39249" lon="5.54095">
        <ele>417</ele>
        <time>2020-10-21T15:23:34Z</time>
      </trkpt>
      <trkpt lat="43.3925" lon="5.54101">
        <ele>416</ele>
        <time>2020-10-21T15:23:40Z</time>
      </trkpt>
      <trkpt lat="43.39251" lon="5.54109">
        <ele>410</ele>
        <time>2020-10-21T15:23:48Z</time>
      </trkpt>
      <trkpt lat="43.39255" lon="5.54113">
        <ele>410</ele>
        <time>2020-10-21T15:23:56Z</time>
      </trkpt>
      <trkpt lat="43.39257" lon="5.54118">
        <ele>409</ele>
        <time>2020-10-21T15:24:06Z</time>
      </trkpt>
      <trkpt lat="43.39258" lon="5.54126">
        <ele>408</ele>
        <time>2020-10-21T15:24:16Z</time>
      </trkpt>
      <trkpt lat="43.39259" lon="5.54134">
        <ele>407</ele>
        <time>2020-10-21T15:24:24Z</time>
      </trkpt>
      <trkpt lat="43.39261" lon="5.5414">
        <ele>407</ele>
        <time>2020-10-21T15:24:30Z</time>
      </trkpt>
      <trkpt lat="43.39263" lon="5.54146">
        <ele>407</ele>
        <time>2020-10-21T15:24:36Z</time>
      </trkpt>
      <trkpt lat="43.39265" lon="5.54153">
        <ele>406</ele>
        <time>2020-10-21T15:24:42Z</time>
      </trkpt>
      <trkpt lat="43.39268" lon="5.54159">
        <ele>406</ele>
        <time>2020-10-21T15:24:50Z</time>
      </trkpt>
      <trkpt lat="43.39268" lon="5.54165">
        <ele>406</ele>
        <time>2020-10-21T15:24:56Z</time>
      </trkpt>
      <trkpt lat="43.39269" lon="5.54172">
        <ele>400</ele>
        <time>2020-10-21T15:25:02Z</time>
      </trkpt>
      <trkpt lat="43.39273" lon="5.54178">
        <ele>399</ele>
        <time>2020-10-21T15:25:12Z</time>
      </trkpt>
      <trkpt lat="43.39275" lon="5.54185">
        <ele>398</ele>
        <time>2020-10-21T15:25:20Z</time>
      </trkpt>
      <trkpt lat="43.39276" lon="5.54191">
        <ele>397</ele>
        <time>2020-10-21T15:25:26Z</time>
      </trkpt>
      <trkpt lat="43.39279" lon="5.54198">
        <ele>396</ele>
        <time>2020-10-21T15:25:32Z</time>
      </trkpt>
      <trkpt lat="43.39276" lon="5.54204">
        <ele>396</ele>
        <time>2020-10-21T15:25:42Z</time>
      </trkpt>
      <trkpt lat="43.39272" lon="5.54209">
        <ele>395</ele>
        <time>2020-10-21T15:25:48Z</time>
      </trkpt>
      <trkpt lat="43.39272" lon="5.54217">
        <ele>395</ele>
        <time>2020-10-21T15:26:00Z</time>
      </trkpt>
      <trkpt lat="43.39277" lon="5.54223">
        <ele>394</ele>
        <time>2020-10-21T15:26:20Z</time>
      </trkpt>
      <trkpt lat="43.39281" lon="5.54226">
        <ele>394</ele>
        <time>2020-10-21T15:26:26Z</time>
      </trkpt>
      <trkpt lat="43.39286" lon="5.54223">
        <ele>394</ele>
        <time>2020-10-21T15:26:36Z</time>
      </trkpt>
      <trkpt lat="43.39291" lon="5.54227">
        <ele>393</ele>
        <time>2020-10-21T15:26:42Z</time>
      </trkpt>
      <trkpt lat="43.39294" lon="5.54234">
        <ele>392</ele>
        <time>2020-10-21T15:26:48Z</time>
      </trkpt>
      <trkpt lat="43.39298" lon="5.54238">
        <ele>392</ele>
        <time>2020-10-21T15:26:54Z</time>
      </trkpt>
      <trkpt lat="43.39303" lon="5.54241">
        <ele>391</ele>
        <time>2020-10-21T15:27:00Z</time>
      </trkpt>
      <trkpt lat="43.39308" lon="5.54244">
        <ele>390</ele>
        <time>2020-10-21T15:27:12Z</time>
      </trkpt>
      <trkpt lat="43.3931" lon="5.5425">
        <ele>385</ele>
        <time>2020-10-21T15:27:22Z</time>
      </trkpt>
      <trkpt lat="43.39312" lon="5.54258">
        <ele>385</ele>
        <time>2020-10-21T15:27:30Z</time>
      </trkpt>
      <trkpt lat="43.39316" lon="5.54264">
        <ele>384</ele>
        <time>2020-10-21T15:27:36Z</time>
      </trkpt>
      <trkpt lat="43.39319" lon="5.54269">
        <ele>384</ele>
        <time>2020-10-21T15:27:42Z</time>
      </trkpt>
      <trkpt lat="43.3932" lon="5.54275">
        <ele>384</ele>
        <time>2020-10-21T15:28:00Z</time>
      </trkpt>
      <trkpt lat="43.39323" lon="5.5428">
        <ele>384</ele>
        <time>2020-10-21T15:28:06Z</time>
      </trkpt>
      <trkpt lat="43.39325" lon="5.54287">
        <ele>384</ele>
        <time>2020-10-21T15:28:14Z</time>
      </trkpt>
      <trkpt lat="43.39328" lon="5.54294">
        <ele>383</ele>
        <time>2020-10-21T15:28:22Z</time>
      </trkpt>
      <trkpt lat="43.39332" lon="5.543">
        <ele>383</ele>
        <time>2020-10-21T15:28:30Z</time>
      </trkpt>
      <trkpt lat="43.39338" lon="5.54303">
        <ele>377</ele>
        <time>2020-10-21T15:28:36Z</time>
      </trkpt>
      <trkpt lat="43.39341" lon="5.54307">
        <ele>377</ele>
        <time>2020-10-21T15:28:44Z</time>
      </trkpt>
      <trkpt lat="43.39342" lon="5.54315">
        <ele>376</ele>
        <time>2020-10-21T15:28:50Z</time>
      </trkpt>
      <trkpt lat="43.39344" lon="5.54321">
        <ele>376</ele>
        <time>2020-10-21T15:28:56Z</time>
      </trkpt>
      <trkpt lat="43.39347" lon="5.54327">
        <ele>376</ele>
        <time>2020-10-21T15:29:02Z</time>
      </trkpt>
      <trkpt lat="43.39351" lon="5.54333">
        <ele>376</ele>
        <time>2020-10-21T15:29:08Z</time>
      </trkpt>
      <trkpt lat="43.39355" lon="5.54338">
        <ele>372</ele>
        <time>2020-10-21T15:29:14Z</time>
      </trkpt>
      <trkpt lat="43.39358" lon="5.54344">
        <ele>372</ele>
        <time>2020-10-21T15:29:22Z</time>
      </trkpt>
      <trkpt lat="43.39364" lon="5.54347">
        <ele>371</ele>
        <time>2020-10-21T15:29:28Z</time>
      </trkpt>
      <trkpt lat="43.39368" lon="5.54353">
        <ele>371</ele>
        <time>2020-10-21T15:29:34Z</time>
      </trkpt>
      <trkpt lat="43.39372" lon="5.5436">
        <ele>370</ele>
        <time>2020-10-21T15:29:40Z</time>
      </trkpt>
      <trkpt lat="43.39376" lon="5.54366">
        <ele>370</ele>
        <time>2020-10-21T15:29:44Z</time>
      </trkpt>
      <trkpt lat="43.39379" lon="5.54371">
        <ele>370</ele>
        <time>2020-10-21T15:29:48Z</time>
      </trkpt>
      <trkpt lat="43.39383" lon="5.54376">
        <ele>369</ele>
        <time>2020-10-21T15:29:54Z</time>
      </trkpt>
      <trkpt lat="43.39387" lon="5.54382">
        <ele>369</ele>
        <time>2020-10-21T15:30:00Z</time>
      </trkpt>
      <trkpt lat="43.39391" lon="5.54388">
        <ele>369</ele>
        <time>2020-10-21T15:30:06Z</time>
      </trkpt>
      <trkpt lat="43.39395" lon="5.54394">
        <ele>368</ele>
        <time>2020-10-21T15:30:12Z</time>
      </trkpt>
      <trkpt lat="43.39398" lon="5.54399">
        <ele>368</ele>
        <time>2020-10-21T15:30:18Z</time>
      </trkpt>
      <trkpt lat="43.39401" lon="5.54405">
        <ele>367</ele>
        <time>2020-10-21T15:30:24Z</time>
      </trkpt>
      <trkpt lat="43.39405" lon="5.5441">
        <ele>367</ele>
        <time>2020-10-21T15:30:30Z</time>
      </trkpt>
      <trkpt lat="43.39407" lon="5.54416">
        <ele>366</ele>
        <time>2020-10-21T15:30:36Z</time>
      </trkpt>
      <trkpt lat="43.3941" lon="5.54422">
        <ele>365</ele>
        <time>2020-10-21T15:30:42Z</time>
      </trkpt>
      <trkpt lat="43.39413" lon="5.54428">
        <ele>364</ele>
        <time>2020-10-21T15:30:48Z</time>
      </trkpt>
      <trkpt lat="43.39414" lon="5.54435">
        <ele>364</ele>
        <time>2020-10-21T15:30:54Z</time>
      </trkpt>
      <trkpt lat="43.39419" lon="5.54439">
        <ele>364</ele>
        <time>2020-10-21T15:31:02Z</time>
      </trkpt>
      <trkpt lat="43.39424" lon="5.54436">
        <ele>364</ele>
        <time>2020-10-21T15:31:08Z</time>
      </trkpt>
      <trkpt lat="43.39428" lon="5.54435">
        <ele>364</ele>
        <time>2020-10-21T15:31:12Z</time>
      </trkpt>
      <trkpt lat="43.39434" lon="5.54437">
        <ele>364</ele>
        <time>2020-10-21T15:31:18Z</time>
      </trkpt>
      <trkpt lat="43.39439" lon="5.5444">
        <ele>364</ele>
        <time>2020-10-21T15:31:24Z</time>
      </trkpt>
      <trkpt lat="43.39444" lon="5.54445">
        <ele>364</ele>
        <time>2020-10-21T15:31:30Z</time>
      </trkpt>
      <trkpt lat="43.39448" lon="5.54451">
        <ele>364</ele>
        <time>2020-10-21T15:31:36Z</time>
      </trkpt>
      <trkpt lat="43.39452" lon="5.54457">
        <ele>364</ele>
        <time>2020-10-21T15:31:42Z</time>
      </trkpt>
      <trkpt lat="43.39454" lon="5.54463">
        <ele>363</ele>
        <time>2020-10-21T15:31:48Z</time>
      </trkpt>
      <trkpt lat="43.39452" lon="5.5447">
        <ele>363</ele>
        <time>2020-10-21T15:31:56Z</time>
      </trkpt>
      <trkpt lat="43.39448" lon="5.54475">
        <ele>363</ele>
        <time>2020-10-21T15:32:02Z</time>
      </trkpt>
      <trkpt lat="43.39444" lon="5.54481">
        <ele>362</ele>
        <time>2020-10-21T15:32:08Z</time>
      </trkpt>
      <trkpt lat="43.3944" lon="5.54488">
        <ele>362</ele>
        <time>2020-10-21T15:32:14Z</time>
      </trkpt>
      <trkpt lat="43.39437" lon="5.54495">
        <ele>361</ele>
        <time>2020-10-21T15:32:20Z</time>
      </trkpt>
      <trkpt lat="43.39435" lon="5.54503">
        <ele>358</ele>
        <time>2020-10-21T15:32:26Z</time>
      </trkpt>
      <trkpt lat="43.39432" lon="5.5451">
        <ele>358</ele>
        <time>2020-10-21T15:32:32Z</time>
      </trkpt>
      <trkpt lat="43.39428" lon="5.54515">
        <ele>358</ele>
        <time>2020-10-21T15:32:38Z</time>
      </trkpt>
      <trkpt lat="43.39423" lon="5.54514">
        <ele>358</ele>
        <time>2020-10-21T15:32:46Z</time>
      </trkpt>
    </trkseg>
  </trk>
</gpx>